<?xml version="1.0" encoding="UTF-8"?>
<gpx version="1.1" creator="https://www.youtrack.es" xsi:schemaLocation="http://www.topografix.com/GPX/1/1 http://www.topografix.com/GPX/1/1/gpx.xsd http://www.garmin.com/xmlschemas/GpxExtensions/v3 http://www.garmin.com/xmlschemas/GpxExtensionsv3.xsd http://www.garmin.com/xmlschemas/TrackPointExtension/v1 http://www.garmin.com/xmlschemas/TrackPointExtensionv1.xsd" xmlns:gpxtpx="http://www.garmin.com/xmlschemas/TrackPointExtension/v1" xmlns:gpxx="http://www.garmin.com/xmlschemas/GpxExtensions/v3" xmlns:xsi="http://www.w3.org/2001/XMLSchema-instance">
  <metadata>
    <link href="https://www.youtrack.es">
      <text>YouTrack.es</text>
    </link>
    <time>2026-05-08T16:28:51Z</time>
  </metadata>
  <trk>
    <src>https://www.youtrack.es</src>
    <link href="https://www.youtrack.es/ruta/24080-dia-4-agosto">
      <text>YouTrack.es</text>
    </link>
    <trkseg>
      <trkpt lat="43.584677" lon="-8.205054">
        <ele>96.57</ele>
        <time>2019-07-26T11:50:45Z</time>
      </trkpt>
      <trkpt lat="43.584646" lon="-8.205271">
        <ele>96.35</ele>
        <time>2019-07-26T11:50:45.37Z</time>
      </trkpt>
      <trkpt lat="43.584473" lon="-8.205559">
        <ele>95.89</ele>
        <time>2019-07-26T11:50:46.14Z</time>
      </trkpt>
      <trkpt lat="43.584327" lon="-8.205950">
        <ele>95.50</ele>
        <time>2019-07-26T11:50:46.79Z</time>
      </trkpt>
      <trkpt lat="43.584319" lon="-8.206112">
        <ele>95.23</ele>
        <time>2019-07-26T11:50:47.23Z</time>
      </trkpt>
      <trkpt lat="43.584276" lon="-8.206259">
        <ele>95.04</ele>
        <time>2019-07-26T11:50:47.55Z</time>
      </trkpt>
      <trkpt lat="43.584081" lon="-8.206425">
        <ele>94.80</ele>
        <time>2019-07-26T11:50:47.96Z</time>
      </trkpt>
      <trkpt lat="43.583460" lon="-8.206672">
        <ele>94.11</ele>
        <time>2019-07-26T11:50:49.12Z</time>
      </trkpt>
      <trkpt lat="43.583309" lon="-8.206764">
        <ele>93.93</ele>
        <time>2019-07-26T11:50:49.41Z</time>
      </trkpt>
      <trkpt lat="43.583147" lon="-8.206777">
        <ele>93.81</ele>
        <time>2019-07-26T11:50:49.60Z</time>
      </trkpt>
      <trkpt lat="43.582966" lon="-8.206628">
        <ele>93.58</ele>
        <time>2019-07-26T11:50:50Z</time>
      </trkpt>
      <trkpt lat="43.582788" lon="-8.206495">
        <ele>91.51</ele>
        <time>2019-07-26T11:50:55Z</time>
      </trkpt>
      <trkpt lat="43.582624" lon="-8.206315">
        <ele>87.52</ele>
        <time>2019-07-26T11:51:01Z</time>
      </trkpt>
      <trkpt lat="43.582490" lon="-8.206163">
        <ele>85.51</ele>
        <time>2019-07-26T11:51:06Z</time>
      </trkpt>
      <trkpt lat="43.582438" lon="-8.206066">
        <ele>84.89</ele>
        <time>2019-07-26T11:51:07.92Z</time>
      </trkpt>
      <trkpt lat="43.582287" lon="-8.206154">
        <ele>83.57</ele>
        <time>2019-07-26T11:51:12Z</time>
      </trkpt>
      <trkpt lat="43.582110" lon="-8.206217">
        <ele>82.58</ele>
        <time>2019-07-26T11:51:17Z</time>
      </trkpt>
      <trkpt lat="43.581908" lon="-8.206296">
        <ele>82.56</ele>
        <time>2019-07-26T11:51:22Z</time>
      </trkpt>
      <trkpt lat="43.581739" lon="-8.206382">
        <ele>81.51</ele>
        <time>2019-07-26T11:51:26Z</time>
      </trkpt>
      <trkpt lat="43.581555" lon="-8.206513">
        <ele>80.58</ele>
        <time>2019-07-26T11:51:31Z</time>
      </trkpt>
      <trkpt lat="43.581389" lon="-8.206631">
        <ele>80.52</ele>
        <time>2019-07-26T11:51:35Z</time>
      </trkpt>
      <trkpt lat="43.581234" lon="-8.206761">
        <ele>80.55</ele>
        <time>2019-07-26T11:51:39Z</time>
      </trkpt>
      <trkpt lat="43.581188" lon="-8.207002">
        <ele>79.53</ele>
        <time>2019-07-26T11:51:45Z</time>
      </trkpt>
      <trkpt lat="43.581197" lon="-8.207264">
        <ele>79.57</ele>
        <time>2019-07-26T11:51:55Z</time>
      </trkpt>
      <trkpt lat="43.581204" lon="-8.207527">
        <ele>79.56</ele>
        <time>2019-07-26T11:52:04Z</time>
      </trkpt>
      <trkpt lat="43.581212" lon="-8.207799">
        <ele>79.52</ele>
        <time>2019-07-26T11:52:13Z</time>
      </trkpt>
      <trkpt lat="43.581225" lon="-8.208054">
        <ele>79.51</ele>
        <time>2019-07-26T11:52:21Z</time>
      </trkpt>
      <trkpt lat="43.581230" lon="-8.208333">
        <ele>79.54</ele>
        <time>2019-07-26T11:52:30Z</time>
      </trkpt>
      <trkpt lat="43.581241" lon="-8.208605">
        <ele>78.60</ele>
        <time>2019-07-26T11:52:39Z</time>
      </trkpt>
      <trkpt lat="43.581242" lon="-8.208861">
        <ele>78.55</ele>
        <time>2019-07-26T11:52:47Z</time>
      </trkpt>
      <trkpt lat="43.581250" lon="-8.209147">
        <ele>79.59</ele>
        <time>2019-07-26T11:52:55Z</time>
      </trkpt>
      <trkpt lat="43.581254" lon="-8.209402">
        <ele>78.53</ele>
        <time>2019-07-26T11:53:01Z</time>
      </trkpt>
      <trkpt lat="43.581188" lon="-8.209639">
        <ele>78.54</ele>
        <time>2019-07-26T11:53:08Z</time>
      </trkpt>
      <trkpt lat="43.580998" lon="-8.209674">
        <ele>79.58</ele>
        <time>2019-07-26T11:53:17Z</time>
      </trkpt>
      <trkpt lat="43.580804" lon="-8.209703">
        <ele>79.58</ele>
        <time>2019-07-26T11:53:26Z</time>
      </trkpt>
      <trkpt lat="43.580610" lon="-8.209725">
        <ele>80.52</ele>
        <time>2019-07-26T11:53:35Z</time>
      </trkpt>
      <trkpt lat="43.580431" lon="-8.209755">
        <ele>80.50</ele>
        <time>2019-07-26T11:53:44Z</time>
      </trkpt>
      <trkpt lat="43.580245" lon="-8.209776">
        <ele>83.51</ele>
        <time>2019-07-26T11:53:54Z</time>
      </trkpt>
      <trkpt lat="43.580063" lon="-8.209792">
        <ele>85.51</ele>
        <time>2019-07-26T11:54:04Z</time>
      </trkpt>
      <trkpt lat="43.579879" lon="-8.209859">
        <ele>86.53</ele>
        <time>2019-07-26T11:54:14Z</time>
      </trkpt>
      <trkpt lat="43.579741" lon="-8.210018">
        <ele>87.51</ele>
        <time>2019-07-26T11:54:24Z</time>
      </trkpt>
      <trkpt lat="43.579607" lon="-8.210210">
        <ele>88.52</ele>
        <time>2019-07-26T11:54:35Z</time>
      </trkpt>
      <trkpt lat="43.579515" lon="-8.210289">
        <ele>89.53</ele>
        <time>2019-07-26T11:55:07Z</time>
      </trkpt>
      <trkpt lat="43.579463" lon="-8.210311">
        <ele>91.56</ele>
        <time>2019-07-26T11:56:09Z</time>
      </trkpt>
      <trkpt lat="43.579421" lon="-8.210339">
        <ele>90.52</ele>
        <time>2019-07-26T11:57:15Z</time>
      </trkpt>
      <trkpt lat="43.579228" lon="-8.210347">
        <ele>91.55</ele>
        <time>2019-07-26T11:57:26Z</time>
      </trkpt>
      <trkpt lat="43.579039" lon="-8.210353">
        <ele>92.51</ele>
        <time>2019-07-26T11:57:51Z</time>
      </trkpt>
      <trkpt lat="43.578855" lon="-8.210367">
        <ele>92.55</ele>
        <time>2019-07-26T11:58:01Z</time>
      </trkpt>
      <trkpt lat="43.578660" lon="-8.210374">
        <ele>93.50</ele>
        <time>2019-07-26T11:58:12Z</time>
      </trkpt>
      <trkpt lat="43.578476" lon="-8.210407">
        <ele>94.52</ele>
        <time>2019-07-26T11:58:24Z</time>
      </trkpt>
      <trkpt lat="43.578297" lon="-8.210498">
        <ele>96.51</ele>
        <time>2019-07-26T11:58:36Z</time>
      </trkpt>
      <trkpt lat="43.578118" lon="-8.210596">
        <ele>97.59</ele>
        <time>2019-07-26T11:58:48Z</time>
      </trkpt>
      <trkpt lat="43.577939" lon="-8.210695">
        <ele>98.54</ele>
        <time>2019-07-26T11:59:00Z</time>
      </trkpt>
      <trkpt lat="43.577760" lon="-8.210782">
        <ele>100.57</ele>
        <time>2019-07-26T11:59:12Z</time>
      </trkpt>
      <trkpt lat="43.577582" lon="-8.210877">
        <ele>101.57</ele>
        <time>2019-07-26T11:59:24Z</time>
      </trkpt>
      <trkpt lat="43.577400" lon="-8.210961">
        <ele>102.53</ele>
        <time>2019-07-26T11:59:36Z</time>
      </trkpt>
      <trkpt lat="43.577227" lon="-8.211066">
        <ele>104.57</ele>
        <time>2019-07-26T11:59:48Z</time>
      </trkpt>
      <trkpt lat="43.577050" lon="-8.211179">
        <ele>98.53</ele>
        <time>2019-07-26T12:00:02Z</time>
      </trkpt>
      <trkpt lat="43.576890" lon="-8.211319">
        <ele>98.58</ele>
        <time>2019-07-26T12:00:14Z</time>
      </trkpt>
      <trkpt lat="43.576736" lon="-8.211483">
        <ele>97.57</ele>
        <time>2019-07-26T12:00:52Z</time>
      </trkpt>
      <trkpt lat="43.576575" lon="-8.211658">
        <ele>99.51</ele>
        <time>2019-07-26T12:01:02Z</time>
      </trkpt>
      <trkpt lat="43.576409" lon="-8.211844">
        <ele>104.51</ele>
        <time>2019-07-26T12:01:08Z</time>
      </trkpt>
      <trkpt lat="43.576280" lon="-8.212044">
        <ele>104.51</ele>
        <time>2019-07-26T12:01:14Z</time>
      </trkpt>
      <trkpt lat="43.576152" lon="-8.212239">
        <ele>105.52</ele>
        <time>2019-07-26T12:01:19Z</time>
      </trkpt>
      <trkpt lat="43.575995" lon="-8.212389">
        <ele>107.57</ele>
        <time>2019-07-26T12:01:29Z</time>
      </trkpt>
      <trkpt lat="43.575847" lon="-8.212558">
        <ele>107.55</ele>
        <time>2019-07-26T12:01:41Z</time>
      </trkpt>
      <trkpt lat="43.575742" lon="-8.212762">
        <ele>109.60</ele>
        <time>2019-07-26T12:01:53Z</time>
      </trkpt>
      <trkpt lat="43.575615" lon="-8.212961">
        <ele>108.55</ele>
        <time>2019-07-26T12:02:06Z</time>
      </trkpt>
      <trkpt lat="43.575504" lon="-8.213168">
        <ele>108.59</ele>
        <time>2019-07-26T12:02:20Z</time>
      </trkpt>
      <trkpt lat="43.575422" lon="-8.213394">
        <ele>109.52</ele>
        <time>2019-07-26T12:02:36Z</time>
      </trkpt>
      <trkpt lat="43.575356" lon="-8.213627">
        <ele>116.58</ele>
        <time>2019-07-26T12:02:55Z</time>
      </trkpt>
      <trkpt lat="43.575262" lon="-8.213858">
        <ele>117.53</ele>
        <time>2019-07-26T12:03:12Z</time>
      </trkpt>
      <trkpt lat="43.575162" lon="-8.214073">
        <ele>123.59</ele>
        <time>2019-07-26T12:03:28Z</time>
      </trkpt>
      <trkpt lat="43.575157" lon="-8.214326">
        <ele>127.51</ele>
        <time>2019-07-26T12:04:48Z</time>
      </trkpt>
      <trkpt lat="43.575060" lon="-8.214540">
        <ele>132.51</ele>
        <time>2019-07-26T12:05:05Z</time>
      </trkpt>
      <trkpt lat="43.575240" lon="-8.214497">
        <ele>137.57</ele>
        <time>2019-07-26T12:06:47Z</time>
      </trkpt>
      <trkpt lat="43.575426" lon="-8.214431">
        <ele>140.55</ele>
        <time>2019-07-26T12:07:42Z</time>
      </trkpt>
      <trkpt lat="43.575614" lon="-8.214463">
        <ele>142.55</ele>
        <time>2019-07-26T12:07:56Z</time>
      </trkpt>
      <trkpt lat="43.575783" lon="-8.214587">
        <ele>141.54</ele>
        <time>2019-07-26T12:08:10Z</time>
      </trkpt>
      <trkpt lat="43.575995" lon="-8.214886">
        <ele>141.51</ele>
        <time>2019-07-26T12:08:23Z</time>
      </trkpt>
      <trkpt lat="43.575923" lon="-8.214906">
        <ele>141.52</ele>
        <time>2019-07-26T12:08:29.39Z</time>
      </trkpt>
      <trkpt lat="43.575801" lon="-8.214845">
        <ele>141.53</ele>
        <time>2019-07-26T12:08:45Z</time>
      </trkpt>
      <trkpt lat="43.575658" lon="-8.214848">
        <ele>144.17</ele>
        <time>2019-07-26T12:08:52.36Z</time>
      </trkpt>
      <trkpt lat="43.575597" lon="-8.214917">
        <ele>146.55</ele>
        <time>2019-07-26T12:08:59Z</time>
      </trkpt>
      <trkpt lat="43.575430" lon="-8.215087">
        <ele>148.54</ele>
        <time>2019-07-26T12:09:46Z</time>
      </trkpt>
      <trkpt lat="43.575295" lon="-8.215256">
        <ele>152.54</ele>
        <time>2019-07-26T12:10:03Z</time>
      </trkpt>
      <trkpt lat="43.575162" lon="-8.215430">
        <ele>157.55</ele>
        <time>2019-07-26T12:10:27Z</time>
      </trkpt>
      <trkpt lat="43.575022" lon="-8.215592">
        <ele>163.51</ele>
        <time>2019-07-26T12:10:54Z</time>
      </trkpt>
      <trkpt lat="43.574911" lon="-8.215789">
        <ele>168.51</ele>
        <time>2019-07-26T12:11:29Z</time>
      </trkpt>
      <trkpt lat="43.574795" lon="-8.215986">
        <ele>172.56</ele>
        <time>2019-07-26T12:13:31Z</time>
      </trkpt>
      <trkpt lat="43.574691" lon="-8.216189">
        <ele>176.56</ele>
        <time>2019-07-26T12:13:55Z</time>
      </trkpt>
      <trkpt lat="43.574583" lon="-8.216397">
        <ele>181.59</ele>
        <time>2019-07-26T12:14:20Z</time>
      </trkpt>
      <trkpt lat="43.574479" lon="-8.216604">
        <ele>184.51</ele>
        <time>2019-07-26T12:15:48Z</time>
      </trkpt>
      <trkpt lat="43.574390" lon="-8.216831">
        <ele>188.57</ele>
        <time>2019-07-26T12:16:13Z</time>
      </trkpt>
      <trkpt lat="43.574297" lon="-8.217047">
        <ele>194.56</ele>
        <time>2019-07-26T12:16:56Z</time>
      </trkpt>
      <trkpt lat="43.574229" lon="-8.217278">
        <ele>200.58</ele>
        <time>2019-07-26T12:17:18Z</time>
      </trkpt>
      <trkpt lat="43.574108" lon="-8.217465">
        <ele>204.57</ele>
        <time>2019-07-26T12:17:39Z</time>
      </trkpt>
      <trkpt lat="43.574015" lon="-8.217687">
        <ele>207.51</ele>
        <time>2019-07-26T12:18:05Z</time>
      </trkpt>
      <trkpt lat="43.573958" lon="-8.217923">
        <ele>210.55</ele>
        <time>2019-07-26T12:20:32Z</time>
      </trkpt>
      <trkpt lat="43.573874" lon="-8.218171">
        <ele>209.51</ele>
        <time>2019-07-26T12:22:32Z</time>
      </trkpt>
      <trkpt lat="43.573775" lon="-8.218404">
        <ele>206.51</ele>
        <time>2019-07-26T12:22:42Z</time>
      </trkpt>
      <trkpt lat="43.573651" lon="-8.218591">
        <ele>203.58</ele>
        <time>2019-07-26T12:22:50Z</time>
      </trkpt>
      <trkpt lat="43.573543" lon="-8.218811">
        <ele>200.51</ele>
        <time>2019-07-26T12:22:58Z</time>
      </trkpt>
      <trkpt lat="43.573417" lon="-8.219022">
        <ele>197.54</ele>
        <time>2019-07-26T12:23:05Z</time>
      </trkpt>
      <trkpt lat="43.573327" lon="-8.219240">
        <ele>196.52</ele>
        <time>2019-07-26T12:23:12Z</time>
      </trkpt>
      <trkpt lat="43.573195" lon="-8.219451">
        <ele>193.54</ele>
        <time>2019-07-26T12:23:19Z</time>
      </trkpt>
      <trkpt lat="43.573068" lon="-8.219663">
        <ele>191.57</ele>
        <time>2019-07-26T12:23:25Z</time>
      </trkpt>
      <trkpt lat="43.572937" lon="-8.219854">
        <ele>190.56</ele>
        <time>2019-07-26T12:23:30Z</time>
      </trkpt>
      <trkpt lat="43.572786" lon="-8.220018">
        <ele>189.58</ele>
        <time>2019-07-26T12:23:34Z</time>
      </trkpt>
      <trkpt lat="43.572635" lon="-8.220155">
        <ele>189.54</ele>
        <time>2019-07-26T12:23:38Z</time>
      </trkpt>
      <trkpt lat="43.572469" lon="-8.220301">
        <ele>189.57</ele>
        <time>2019-07-26T12:23:43Z</time>
      </trkpt>
      <trkpt lat="43.572305" lon="-8.220448">
        <ele>189.52</ele>
        <time>2019-07-26T12:23:52Z</time>
      </trkpt>
      <trkpt lat="43.572152" lon="-8.220612">
        <ele>190.51</ele>
        <time>2019-07-26T12:24:02Z</time>
      </trkpt>
      <trkpt lat="43.571982" lon="-8.220750">
        <ele>191.60</ele>
        <time>2019-07-26T12:24:12Z</time>
      </trkpt>
      <trkpt lat="43.571800" lon="-8.220798">
        <ele>193.52</ele>
        <time>2019-07-26T12:24:25Z</time>
      </trkpt>
      <trkpt lat="43.571618" lon="-8.220900">
        <ele>193.54</ele>
        <time>2019-07-26T12:24:35Z</time>
      </trkpt>
      <trkpt lat="43.571460" lon="-8.221019">
        <ele>194.57</ele>
        <time>2019-07-26T12:24:44Z</time>
      </trkpt>
      <trkpt lat="43.571295" lon="-8.221167">
        <ele>193.52</ele>
        <time>2019-07-26T12:24:53Z</time>
      </trkpt>
      <trkpt lat="43.571146" lon="-8.221314">
        <ele>191.55</ele>
        <time>2019-07-26T12:25:01Z</time>
      </trkpt>
      <trkpt lat="43.570988" lon="-8.221486">
        <ele>189.57</ele>
        <time>2019-07-26T12:25:08Z</time>
      </trkpt>
      <trkpt lat="43.570789" lon="-8.221504">
        <ele>186.54</ele>
        <time>2019-07-26T12:25:18Z</time>
      </trkpt>
      <trkpt lat="43.570600" lon="-8.221586">
        <ele>182.54</ele>
        <time>2019-07-26T12:25:25Z</time>
      </trkpt>
      <trkpt lat="43.570419" lon="-8.221649">
        <ele>179.55</ele>
        <time>2019-07-26T12:25:34Z</time>
      </trkpt>
      <trkpt lat="43.570251" lon="-8.221771">
        <ele>180.51</ele>
        <time>2019-07-26T12:26:41Z</time>
      </trkpt>
      <trkpt lat="43.570137" lon="-8.221980">
        <ele>183.51</ele>
        <time>2019-07-26T12:26:54Z</time>
      </trkpt>
      <trkpt lat="43.569993" lon="-8.222131">
        <ele>186.54</ele>
        <time>2019-07-26T12:27:07Z</time>
      </trkpt>
      <trkpt lat="43.569838" lon="-8.222261">
        <ele>189.53</ele>
        <time>2019-07-26T12:27:20Z</time>
      </trkpt>
      <trkpt lat="43.569674" lon="-8.222386">
        <ele>190.58</ele>
        <time>2019-07-26T12:27:34Z</time>
      </trkpt>
      <trkpt lat="43.569521" lon="-8.222541">
        <ele>192.54</ele>
        <time>2019-07-26T12:27:47Z</time>
      </trkpt>
      <trkpt lat="43.569371" lon="-8.222681">
        <ele>194.52</ele>
        <time>2019-07-26T12:27:59Z</time>
      </trkpt>
      <trkpt lat="43.569201" lon="-8.222792">
        <ele>196.56</ele>
        <time>2019-07-26T12:28:13Z</time>
      </trkpt>
      <trkpt lat="43.569028" lon="-8.222889">
        <ele>198.53</ele>
        <time>2019-07-26T12:28:28Z</time>
      </trkpt>
      <trkpt lat="43.568864" lon="-8.223020">
        <ele>199.59</ele>
        <time>2019-07-26T12:28:44Z</time>
      </trkpt>
      <trkpt lat="43.568715" lon="-8.223179">
        <ele>202.56</ele>
        <time>2019-07-26T12:29:02Z</time>
      </trkpt>
      <trkpt lat="43.568544" lon="-8.223298">
        <ele>205.51</ele>
        <time>2019-07-26T12:29:19Z</time>
      </trkpt>
      <trkpt lat="43.568384" lon="-8.223431">
        <ele>208.52</ele>
        <time>2019-07-26T12:29:36Z</time>
      </trkpt>
      <trkpt lat="43.568279" lon="-8.223634">
        <ele>211.51</ele>
        <time>2019-07-26T12:29:53Z</time>
      </trkpt>
      <trkpt lat="43.568274" lon="-8.223886">
        <ele>216.59</ele>
        <time>2019-07-26T12:30:10Z</time>
      </trkpt>
      <trkpt lat="43.568327" lon="-8.224146">
        <ele>216.57</ele>
        <time>2019-07-26T12:30:24Z</time>
      </trkpt>
      <trkpt lat="43.568260" lon="-8.224377">
        <ele>215.59</ele>
        <time>2019-07-26T12:30:38Z</time>
      </trkpt>
      <trkpt lat="43.568094" lon="-8.224497">
        <ele>210.55</ele>
        <time>2019-07-26T12:34:57Z</time>
      </trkpt>
      <trkpt lat="43.567951" lon="-8.224680">
        <ele>207.54</ele>
        <time>2019-07-26T12:35:03Z</time>
      </trkpt>
      <trkpt lat="43.567840" lon="-8.224923">
        <ele>202.51</ele>
        <time>2019-07-26T12:35:09Z</time>
      </trkpt>
      <trkpt lat="43.567709" lon="-8.225164">
        <ele>199.57</ele>
        <time>2019-07-26T12:35:14Z</time>
      </trkpt>
      <trkpt lat="43.567655" lon="-8.225438">
        <ele>197.60</ele>
        <time>2019-07-26T12:35:19Z</time>
      </trkpt>
      <trkpt lat="43.567624" lon="-8.225730">
        <ele>195.52</ele>
        <time>2019-07-26T12:35:24Z</time>
      </trkpt>
      <trkpt lat="43.567588" lon="-8.225997">
        <ele>194.54</ele>
        <time>2019-07-26T12:35:29Z</time>
      </trkpt>
      <trkpt lat="43.567499" lon="-8.226214">
        <ele>191.51</ele>
        <time>2019-07-26T12:35:35Z</time>
      </trkpt>
      <trkpt lat="43.567435" lon="-8.226488">
        <ele>186.51</ele>
        <time>2019-07-26T12:35:41Z</time>
      </trkpt>
      <trkpt lat="43.567380" lon="-8.226746">
        <ele>182.53</ele>
        <time>2019-07-26T12:35:47Z</time>
      </trkpt>
      <trkpt lat="43.567267" lon="-8.227025">
        <ele>180.53</ele>
        <time>2019-07-26T12:35:52Z</time>
      </trkpt>
      <trkpt lat="43.567178" lon="-8.227298">
        <ele>180.58</ele>
        <time>2019-07-26T12:35:56Z</time>
      </trkpt>
      <trkpt lat="43.567095" lon="-8.227553">
        <ele>180.57</ele>
        <time>2019-07-26T12:36:01Z</time>
      </trkpt>
      <trkpt lat="43.567111" lon="-8.227810">
        <ele>182.57</ele>
        <time>2019-07-26T12:36:33Z</time>
      </trkpt>
      <trkpt lat="43.567192" lon="-8.228040">
        <ele>183.53</ele>
        <time>2019-07-26T12:36:45Z</time>
      </trkpt>
      <trkpt lat="43.567283" lon="-8.228268">
        <ele>182.59</ele>
        <time>2019-07-26T12:36:56Z</time>
      </trkpt>
      <trkpt lat="43.567340" lon="-8.228518">
        <ele>185.52</ele>
        <time>2019-07-26T12:37:06Z</time>
      </trkpt>
      <trkpt lat="43.567366" lon="-8.228788">
        <ele>186.55</ele>
        <time>2019-07-26T12:37:17Z</time>
      </trkpt>
      <trkpt lat="43.567408" lon="-8.229039">
        <ele>186.50</ele>
        <time>2019-07-26T12:37:27Z</time>
      </trkpt>
      <trkpt lat="43.567473" lon="-8.229270">
        <ele>186.51</ele>
        <time>2019-07-26T12:37:38Z</time>
      </trkpt>
      <trkpt lat="43.567590" lon="-8.229468">
        <ele>186.51</ele>
        <time>2019-07-26T12:37:49Z</time>
      </trkpt>
      <trkpt lat="43.567711" lon="-8.229653">
        <ele>186.54</ele>
        <time>2019-07-26T12:37:59Z</time>
      </trkpt>
      <trkpt lat="43.567834" lon="-8.229844">
        <ele>187.51</ele>
        <time>2019-07-26T12:38:10Z</time>
      </trkpt>
      <trkpt lat="43.567964" lon="-8.230022">
        <ele>189.58</ele>
        <time>2019-07-26T12:38:23Z</time>
      </trkpt>
      <trkpt lat="43.568093" lon="-8.230208">
        <ele>191.55</ele>
        <time>2019-07-26T12:38:36Z</time>
      </trkpt>
      <trkpt lat="43.568220" lon="-8.230400">
        <ele>193.57</ele>
        <time>2019-07-26T12:38:52Z</time>
      </trkpt>
      <trkpt lat="43.568317" lon="-8.230620">
        <ele>195.53</ele>
        <time>2019-07-26T12:39:08Z</time>
      </trkpt>
      <trkpt lat="43.568367" lon="-8.230868">
        <ele>195.56</ele>
        <time>2019-07-26T12:39:23Z</time>
      </trkpt>
      <trkpt lat="43.568331" lon="-8.231117">
        <ele>198.56</ele>
        <time>2019-07-26T12:39:40Z</time>
      </trkpt>
      <trkpt lat="43.568272" lon="-8.231360">
        <ele>201.56</ele>
        <time>2019-07-26T12:40:59Z</time>
      </trkpt>
      <trkpt lat="43.568199" lon="-8.231598">
        <ele>202.55</ele>
        <time>2019-07-26T12:41:12Z</time>
      </trkpt>
      <trkpt lat="43.568130" lon="-8.231841">
        <ele>203.52</ele>
        <time>2019-07-26T12:41:25Z</time>
      </trkpt>
      <trkpt lat="43.568030" lon="-8.232070">
        <ele>204.51</ele>
        <time>2019-07-26T12:41:36Z</time>
      </trkpt>
      <trkpt lat="43.567930" lon="-8.232279">
        <ele>204.56</ele>
        <time>2019-07-26T12:41:47Z</time>
      </trkpt>
      <trkpt lat="43.567854" lon="-8.232508">
        <ele>204.53</ele>
        <time>2019-07-26T12:41:55Z</time>
      </trkpt>
      <trkpt lat="43.567780" lon="-8.232791">
        <ele>203.59</ele>
        <time>2019-07-26T12:42:00Z</time>
      </trkpt>
      <trkpt lat="43.567710" lon="-8.233054">
        <ele>202.59</ele>
        <time>2019-07-26T12:42:04Z</time>
      </trkpt>
      <trkpt lat="43.567637" lon="-8.233305">
        <ele>202.59</ele>
        <time>2019-07-26T12:42:08Z</time>
      </trkpt>
      <trkpt lat="43.567565" lon="-8.233555">
        <ele>201.55</ele>
        <time>2019-07-26T12:42:12Z</time>
      </trkpt>
      <trkpt lat="43.567474" lon="-8.233820">
        <ele>201.55</ele>
        <time>2019-07-26T12:42:17Z</time>
      </trkpt>
      <trkpt lat="43.567391" lon="-8.234047">
        <ele>201.57</ele>
        <time>2019-07-26T12:42:22Z</time>
      </trkpt>
      <trkpt lat="43.567304" lon="-8.234278">
        <ele>200.60</ele>
        <time>2019-07-26T12:42:28Z</time>
      </trkpt>
      <trkpt lat="43.567226" lon="-8.234533">
        <ele>200.51</ele>
        <time>2019-07-26T12:42:36Z</time>
      </trkpt>
      <trkpt lat="43.567139" lon="-8.234757">
        <ele>200.53</ele>
        <time>2019-07-26T12:42:42Z</time>
      </trkpt>
      <trkpt lat="43.567041" lon="-8.235000">
        <ele>200.51</ele>
        <time>2019-07-26T12:42:48Z</time>
      </trkpt>
      <trkpt lat="43.566914" lon="-8.235211">
        <ele>200.57</ele>
        <time>2019-07-26T12:42:54Z</time>
      </trkpt>
      <trkpt lat="43.566782" lon="-8.235408">
        <ele>200.52</ele>
        <time>2019-07-26T12:43:00Z</time>
      </trkpt>
      <trkpt lat="43.566662" lon="-8.235627">
        <ele>199.59</ele>
        <time>2019-07-26T12:43:06Z</time>
      </trkpt>
      <trkpt lat="43.566542" lon="-8.235815">
        <ele>199.59</ele>
        <time>2019-07-26T12:43:11Z</time>
      </trkpt>
      <trkpt lat="43.566399" lon="-8.235998">
        <ele>199.56</ele>
        <time>2019-07-26T12:43:17Z</time>
      </trkpt>
      <trkpt lat="43.566273" lon="-8.236211">
        <ele>199.53</ele>
        <time>2019-07-26T12:43:23Z</time>
      </trkpt>
      <trkpt lat="43.566149" lon="-8.236440">
        <ele>199.59</ele>
        <time>2019-07-26T12:43:29Z</time>
      </trkpt>
      <trkpt lat="43.566002" lon="-8.236657">
        <ele>198.52</ele>
        <time>2019-07-26T12:43:35Z</time>
      </trkpt>
      <trkpt lat="43.565884" lon="-8.236868">
        <ele>197.55</ele>
        <time>2019-07-26T12:43:40Z</time>
      </trkpt>
      <trkpt lat="43.565793" lon="-8.237113">
        <ele>198.56</ele>
        <time>2019-07-26T12:43:46Z</time>
      </trkpt>
      <trkpt lat="43.565711" lon="-8.237366">
        <ele>198.52</ele>
        <time>2019-07-26T12:43:52Z</time>
      </trkpt>
      <trkpt lat="43.565696" lon="-8.237626">
        <ele>198.51</ele>
        <time>2019-07-26T12:43:58Z</time>
      </trkpt>
      <trkpt lat="43.565707" lon="-8.237884">
        <ele>196.57</ele>
        <time>2019-07-26T12:44:05Z</time>
      </trkpt>
      <trkpt lat="43.565732" lon="-8.238152">
        <ele>194.55</ele>
        <time>2019-07-26T12:44:13Z</time>
      </trkpt>
      <trkpt lat="43.565759" lon="-8.238414">
        <ele>192.57</ele>
        <time>2019-07-26T12:44:19Z</time>
      </trkpt>
      <trkpt lat="43.565757" lon="-8.238690">
        <ele>190.53</ele>
        <time>2019-07-26T12:44:25Z</time>
      </trkpt>
      <trkpt lat="43.565670" lon="-8.238912">
        <ele>189.58</ele>
        <time>2019-07-26T12:44:30Z</time>
      </trkpt>
      <trkpt lat="43.565564" lon="-8.239179">
        <ele>187.56</ele>
        <time>2019-07-26T12:44:35Z</time>
      </trkpt>
      <trkpt lat="43.565458" lon="-8.239433">
        <ele>185.56</ele>
        <time>2019-07-26T12:44:39Z</time>
      </trkpt>
      <trkpt lat="43.565361" lon="-8.239662">
        <ele>184.57</ele>
        <time>2019-07-26T12:44:43Z</time>
      </trkpt>
      <trkpt lat="43.565310" lon="-8.239927">
        <ele>182.58</ele>
        <time>2019-07-26T12:44:48Z</time>
      </trkpt>
      <trkpt lat="43.565297" lon="-8.240210">
        <ele>179.56</ele>
        <time>2019-07-26T12:45:15Z</time>
      </trkpt>
      <trkpt lat="43.565288" lon="-8.240506">
        <ele>177.53</ele>
        <time>2019-07-26T12:45:22Z</time>
      </trkpt>
      <trkpt lat="43.565272" lon="-8.240763">
        <ele>175.51</ele>
        <time>2019-07-26T12:45:27Z</time>
      </trkpt>
      <trkpt lat="43.565214" lon="-8.241050">
        <ele>173.59</ele>
        <time>2019-07-26T12:45:32Z</time>
      </trkpt>
      <trkpt lat="43.565144" lon="-8.241318">
        <ele>172.54</ele>
        <time>2019-07-26T12:45:37Z</time>
      </trkpt>
      <trkpt lat="43.565049" lon="-8.241537">
        <ele>170.53</ele>
        <time>2019-07-26T12:45:44Z</time>
      </trkpt>
      <trkpt lat="43.564896" lon="-8.241722">
        <ele>170.52</ele>
        <time>2019-07-26T12:46:55Z</time>
      </trkpt>
      <trkpt lat="43.564735" lon="-8.241847">
        <ele>168.53</ele>
        <time>2019-07-26T12:47:25Z</time>
      </trkpt>
      <trkpt lat="43.564544" lon="-8.241950">
        <ele>168.53</ele>
        <time>2019-07-26T12:47:32Z</time>
      </trkpt>
      <trkpt lat="43.564348" lon="-8.242028">
        <ele>166.56</ele>
        <time>2019-07-26T12:47:38Z</time>
      </trkpt>
      <trkpt lat="43.564150" lon="-8.242088">
        <ele>166.53</ele>
        <time>2019-07-26T12:47:44Z</time>
      </trkpt>
      <trkpt lat="43.563955" lon="-8.242097">
        <ele>166.52</ele>
        <time>2019-07-26T12:47:50Z</time>
      </trkpt>
      <trkpt lat="43.563779" lon="-8.242035">
        <ele>166.59</ele>
        <time>2019-07-26T12:47:57Z</time>
      </trkpt>
      <trkpt lat="43.563589" lon="-8.241926">
        <ele>166.51</ele>
        <time>2019-07-26T12:48:03Z</time>
      </trkpt>
      <trkpt lat="43.563425" lon="-8.241823">
        <ele>166.51</ele>
        <time>2019-07-26T12:48:08Z</time>
      </trkpt>
      <trkpt lat="43.563247" lon="-8.241717">
        <ele>166.53</ele>
        <time>2019-07-26T12:48:14Z</time>
      </trkpt>
      <trkpt lat="43.563067" lon="-8.241643">
        <ele>168.55</ele>
        <time>2019-07-26T12:48:23Z</time>
      </trkpt>
      <trkpt lat="43.562887" lon="-8.241621">
        <ele>170.60</ele>
        <time>2019-07-26T12:48:35Z</time>
      </trkpt>
      <trkpt lat="43.562706" lon="-8.241625">
        <ele>171.57</ele>
        <time>2019-07-26T12:48:46Z</time>
      </trkpt>
      <trkpt lat="43.562518" lon="-8.241713">
        <ele>170.59</ele>
        <time>2019-07-26T12:48:57Z</time>
      </trkpt>
      <trkpt lat="43.562523" lon="-8.241965">
        <ele>172.58</ele>
        <time>2019-07-26T12:49:09Z</time>
      </trkpt>
      <trkpt lat="43.562580" lon="-8.242202">
        <ele>173.52</ele>
        <time>2019-07-26T12:49:21Z</time>
      </trkpt>
      <trkpt lat="43.562600" lon="-8.242464">
        <ele>174.59</ele>
        <time>2019-07-26T12:49:33Z</time>
      </trkpt>
      <trkpt lat="43.562593" lon="-8.242749">
        <ele>170.57</ele>
        <time>2019-07-26T12:49:40Z</time>
      </trkpt>
      <trkpt lat="43.562609" lon="-8.243003">
        <ele>168.51</ele>
        <time>2019-07-26T12:49:45Z</time>
      </trkpt>
      <trkpt lat="43.562619" lon="-8.243286">
        <ele>168.51</ele>
        <time>2019-07-26T12:49:51Z</time>
      </trkpt>
      <trkpt lat="43.562626" lon="-8.243582">
        <ele>165.51</ele>
        <time>2019-07-26T12:49:57Z</time>
      </trkpt>
      <trkpt lat="43.562639" lon="-8.243887">
        <ele>162.51</ele>
        <time>2019-07-26T12:50:02Z</time>
      </trkpt>
      <trkpt lat="43.562658" lon="-8.244185">
        <ele>161.53</ele>
        <time>2019-07-26T12:50:07Z</time>
      </trkpt>
      <trkpt lat="43.562672" lon="-8.244457">
        <ele>159.56</ele>
        <time>2019-07-26T12:50:12Z</time>
      </trkpt>
      <trkpt lat="43.562685" lon="-8.244739">
        <ele>157.59</ele>
        <time>2019-07-26T12:50:17Z</time>
      </trkpt>
      <trkpt lat="43.562700" lon="-8.244992">
        <ele>156.57</ele>
        <time>2019-07-26T12:50:24Z</time>
      </trkpt>
      <trkpt lat="43.562713" lon="-8.245262">
        <ele>152.54</ele>
        <time>2019-07-26T12:51:43Z</time>
      </trkpt>
      <trkpt lat="43.562676" lon="-8.245545">
        <ele>150.55</ele>
        <time>2019-07-26T12:51:51Z</time>
      </trkpt>
      <trkpt lat="43.562592" lon="-8.245792">
        <ele>146.54</ele>
        <time>2019-07-26T12:51:58Z</time>
      </trkpt>
      <trkpt lat="43.562516" lon="-8.246022">
        <ele>143.56</ele>
        <time>2019-07-26T12:52:04Z</time>
      </trkpt>
      <trkpt lat="43.562440" lon="-8.246259">
        <ele>139.51</ele>
        <time>2019-07-26T12:52:10Z</time>
      </trkpt>
      <trkpt lat="43.562359" lon="-8.246498">
        <ele>136.52</ele>
        <time>2019-07-26T12:52:16Z</time>
      </trkpt>
      <trkpt lat="43.562288" lon="-8.246738">
        <ele>133.51</ele>
        <time>2019-07-26T12:52:21Z</time>
      </trkpt>
      <trkpt lat="43.562186" lon="-8.247002">
        <ele>130.56</ele>
        <time>2019-07-26T12:52:27Z</time>
      </trkpt>
      <trkpt lat="43.562103" lon="-8.247247">
        <ele>127.58</ele>
        <time>2019-07-26T12:52:34Z</time>
      </trkpt>
      <trkpt lat="43.562063" lon="-8.247504">
        <ele>124.59</ele>
        <time>2019-07-26T12:53:02Z</time>
      </trkpt>
      <trkpt lat="43.562063" lon="-8.247765">
        <ele>119.57</ele>
        <time>2019-07-26T12:53:13Z</time>
      </trkpt>
      <trkpt lat="43.562013" lon="-8.248011">
        <ele>115.57</ele>
        <time>2019-07-26T12:53:37Z</time>
      </trkpt>
      <trkpt lat="43.561997" lon="-8.248274">
        <ele>110.53</ele>
        <time>2019-07-26T12:53:47Z</time>
      </trkpt>
      <trkpt lat="43.561985" lon="-8.248546">
        <ele>105.56</ele>
        <time>2019-07-26T12:53:55Z</time>
      </trkpt>
      <trkpt lat="43.561975" lon="-8.248816">
        <ele>101.57</ele>
        <time>2019-07-26T12:54:02Z</time>
      </trkpt>
      <trkpt lat="43.561932" lon="-8.249077">
        <ele>97.59</ele>
        <time>2019-07-26T12:54:10Z</time>
      </trkpt>
      <trkpt lat="43.561898" lon="-8.249335">
        <ele>94.57</ele>
        <time>2019-07-26T12:54:18Z</time>
      </trkpt>
      <trkpt lat="43.561801" lon="-8.249573">
        <ele>89.52</ele>
        <time>2019-07-26T12:54:27Z</time>
      </trkpt>
      <trkpt lat="43.561686" lon="-8.249764">
        <ele>85.51</ele>
        <time>2019-07-26T12:54:36Z</time>
      </trkpt>
      <trkpt lat="43.561508" lon="-8.249718">
        <ele>81.52</ele>
        <time>2019-07-26T12:55:26Z</time>
      </trkpt>
      <trkpt lat="43.561321" lon="-8.249581">
        <ele>78.59</ele>
        <time>2019-07-26T12:55:33Z</time>
      </trkpt>
      <trkpt lat="43.561184" lon="-8.249385">
        <ele>77.60</ele>
        <time>2019-07-26T12:55:38Z</time>
      </trkpt>
      <trkpt lat="43.561069" lon="-8.249125">
        <ele>75.54</ele>
        <time>2019-07-26T12:55:43Z</time>
      </trkpt>
      <trkpt lat="43.560978" lon="-8.248900">
        <ele>75.58</ele>
        <time>2019-07-26T12:55:47Z</time>
      </trkpt>
      <trkpt lat="43.560844" lon="-8.248735">
        <ele>75.51</ele>
        <time>2019-07-26T12:55:58Z</time>
      </trkpt>
      <trkpt lat="43.560734" lon="-8.248951">
        <ele>77.54</ele>
        <time>2019-07-26T12:56:48Z</time>
      </trkpt>
      <trkpt lat="43.560635" lon="-8.249160">
        <ele>78.51</ele>
        <time>2019-07-26T12:57:05Z</time>
      </trkpt>
      <trkpt lat="43.560545" lon="-8.249391">
        <ele>81.55</ele>
        <time>2019-07-26T12:57:22Z</time>
      </trkpt>
      <trkpt lat="43.560465" lon="-8.249618">
        <ele>83.53</ele>
        <time>2019-07-26T12:57:38Z</time>
      </trkpt>
      <trkpt lat="43.560431" lon="-8.249870">
        <ele>85.52</ele>
        <time>2019-07-26T12:57:54Z</time>
      </trkpt>
      <trkpt lat="43.560401" lon="-8.250121">
        <ele>88.01</ele>
        <time>2019-07-26T12:58:08Z</time>
      </trkpt>
      <trkpt lat="43.560361" lon="-8.250369">
        <ele>91.03</ele>
        <time>2019-07-26T12:58:22Z</time>
      </trkpt>
      <trkpt lat="43.560337" lon="-8.250634">
        <ele>94.05</ele>
        <time>2019-07-26T12:58:37Z</time>
      </trkpt>
      <trkpt lat="43.560336" lon="-8.250886">
        <ele>95.08</ele>
        <time>2019-07-26T12:58:51Z</time>
      </trkpt>
      <trkpt lat="43.560341" lon="-8.251135">
        <ele>96.04</ele>
        <time>2019-07-26T12:59:04Z</time>
      </trkpt>
      <trkpt lat="43.560300" lon="-8.251382">
        <ele>98.09</ele>
        <time>2019-07-26T12:59:18Z</time>
      </trkpt>
      <trkpt lat="43.560240" lon="-8.251624">
        <ele>99.02</ele>
        <time>2019-07-26T12:59:32Z</time>
      </trkpt>
      <trkpt lat="43.560183" lon="-8.251861">
        <ele>101.04</ele>
        <time>2019-07-26T12:59:45Z</time>
      </trkpt>
      <trkpt lat="43.560110" lon="-8.252109">
        <ele>101.05</ele>
        <time>2019-07-26T12:59:59Z</time>
      </trkpt>
      <trkpt lat="43.560017" lon="-8.252324">
        <ele>102.02</ele>
        <time>2019-07-26T13:00:12Z</time>
      </trkpt>
      <trkpt lat="43.559878" lon="-8.252504">
        <ele>103.04</ele>
        <time>2019-07-26T13:00:26Z</time>
      </trkpt>
      <trkpt lat="43.559738" lon="-8.252679">
        <ele>105.01</ele>
        <time>2019-07-26T13:00:40Z</time>
      </trkpt>
      <trkpt lat="43.559627" lon="-8.252875">
        <ele>107.01</ele>
        <time>2019-07-26T13:00:53Z</time>
      </trkpt>
      <trkpt lat="43.559519" lon="-8.253090">
        <ele>108.10</ele>
        <time>2019-07-26T13:01:06Z</time>
      </trkpt>
      <trkpt lat="43.559399" lon="-8.253302">
        <ele>107.07</ele>
        <time>2019-07-26T13:01:17Z</time>
      </trkpt>
      <trkpt lat="43.559275" lon="-8.253494">
        <ele>108.08</ele>
        <time>2019-07-26T13:01:27Z</time>
      </trkpt>
      <trkpt lat="43.559145" lon="-8.253693">
        <ele>107.02</ele>
        <time>2019-07-26T13:01:34Z</time>
      </trkpt>
      <trkpt lat="43.559010" lon="-8.253882">
        <ele>107.05</ele>
        <time>2019-07-26T13:01:39Z</time>
      </trkpt>
      <trkpt lat="43.558848" lon="-8.254085">
        <ele>105.06</ele>
        <time>2019-07-26T13:01:45Z</time>
      </trkpt>
      <trkpt lat="43.558665" lon="-8.254222">
        <ele>103.06</ele>
        <time>2019-07-26T13:01:50Z</time>
      </trkpt>
      <trkpt lat="43.558477" lon="-8.254278">
        <ele>100.08</ele>
        <time>2019-07-26T13:01:54Z</time>
      </trkpt>
      <trkpt lat="43.558258" lon="-8.254342">
        <ele>97.10</ele>
        <time>2019-07-26T13:01:58Z</time>
      </trkpt>
      <trkpt lat="43.558073" lon="-8.254468">
        <ele>96.02</ele>
        <time>2019-07-26T13:02:03Z</time>
      </trkpt>
      <trkpt lat="43.557886" lon="-8.254529">
        <ele>93.03</ele>
        <time>2019-07-26T13:02:10Z</time>
      </trkpt>
      <trkpt lat="43.557697" lon="-8.254464">
        <ele>91.01</ele>
        <time>2019-07-26T13:02:16Z</time>
      </trkpt>
      <trkpt lat="43.557532" lon="-8.254338">
        <ele>91.06</ele>
        <time>2019-07-26T13:02:22Z</time>
      </trkpt>
      <trkpt lat="43.557357" lon="-8.254192">
        <ele>96.04</ele>
        <time>2019-07-26T13:02:31Z</time>
      </trkpt>
      <trkpt lat="43.557173" lon="-8.254116">
        <ele>95.06</ele>
        <time>2019-07-26T13:02:39Z</time>
      </trkpt>
      <trkpt lat="43.557088" lon="-8.254340">
        <ele>95.03</ele>
        <time>2019-07-26T13:02:50Z</time>
      </trkpt>
      <trkpt lat="43.557104" lon="-8.254596">
        <ele>98.07</ele>
        <time>2019-07-26T13:03:39Z</time>
      </trkpt>
      <trkpt lat="43.557149" lon="-8.254850">
        <ele>95.01</ele>
        <time>2019-07-26T13:03:47Z</time>
      </trkpt>
      <trkpt lat="43.557229" lon="-8.255083">
        <ele>94.03</ele>
        <time>2019-07-26T13:03:53Z</time>
      </trkpt>
      <trkpt lat="43.557325" lon="-8.255370">
        <ele>93.09</ele>
        <time>2019-07-26T13:03:58Z</time>
      </trkpt>
      <trkpt lat="43.557415" lon="-8.255613">
        <ele>91.08</ele>
        <time>2019-07-26T13:04:02Z</time>
      </trkpt>
      <trkpt lat="43.557502" lon="-8.255854">
        <ele>91.09</ele>
        <time>2019-07-26T13:04:06Z</time>
      </trkpt>
      <trkpt lat="43.557594" lon="-8.256125">
        <ele>90.02</ele>
        <time>2019-07-26T13:04:11Z</time>
      </trkpt>
      <trkpt lat="43.557668" lon="-8.256384">
        <ele>90.01</ele>
        <time>2019-07-26T13:04:16Z</time>
      </trkpt>
      <trkpt lat="43.557659" lon="-8.256639">
        <ele>89.07</ele>
        <time>2019-07-26T13:04:21Z</time>
      </trkpt>
      <trkpt lat="43.557574" lon="-8.256898">
        <ele>89.08</ele>
        <time>2019-07-26T13:04:27Z</time>
      </trkpt>
      <trkpt lat="43.557452" lon="-8.257114">
        <ele>89.06</ele>
        <time>2019-07-26T13:04:34Z</time>
      </trkpt>
      <trkpt lat="43.557329" lon="-8.257317">
        <ele>88.03</ele>
        <time>2019-07-26T13:04:41Z</time>
      </trkpt>
      <trkpt lat="43.557350" lon="-8.257596">
        <ele>85.03</ele>
        <time>2019-07-26T13:04:49Z</time>
      </trkpt>
      <trkpt lat="43.557380" lon="-8.257841">
        <ele>82.08</ele>
        <time>2019-07-26T13:04:56Z</time>
      </trkpt>
      <trkpt lat="43.557305" lon="-8.258074">
        <ele>79.02</ele>
        <time>2019-07-26T13:05:19Z</time>
      </trkpt>
      <trkpt lat="43.557206" lon="-8.258303">
        <ele>77.04</ele>
        <time>2019-07-26T13:05:29Z</time>
      </trkpt>
      <trkpt lat="43.557113" lon="-8.258515">
        <ele>74.05</ele>
        <time>2019-07-26T13:05:35Z</time>
      </trkpt>
      <trkpt lat="43.557006" lon="-8.258734">
        <ele>73.03</ele>
        <time>2019-07-26T13:05:41Z</time>
      </trkpt>
      <trkpt lat="43.556920" lon="-8.258954">
        <ele>70.02</ele>
        <time>2019-07-26T13:05:47Z</time>
      </trkpt>
      <trkpt lat="43.556828" lon="-8.259180">
        <ele>67.01</ele>
        <time>2019-07-26T13:05:53Z</time>
      </trkpt>
      <trkpt lat="43.556725" lon="-8.259398">
        <ele>65.03</ele>
        <time>2019-07-26T13:05:58Z</time>
      </trkpt>
      <trkpt lat="43.556607" lon="-8.259641">
        <ele>62.08</ele>
        <time>2019-07-26T13:06:04Z</time>
      </trkpt>
      <trkpt lat="43.556486" lon="-8.259888">
        <ele>60.08</ele>
        <time>2019-07-26T13:06:10Z</time>
      </trkpt>
      <trkpt lat="43.556391" lon="-8.260110">
        <ele>59.08</ele>
        <time>2019-07-26T13:06:15Z</time>
      </trkpt>
      <trkpt lat="43.556284" lon="-8.260321">
        <ele>57.05</ele>
        <time>2019-07-26T13:06:19Z</time>
      </trkpt>
      <trkpt lat="43.556171" lon="-8.260532">
        <ele>55.04</ele>
        <time>2019-07-26T13:06:26Z</time>
      </trkpt>
      <trkpt lat="43.556017" lon="-8.260688">
        <ele>53.07</ele>
        <time>2019-07-26T13:07:13Z</time>
      </trkpt>
      <trkpt lat="43.555860" lon="-8.260811">
        <ele>53.05</ele>
        <time>2019-07-26T13:07:21Z</time>
      </trkpt>
      <trkpt lat="43.555695" lon="-8.260936">
        <ele>54.04</ele>
        <time>2019-07-26T13:07:29Z</time>
      </trkpt>
      <trkpt lat="43.555539" lon="-8.261064">
        <ele>54.05</ele>
        <time>2019-07-26T13:07:37Z</time>
      </trkpt>
      <trkpt lat="43.555366" lon="-8.261190">
        <ele>51.01</ele>
        <time>2019-07-26T13:07:46Z</time>
      </trkpt>
      <trkpt lat="43.555200" lon="-8.261288">
        <ele>51.01</ele>
        <time>2019-07-26T13:07:54Z</time>
      </trkpt>
      <trkpt lat="43.555200" lon="-8.261555">
        <ele>53.02</ele>
        <time>2019-07-26T13:08:13Z</time>
      </trkpt>
      <trkpt lat="43.555325" lon="-8.261779">
        <ele>52.06</ele>
        <time>2019-07-26T13:08:24Z</time>
      </trkpt>
      <trkpt lat="43.555399" lon="-8.262018">
        <ele>52.09</ele>
        <time>2019-07-26T13:08:31Z</time>
      </trkpt>
      <trkpt lat="43.555533" lon="-8.262228">
        <ele>42.06</ele>
        <time>2019-07-26T13:08:38Z</time>
      </trkpt>
      <trkpt lat="43.555607" lon="-8.262497">
        <ele>39.02</ele>
        <time>2019-07-26T13:08:44Z</time>
      </trkpt>
      <trkpt lat="43.555545" lon="-8.262730">
        <ele>37.08</ele>
        <time>2019-07-26T13:08:49Z</time>
      </trkpt>
      <trkpt lat="43.555469" lon="-8.262995">
        <ele>36.02</ele>
        <time>2019-07-26T13:08:56Z</time>
      </trkpt>
      <trkpt lat="43.555350" lon="-8.263203">
        <ele>35.08</ele>
        <time>2019-07-26T13:09:05Z</time>
      </trkpt>
      <trkpt lat="43.555212" lon="-8.263376">
        <ele>36.07</ele>
        <time>2019-07-26T13:09:13Z</time>
      </trkpt>
      <trkpt lat="43.555162" lon="-8.263627">
        <ele>35.03</ele>
        <time>2019-07-26T13:09:22Z</time>
      </trkpt>
      <trkpt lat="43.555103" lon="-8.263896">
        <ele>33.02</ele>
        <time>2019-07-26T13:09:31Z</time>
      </trkpt>
      <trkpt lat="43.555030" lon="-8.264131">
        <ele>32.01</ele>
        <time>2019-07-26T13:09:40Z</time>
      </trkpt>
      <trkpt lat="43.554883" lon="-8.264304">
        <ele>31.02</ele>
        <time>2019-07-26T13:09:49Z</time>
      </trkpt>
      <trkpt lat="43.554750" lon="-8.264480">
        <ele>31.02</ele>
        <time>2019-07-26T13:09:57Z</time>
      </trkpt>
      <trkpt lat="43.554623" lon="-8.264688">
        <ele>31.01</ele>
        <time>2019-07-26T13:10:07Z</time>
      </trkpt>
      <trkpt lat="43.554526" lon="-8.264915">
        <ele>29.06</ele>
        <time>2019-07-26T13:10:18Z</time>
      </trkpt>
      <trkpt lat="43.554449" lon="-8.265146">
        <ele>29.09</ele>
        <time>2019-07-26T13:10:28Z</time>
      </trkpt>
      <trkpt lat="43.554360" lon="-8.265364">
        <ele>28.04</ele>
        <time>2019-07-26T13:10:37Z</time>
      </trkpt>
      <trkpt lat="43.554487" lon="-8.265548">
        <ele>26.06</ele>
        <time>2019-07-26T13:10:56Z</time>
      </trkpt>
      <trkpt lat="43.554650" lon="-8.265688">
        <ele>25.02</ele>
        <time>2019-07-26T13:11:05Z</time>
      </trkpt>
      <trkpt lat="43.554824" lon="-8.265773">
        <ele>23.10</ele>
        <time>2019-07-26T13:12:38Z</time>
      </trkpt>
      <trkpt lat="43.554656" lon="-8.265681">
        <ele>24.01</ele>
        <time>2019-07-26T13:20:10Z</time>
      </trkpt>
      <trkpt lat="43.554498" lon="-8.265536">
        <ele>25.03</ele>
        <time>2019-07-26T13:20:30Z</time>
      </trkpt>
      <trkpt lat="43.554316" lon="-8.265495">
        <ele>27.01</ele>
        <time>2019-07-26T13:20:53Z</time>
      </trkpt>
      <trkpt lat="43.554139" lon="-8.265543">
        <ele>28.08</ele>
        <time>2019-07-26T13:21:17Z</time>
      </trkpt>
      <trkpt lat="43.553998" lon="-8.265387">
        <ele>28.06</ele>
        <time>2019-07-26T13:21:26Z</time>
      </trkpt>
      <trkpt lat="43.553849" lon="-8.265215">
        <ele>29.08</ele>
        <time>2019-07-26T13:21:37Z</time>
      </trkpt>
      <trkpt lat="43.553679" lon="-8.265096">
        <ele>30.06</ele>
        <time>2019-07-26T13:21:48Z</time>
      </trkpt>
      <trkpt lat="43.553491" lon="-8.265056">
        <ele>31.10</ele>
        <time>2019-07-26T13:21:58Z</time>
      </trkpt>
      <trkpt lat="43.553301" lon="-8.265030">
        <ele>34.01</ele>
        <time>2019-07-26T13:22:10Z</time>
      </trkpt>
      <trkpt lat="43.553121" lon="-8.264979">
        <ele>35.03</ele>
        <time>2019-07-26T13:22:24Z</time>
      </trkpt>
      <trkpt lat="43.552937" lon="-8.264993">
        <ele>37.02</ele>
        <time>2019-07-26T13:22:37Z</time>
      </trkpt>
      <trkpt lat="43.552760" lon="-8.265103">
        <ele>39.03</ele>
        <time>2019-07-26T13:22:50Z</time>
      </trkpt>
      <trkpt lat="43.552612" lon="-8.265272">
        <ele>40.07</ele>
        <time>2019-07-26T13:23:02Z</time>
      </trkpt>
      <trkpt lat="43.552473" lon="-8.265458">
        <ele>41.01</ele>
        <time>2019-07-26T13:23:14Z</time>
      </trkpt>
      <trkpt lat="43.552294" lon="-8.265542">
        <ele>40.01</ele>
        <time>2019-07-26T13:23:25Z</time>
      </trkpt>
      <trkpt lat="43.552112" lon="-8.265523">
        <ele>40.06</ele>
        <time>2019-07-26T13:23:34Z</time>
      </trkpt>
      <trkpt lat="43.551951" lon="-8.265376">
        <ele>42.03</ele>
        <time>2019-07-26T13:23:46Z</time>
      </trkpt>
      <trkpt lat="43.551791" lon="-8.265237">
        <ele>42.04</ele>
        <time>2019-07-26T13:23:58Z</time>
      </trkpt>
      <trkpt lat="43.551626" lon="-8.265129">
        <ele>43.04</ele>
        <time>2019-07-26T13:24:11Z</time>
      </trkpt>
      <trkpt lat="43.551436" lon="-8.265095">
        <ele>45.03</ele>
        <time>2019-07-26T13:24:33Z</time>
      </trkpt>
      <trkpt lat="43.551260" lon="-8.265180">
        <ele>45.02</ele>
        <time>2019-07-26T13:24:41Z</time>
      </trkpt>
      <trkpt lat="43.551094" lon="-8.265279">
        <ele>45.08</ele>
        <time>2019-07-26T13:24:47Z</time>
      </trkpt>
      <trkpt lat="43.550913" lon="-8.265391">
        <ele>46.05</ele>
        <time>2019-07-26T13:24:55Z</time>
      </trkpt>
      <trkpt lat="43.550738" lon="-8.265491">
        <ele>45.04</ele>
        <time>2019-07-26T13:25:03Z</time>
      </trkpt>
      <trkpt lat="43.550564" lon="-8.265609">
        <ele>45.02</ele>
        <time>2019-07-26T13:25:11Z</time>
      </trkpt>
      <trkpt lat="43.550383" lon="-8.265704">
        <ele>46.02</ele>
        <time>2019-07-26T13:25:19Z</time>
      </trkpt>
      <trkpt lat="43.550212" lon="-8.265793">
        <ele>47.01</ele>
        <time>2019-07-26T13:25:27Z</time>
      </trkpt>
      <trkpt lat="43.550028" lon="-8.265892">
        <ele>46.05</ele>
        <time>2019-07-26T13:25:35Z</time>
      </trkpt>
      <trkpt lat="43.549850" lon="-8.265994">
        <ele>46.02</ele>
        <time>2019-07-26T13:25:43Z</time>
      </trkpt>
      <trkpt lat="43.549666" lon="-8.266091">
        <ele>46.06</ele>
        <time>2019-07-26T13:25:51Z</time>
      </trkpt>
      <trkpt lat="43.549487" lon="-8.266200">
        <ele>46.08</ele>
        <time>2019-07-26T13:25:59Z</time>
      </trkpt>
      <trkpt lat="43.549310" lon="-8.266301">
        <ele>46.05</ele>
        <time>2019-07-26T13:26:07Z</time>
      </trkpt>
      <trkpt lat="43.549137" lon="-8.266408">
        <ele>47.10</ele>
        <time>2019-07-26T13:26:15Z</time>
      </trkpt>
      <trkpt lat="43.548959" lon="-8.266515">
        <ele>49.02</ele>
        <time>2019-07-26T13:26:23Z</time>
      </trkpt>
      <trkpt lat="43.548790" lon="-8.266620">
        <ele>49.08</ele>
        <time>2019-07-26T13:26:31Z</time>
      </trkpt>
      <trkpt lat="43.548604" lon="-8.266709">
        <ele>51.02</ele>
        <time>2019-07-26T13:26:39Z</time>
      </trkpt>
      <trkpt lat="43.548434" lon="-8.266798">
        <ele>55.04</ele>
        <time>2019-07-26T13:26:46Z</time>
      </trkpt>
      <trkpt lat="43.548260" lon="-8.266869">
        <ele>56.01</ele>
        <time>2019-07-26T13:26:53Z</time>
      </trkpt>
      <trkpt lat="43.548098" lon="-8.267000">
        <ele>57.01</ele>
        <time>2019-07-26T13:27:03Z</time>
      </trkpt>
      <trkpt lat="43.548113" lon="-8.267261">
        <ele>55.09</ele>
        <time>2019-07-26T13:28:56Z</time>
      </trkpt>
      <trkpt lat="43.548189" lon="-8.267519">
        <ele>53.08</ele>
        <time>2019-07-26T13:29:02Z</time>
      </trkpt>
      <trkpt lat="43.548270" lon="-8.267772">
        <ele>51.09</ele>
        <time>2019-07-26T13:29:07Z</time>
      </trkpt>
      <trkpt lat="43.548365" lon="-8.268028">
        <ele>50.05</ele>
        <time>2019-07-26T13:29:12Z</time>
      </trkpt>
      <trkpt lat="43.548461" lon="-8.268296">
        <ele>47.04</ele>
        <time>2019-07-26T13:29:17Z</time>
      </trkpt>
      <trkpt lat="43.548546" lon="-8.268531">
        <ele>46.07</ele>
        <time>2019-07-26T13:29:21Z</time>
      </trkpt>
      <trkpt lat="43.548631" lon="-8.268777">
        <ele>43.04</ele>
        <time>2019-07-26T13:29:25Z</time>
      </trkpt>
      <trkpt lat="43.548729" lon="-8.269021">
        <ele>41.08</ele>
        <time>2019-07-26T13:29:29Z</time>
      </trkpt>
      <trkpt lat="43.548838" lon="-8.269271">
        <ele>37.10</ele>
        <time>2019-07-26T13:29:33Z</time>
      </trkpt>
      <trkpt lat="43.548926" lon="-8.269527">
        <ele>34.02</ele>
        <time>2019-07-26T13:29:37Z</time>
      </trkpt>
      <trkpt lat="43.549016" lon="-8.269746">
        <ele>33.02</ele>
        <time>2019-07-26T13:29:41Z</time>
      </trkpt>
      <trkpt lat="43.549089" lon="-8.270030">
        <ele>31.01</ele>
        <time>2019-07-26T13:29:46Z</time>
      </trkpt>
      <trkpt lat="43.549172" lon="-8.270276">
        <ele>30.06</ele>
        <time>2019-07-26T13:29:50Z</time>
      </trkpt>
      <trkpt lat="43.549263" lon="-8.270537">
        <ele>29.07</ele>
        <time>2019-07-26T13:29:54Z</time>
      </trkpt>
      <trkpt lat="43.549354" lon="-8.270810">
        <ele>27.06</ele>
        <time>2019-07-26T13:29:58Z</time>
      </trkpt>
      <trkpt lat="43.549440" lon="-8.271075">
        <ele>26.03</ele>
        <time>2019-07-26T13:30:02Z</time>
      </trkpt>
      <trkpt lat="43.549527" lon="-8.271307">
        <ele>26.07</ele>
        <time>2019-07-26T13:30:06Z</time>
      </trkpt>
      <trkpt lat="43.549631" lon="-8.271552">
        <ele>26.04</ele>
        <time>2019-07-26T13:30:11Z</time>
      </trkpt>
      <trkpt lat="43.549697" lon="-8.271798">
        <ele>26.07</ele>
        <time>2019-07-26T13:30:18Z</time>
      </trkpt>
      <trkpt lat="43.549772" lon="-8.272040">
        <ele>26.08</ele>
        <time>2019-07-26T13:30:25Z</time>
      </trkpt>
      <trkpt lat="43.549855" lon="-8.272268">
        <ele>27.09</ele>
        <time>2019-07-26T13:30:32Z</time>
      </trkpt>
      <trkpt lat="43.549937" lon="-8.272505">
        <ele>26.09</ele>
        <time>2019-07-26T13:30:39Z</time>
      </trkpt>
      <trkpt lat="43.550015" lon="-8.272735">
        <ele>26.02</ele>
        <time>2019-07-26T13:30:46Z</time>
      </trkpt>
      <trkpt lat="43.550081" lon="-8.272987">
        <ele>26.01</ele>
        <time>2019-07-26T13:30:54Z</time>
      </trkpt>
      <trkpt lat="43.550281" lon="-8.273024">
        <ele>26.05</ele>
        <time>2019-07-26T13:31:04Z</time>
      </trkpt>
      <trkpt lat="43.550468" lon="-8.272943">
        <ele>25.04</ele>
        <time>2019-07-26T13:31:11Z</time>
      </trkpt>
      <trkpt lat="43.550656" lon="-8.272906">
        <ele>24.05</ele>
        <time>2019-07-26T13:31:17Z</time>
      </trkpt>
      <trkpt lat="43.550862" lon="-8.272881">
        <ele>23.02</ele>
        <time>2019-07-26T13:31:23Z</time>
      </trkpt>
      <trkpt lat="43.551049" lon="-8.272817">
        <ele>23.07</ele>
        <time>2019-07-26T13:31:28Z</time>
      </trkpt>
      <trkpt lat="43.551223" lon="-8.272753">
        <ele>23.09</ele>
        <time>2019-07-26T13:31:32Z</time>
      </trkpt>
      <trkpt lat="43.551403" lon="-8.272708">
        <ele>22.07</ele>
        <time>2019-07-26T13:31:36Z</time>
      </trkpt>
      <trkpt lat="43.551584" lon="-8.272668">
        <ele>21.09</ele>
        <time>2019-07-26T13:31:40Z</time>
      </trkpt>
      <trkpt lat="43.551770" lon="-8.272644">
        <ele>20.03</ele>
        <time>2019-07-26T13:31:44Z</time>
      </trkpt>
      <trkpt lat="43.551971" lon="-8.272608">
        <ele>18.07</ele>
        <time>2019-07-26T13:31:48Z</time>
      </trkpt>
      <trkpt lat="43.552187" lon="-8.272573">
        <ele>17.01</ele>
        <time>2019-07-26T13:31:53Z</time>
      </trkpt>
      <trkpt lat="43.552388" lon="-8.272586">
        <ele>17.01</ele>
        <time>2019-07-26T13:31:58Z</time>
      </trkpt>
      <trkpt lat="43.552592" lon="-8.272621">
        <ele>16.09</ele>
        <time>2019-07-26T13:32:04Z</time>
      </trkpt>
      <trkpt lat="43.552785" lon="-8.272677">
        <ele>15.09</ele>
        <time>2019-07-26T13:32:10Z</time>
      </trkpt>
      <trkpt lat="43.553007" lon="-8.272670">
        <ele>14.02</ele>
        <time>2019-07-26T13:32:16Z</time>
      </trkpt>
      <trkpt lat="43.553178" lon="-8.272871">
        <ele>13.02</ele>
        <time>2019-07-26T13:32:21Z</time>
      </trkpt>
      <trkpt lat="43.553278" lon="-8.273128">
        <ele>13.05</ele>
        <time>2019-07-26T13:32:26Z</time>
      </trkpt>
      <trkpt lat="43.553397" lon="-8.273340">
        <ele>13.05</ele>
        <time>2019-07-26T13:32:32Z</time>
      </trkpt>
      <trkpt lat="43.553499" lon="-8.273556">
        <ele>13.03</ele>
        <time>2019-07-26T13:32:40Z</time>
      </trkpt>
      <trkpt lat="43.553642" lon="-8.273711">
        <ele>12.09</ele>
        <time>2019-07-26T13:32:50Z</time>
      </trkpt>
      <trkpt lat="43.553745" lon="-8.273479">
        <ele>11.07</ele>
        <time>2019-07-26T13:32:58Z</time>
      </trkpt>
      <trkpt lat="43.553927" lon="-8.273394">
        <ele>12.01</ele>
        <time>2019-07-26T13:33:08Z</time>
      </trkpt>
      <trkpt lat="43.554104" lon="-8.273316">
        <ele>13.01</ele>
        <time>2019-07-26T13:33:21Z</time>
      </trkpt>
      <trkpt lat="43.553925" lon="-8.273392">
        <ele>13.01</ele>
        <time>2019-07-26T13:34:15Z</time>
      </trkpt>
      <trkpt lat="43.553750" lon="-8.273468">
        <ele>13.04</ele>
        <time>2019-07-26T13:34:40Z</time>
      </trkpt>
      <trkpt lat="43.553650" lon="-8.273689">
        <ele>13.10</ele>
        <time>2019-07-26T13:34:50Z</time>
      </trkpt>
      <trkpt lat="43.553731" lon="-8.273919">
        <ele>14.07</ele>
        <time>2019-07-26T13:35:01Z</time>
      </trkpt>
      <trkpt lat="43.553886" lon="-8.274100">
        <ele>15.06</ele>
        <time>2019-07-26T13:35:10Z</time>
      </trkpt>
      <trkpt lat="43.554027" lon="-8.274273">
        <ele>14.03</ele>
        <time>2019-07-26T13:35:18Z</time>
      </trkpt>
      <trkpt lat="43.554151" lon="-8.274472">
        <ele>15.07</ele>
        <time>2019-07-26T13:35:27Z</time>
      </trkpt>
      <trkpt lat="43.554321" lon="-8.274577">
        <ele>15.04</ele>
        <time>2019-07-26T13:35:42Z</time>
      </trkpt>
      <trkpt lat="43.554483" lon="-8.274462">
        <ele>14.02</ele>
        <time>2019-07-26T13:35:53Z</time>
      </trkpt>
      <trkpt lat="43.554659" lon="-8.274369">
        <ele>14.08</ele>
        <time>2019-07-26T13:36:05Z</time>
      </trkpt>
      <trkpt lat="43.554841" lon="-8.274351">
        <ele>14.06</ele>
        <time>2019-07-26T13:36:22Z</time>
      </trkpt>
      <trkpt lat="43.554957" lon="-8.274146">
        <ele>14.03</ele>
        <time>2019-07-26T13:36:40Z</time>
      </trkpt>
      <trkpt lat="43.554982" lon="-8.274412">
        <ele>14.01</ele>
        <time>2019-07-26T13:39:49Z</time>
      </trkpt>
      <trkpt lat="43.554963" lon="-8.274665">
        <ele>15.09</ele>
        <time>2019-07-26T13:39:58Z</time>
      </trkpt>
      <trkpt lat="43.554835" lon="-8.274855">
        <ele>16.08</ele>
        <time>2019-07-26T13:40:08Z</time>
      </trkpt>
      <trkpt lat="43.554744" lon="-8.275074">
        <ele>17.07</ele>
        <time>2019-07-26T13:40:19Z</time>
      </trkpt>
      <trkpt lat="43.554644" lon="-8.275295">
        <ele>19.09</ele>
        <time>2019-07-26T13:40:31Z</time>
      </trkpt>
      <trkpt lat="43.554529" lon="-8.275515">
        <ele>20.09</ele>
        <time>2019-07-26T13:40:44Z</time>
      </trkpt>
      <trkpt lat="43.554435" lon="-8.275738">
        <ele>22.03</ele>
        <time>2019-07-26T13:40:56Z</time>
      </trkpt>
      <trkpt lat="43.554327" lon="-8.275952">
        <ele>23.02</ele>
        <time>2019-07-26T13:41:08Z</time>
      </trkpt>
      <trkpt lat="43.554229" lon="-8.276170">
        <ele>24.02</ele>
        <time>2019-07-26T13:41:19Z</time>
      </trkpt>
      <trkpt lat="43.554124" lon="-8.276377">
        <ele>25.04</ele>
        <time>2019-07-26T13:41:30Z</time>
      </trkpt>
      <trkpt lat="43.554044" lon="-8.276620">
        <ele>26.08</ele>
        <time>2019-07-26T13:41:42Z</time>
      </trkpt>
      <trkpt lat="43.554234" lon="-8.276721">
        <ele>25.01</ele>
        <time>2019-07-26T13:41:57Z</time>
      </trkpt>
      <trkpt lat="43.554421" lon="-8.276746">
        <ele>25.01</ele>
        <time>2019-07-26T13:42:04Z</time>
      </trkpt>
      <trkpt lat="43.554589" lon="-8.276882">
        <ele>25.03</ele>
        <time>2019-07-26T13:42:12Z</time>
      </trkpt>
      <trkpt lat="43.554669" lon="-8.277119">
        <ele>26.03</ele>
        <time>2019-07-26T13:42:21Z</time>
      </trkpt>
      <trkpt lat="43.554737" lon="-8.277375">
        <ele>27.06</ele>
        <time>2019-07-26T13:42:30Z</time>
      </trkpt>
      <trkpt lat="43.554805" lon="-8.277607">
        <ele>27.02</ele>
        <time>2019-07-26T13:42:40Z</time>
      </trkpt>
      <trkpt lat="43.554901" lon="-8.277818">
        <ele>28.08</ele>
        <time>2019-07-26T13:42:52Z</time>
      </trkpt>
      <trkpt lat="43.554974" lon="-8.278051">
        <ele>27.02</ele>
        <time>2019-07-26T13:43:04Z</time>
      </trkpt>
      <trkpt lat="43.554998" lon="-8.278307">
        <ele>27.08</ele>
        <time>2019-07-26T13:43:14Z</time>
      </trkpt>
      <trkpt lat="43.554965" lon="-8.278568">
        <ele>27.09</ele>
        <time>2019-07-26T13:43:24Z</time>
      </trkpt>
      <trkpt lat="43.554924" lon="-8.278810">
        <ele>30.03</ele>
        <time>2019-07-26T13:43:35Z</time>
      </trkpt>
      <trkpt lat="43.554943" lon="-8.279067">
        <ele>30.09</ele>
        <time>2019-07-26T13:43:46Z</time>
      </trkpt>
      <trkpt lat="43.554984" lon="-8.279311">
        <ele>30.02</ele>
        <time>2019-07-26T13:43:57Z</time>
      </trkpt>
      <trkpt lat="43.554990" lon="-8.279569">
        <ele>32.01</ele>
        <time>2019-07-26T13:44:10Z</time>
      </trkpt>
      <trkpt lat="43.554986" lon="-8.279818">
        <ele>33.09</ele>
        <time>2019-07-26T13:44:24Z</time>
      </trkpt>
      <trkpt lat="43.554984" lon="-8.280071">
        <ele>35.05</ele>
        <time>2019-07-26T13:44:39Z</time>
      </trkpt>
      <trkpt lat="43.554996" lon="-8.280333">
        <ele>38.06</ele>
        <time>2019-07-26T13:44:54Z</time>
      </trkpt>
      <trkpt lat="43.554981" lon="-8.280591">
        <ele>39.02</ele>
        <time>2019-07-26T13:45:09Z</time>
      </trkpt>
      <trkpt lat="43.554916" lon="-8.280826">
        <ele>42.03</ele>
        <time>2019-07-26T13:45:24Z</time>
      </trkpt>
      <trkpt lat="43.554922" lon="-8.281076">
        <ele>42.03</ele>
        <time>2019-07-26T13:46:24Z</time>
      </trkpt>
      <trkpt lat="43.555091" lon="-8.281214">
        <ele>43.05</ele>
        <time>2019-07-26T13:46:33Z</time>
      </trkpt>
      <trkpt lat="43.555277" lon="-8.281334">
        <ele>41.04</ele>
        <time>2019-07-26T13:46:40Z</time>
      </trkpt>
      <trkpt lat="43.555455" lon="-8.281451">
        <ele>40.09</ele>
        <time>2019-07-26T13:46:46Z</time>
      </trkpt>
      <trkpt lat="43.555642" lon="-8.281572">
        <ele>39.05</ele>
        <time>2019-07-26T13:46:52Z</time>
      </trkpt>
      <trkpt lat="43.555814" lon="-8.281683">
        <ele>38.02</ele>
        <time>2019-07-26T13:46:58Z</time>
      </trkpt>
      <trkpt lat="43.555903" lon="-8.281920">
        <ele>37.01</ele>
        <time>2019-07-26T13:47:07Z</time>
      </trkpt>
      <trkpt lat="43.555764" lon="-8.282116">
        <ele>37.01</ele>
        <time>2019-07-26T13:47:16Z</time>
      </trkpt>
      <trkpt lat="43.555597" lon="-8.282216">
        <ele>38.08</ele>
        <time>2019-07-26T13:47:25Z</time>
      </trkpt>
      <trkpt lat="43.555427" lon="-8.282323">
        <ele>38.10</ele>
        <time>2019-07-26T13:47:34Z</time>
      </trkpt>
      <trkpt lat="43.555255" lon="-8.282430">
        <ele>39.08</ele>
        <time>2019-07-26T13:47:43Z</time>
      </trkpt>
      <trkpt lat="43.555091" lon="-8.282563">
        <ele>40.02</ele>
        <time>2019-07-26T13:47:52Z</time>
      </trkpt>
      <trkpt lat="43.554919" lon="-8.282676">
        <ele>40.01</ele>
        <time>2019-07-26T13:48:01Z</time>
      </trkpt>
      <trkpt lat="43.554747" lon="-8.282789">
        <ele>40.06</ele>
        <time>2019-07-26T13:48:10Z</time>
      </trkpt>
      <trkpt lat="43.554570" lon="-8.282904">
        <ele>41.09</ele>
        <time>2019-07-26T13:48:20Z</time>
      </trkpt>
      <trkpt lat="43.554395" lon="-8.283024">
        <ele>41.02</ele>
        <time>2019-07-26T13:48:30Z</time>
      </trkpt>
      <trkpt lat="43.554226" lon="-8.283135">
        <ele>42.06</ele>
        <time>2019-07-26T13:48:39Z</time>
      </trkpt>
      <trkpt lat="43.554069" lon="-8.283257">
        <ele>43.01</ele>
        <time>2019-07-26T13:48:48Z</time>
      </trkpt>
      <trkpt lat="43.553892" lon="-8.283377">
        <ele>43.01</ele>
        <time>2019-07-26T13:48:58Z</time>
      </trkpt>
      <trkpt lat="43.553727" lon="-8.283496">
        <ele>43.06</ele>
        <time>2019-07-26T13:49:07Z</time>
      </trkpt>
      <trkpt lat="43.553559" lon="-8.283635">
        <ele>43.06</ele>
        <time>2019-07-26T13:49:17Z</time>
      </trkpt>
      <trkpt lat="43.553399" lon="-8.283796">
        <ele>44.06</ele>
        <time>2019-07-26T13:49:26Z</time>
      </trkpt>
      <trkpt lat="43.553275" lon="-8.283996">
        <ele>43.04</ele>
        <time>2019-07-26T13:49:33Z</time>
      </trkpt>
      <trkpt lat="43.553144" lon="-8.284205">
        <ele>41.10</ele>
        <time>2019-07-26T13:49:40Z</time>
      </trkpt>
      <trkpt lat="43.553024" lon="-8.284399">
        <ele>40.02</ele>
        <time>2019-07-26T13:49:46Z</time>
      </trkpt>
      <trkpt lat="43.552890" lon="-8.284606">
        <ele>38.02</ele>
        <time>2019-07-26T13:49:52Z</time>
      </trkpt>
      <trkpt lat="43.552753" lon="-8.284832">
        <ele>37.04</ele>
        <time>2019-07-26T13:49:57Z</time>
      </trkpt>
      <trkpt lat="43.552613" lon="-8.285061">
        <ele>36.08</ele>
        <time>2019-07-26T13:50:02Z</time>
      </trkpt>
      <trkpt lat="43.552492" lon="-8.285256">
        <ele>36.01</ele>
        <time>2019-07-26T13:50:06Z</time>
      </trkpt>
      <trkpt lat="43.552351" lon="-8.285494">
        <ele>34.02</ele>
        <time>2019-07-26T13:50:11Z</time>
      </trkpt>
      <trkpt lat="43.552236" lon="-8.285689">
        <ele>32.01</ele>
        <time>2019-07-26T13:50:15Z</time>
      </trkpt>
      <trkpt lat="43.552105" lon="-8.285885">
        <ele>31.07</ele>
        <time>2019-07-26T13:50:19Z</time>
      </trkpt>
      <trkpt lat="43.552001" lon="-8.286092">
        <ele>29.08</ele>
        <time>2019-07-26T13:50:23Z</time>
      </trkpt>
      <trkpt lat="43.551861" lon="-8.286311">
        <ele>27.08</ele>
        <time>2019-07-26T13:50:27Z</time>
      </trkpt>
      <trkpt lat="43.551727" lon="-8.286503">
        <ele>26.02</ele>
        <time>2019-07-26T13:50:30Z</time>
      </trkpt>
      <trkpt lat="43.551582" lon="-8.286725">
        <ele>24.09</ele>
        <time>2019-07-26T13:50:33Z</time>
      </trkpt>
      <trkpt lat="43.551436" lon="-8.286967">
        <ele>23.07</ele>
        <time>2019-07-26T13:50:36Z</time>
      </trkpt>
      <trkpt lat="43.551290" lon="-8.287165">
        <ele>23.03</ele>
        <time>2019-07-26T13:50:39Z</time>
      </trkpt>
      <trkpt lat="43.551139" lon="-8.287387">
        <ele>23.05</ele>
        <time>2019-07-26T13:50:43Z</time>
      </trkpt>
      <trkpt lat="43.551015" lon="-8.287581">
        <ele>24.02</ele>
        <time>2019-07-26T13:50:49Z</time>
      </trkpt>
      <trkpt lat="43.550915" lon="-8.287796">
        <ele>19.08</ele>
        <time>2019-07-26T13:50:58Z</time>
      </trkpt>
      <trkpt lat="43.550795" lon="-8.287990">
        <ele>23.01</ele>
        <time>2019-07-26T13:51:05Z</time>
      </trkpt>
      <trkpt lat="43.550668" lon="-8.288187">
        <ele>28.01</ele>
        <time>2019-07-26T13:51:14Z</time>
      </trkpt>
      <trkpt lat="43.550536" lon="-8.288381">
        <ele>33.06</ele>
        <time>2019-07-26T13:51:23Z</time>
      </trkpt>
      <trkpt lat="43.550428" lon="-8.288592">
        <ele>31.05</ele>
        <time>2019-07-26T13:51:32Z</time>
      </trkpt>
      <trkpt lat="43.550304" lon="-8.288782">
        <ele>34.10</ele>
        <time>2019-07-26T13:51:41Z</time>
      </trkpt>
      <trkpt lat="43.550184" lon="-8.288974">
        <ele>35.03</ele>
        <time>2019-07-26T13:51:51Z</time>
      </trkpt>
      <trkpt lat="43.550053" lon="-8.289165">
        <ele>36.09</ele>
        <time>2019-07-26T13:52:03Z</time>
      </trkpt>
      <trkpt lat="43.549955" lon="-8.289379">
        <ele>37.06</ele>
        <time>2019-07-26T13:52:15Z</time>
      </trkpt>
      <trkpt lat="43.549954" lon="-8.289634">
        <ele>38.03</ele>
        <time>2019-07-26T13:52:29Z</time>
      </trkpt>
      <trkpt lat="43.549957" lon="-8.289896">
        <ele>41.07</ele>
        <time>2019-07-26T13:52:44Z</time>
      </trkpt>
      <trkpt lat="43.549961" lon="-8.290151">
        <ele>42.07</ele>
        <time>2019-07-26T13:52:58Z</time>
      </trkpt>
      <trkpt lat="43.549958" lon="-8.290415">
        <ele>44.04</ele>
        <time>2019-07-26T13:53:13Z</time>
      </trkpt>
      <trkpt lat="43.549953" lon="-8.290677">
        <ele>46.02</ele>
        <time>2019-07-26T13:53:28Z</time>
      </trkpt>
      <trkpt lat="43.549954" lon="-8.290941">
        <ele>48.01</ele>
        <time>2019-07-26T13:53:43Z</time>
      </trkpt>
      <trkpt lat="43.549946" lon="-8.291190">
        <ele>50.04</ele>
        <time>2019-07-26T13:53:55Z</time>
      </trkpt>
      <trkpt lat="43.549932" lon="-8.291445">
        <ele>51.07</ele>
        <time>2019-07-26T13:54:08Z</time>
      </trkpt>
      <trkpt lat="43.549924" lon="-8.291712">
        <ele>51.09</ele>
        <time>2019-07-26T13:54:22Z</time>
      </trkpt>
      <trkpt lat="43.549913" lon="-8.291968">
        <ele>51.10</ele>
        <time>2019-07-26T13:54:34Z</time>
      </trkpt>
      <trkpt lat="43.549914" lon="-8.292217">
        <ele>52.09</ele>
        <time>2019-07-26T13:54:46Z</time>
      </trkpt>
      <trkpt lat="43.549928" lon="-8.292480">
        <ele>52.04</ele>
        <time>2019-07-26T13:55:00Z</time>
      </trkpt>
      <trkpt lat="43.549970" lon="-8.292726">
        <ele>59.02</ele>
        <time>2019-07-26T13:59:01Z</time>
      </trkpt>
      <trkpt lat="43.549904" lon="-8.292980">
        <ele>59.07</ele>
        <time>2019-07-26T13:59:15Z</time>
      </trkpt>
      <trkpt lat="43.549877" lon="-8.293233">
        <ele>60.07</ele>
        <time>2019-07-26T13:59:27Z</time>
      </trkpt>
      <trkpt lat="43.549863" lon="-8.293499">
        <ele>61.00</ele>
        <time>2019-07-26T13:59:39Z</time>
      </trkpt>
      <trkpt lat="43.549824" lon="-8.293756">
        <ele>60.02</ele>
        <time>2019-07-26T13:59:51Z</time>
      </trkpt>
      <trkpt lat="43.549809" lon="-8.294035">
        <ele>59.01</ele>
        <time>2019-07-26T14:00:02Z</time>
      </trkpt>
      <trkpt lat="43.549803" lon="-8.294311">
        <ele>55.09</ele>
        <time>2019-07-26T14:00:12Z</time>
      </trkpt>
      <trkpt lat="43.549784" lon="-8.294574">
        <ele>56.03</ele>
        <time>2019-07-26T14:00:22Z</time>
      </trkpt>
      <trkpt lat="43.549792" lon="-8.294840">
        <ele>54.04</ele>
        <time>2019-07-26T14:00:31Z</time>
      </trkpt>
      <trkpt lat="43.549776" lon="-8.295099">
        <ele>50.04</ele>
        <time>2019-07-26T14:00:38Z</time>
      </trkpt>
      <trkpt lat="43.549741" lon="-8.295367">
        <ele>47.07</ele>
        <time>2019-07-26T14:00:47Z</time>
      </trkpt>
      <trkpt lat="43.549709" lon="-8.295612">
        <ele>44.03</ele>
        <time>2019-07-26T14:00:55Z</time>
      </trkpt>
      <trkpt lat="43.549726" lon="-8.295865">
        <ele>43.01</ele>
        <time>2019-07-26T14:01:02Z</time>
      </trkpt>
      <trkpt lat="43.549699" lon="-8.296137">
        <ele>39.05</ele>
        <time>2019-07-26T14:01:26Z</time>
      </trkpt>
      <trkpt lat="43.549650" lon="-8.296421">
        <ele>36.04</ele>
        <time>2019-07-26T14:01:34Z</time>
      </trkpt>
      <trkpt lat="43.549612" lon="-8.296695">
        <ele>35.02</ele>
        <time>2019-07-26T14:01:41Z</time>
      </trkpt>
      <trkpt lat="43.549591" lon="-8.296947">
        <ele>33.02</ele>
        <time>2019-07-26T14:01:47Z</time>
      </trkpt>
      <trkpt lat="43.549572" lon="-8.297196">
        <ele>32.01</ele>
        <time>2019-07-26T14:01:54Z</time>
      </trkpt>
      <trkpt lat="43.549554" lon="-8.297463">
        <ele>31.08</ele>
        <time>2019-07-26T14:02:01Z</time>
      </trkpt>
      <trkpt lat="43.549542" lon="-8.297738">
        <ele>29.06</ele>
        <time>2019-07-26T14:02:08Z</time>
      </trkpt>
      <trkpt lat="43.549506" lon="-8.298004">
        <ele>27.03</ele>
        <time>2019-07-26T14:02:14Z</time>
      </trkpt>
      <trkpt lat="43.549490" lon="-8.298252">
        <ele>26.09</ele>
        <time>2019-07-26T14:02:22Z</time>
      </trkpt>
      <trkpt lat="43.549472" lon="-8.298521">
        <ele>25.08</ele>
        <time>2019-07-26T14:02:32Z</time>
      </trkpt>
      <trkpt lat="43.549439" lon="-8.298767">
        <ele>23.05</ele>
        <time>2019-07-26T14:02:41Z</time>
      </trkpt>
      <trkpt lat="43.549413" lon="-8.299036">
        <ele>25.03</ele>
        <time>2019-07-26T14:02:52Z</time>
      </trkpt>
      <trkpt lat="43.549408" lon="-8.299305">
        <ele>25.08</ele>
        <time>2019-07-26T14:03:03Z</time>
      </trkpt>
      <trkpt lat="43.549415" lon="-8.299554">
        <ele>25.05</ele>
        <time>2019-07-26T14:03:13Z</time>
      </trkpt>
      <trkpt lat="43.549377" lon="-8.299804">
        <ele>26.00</ele>
        <time>2019-07-26T14:03:24Z</time>
      </trkpt>
      <trkpt lat="43.549373" lon="-8.300055">
        <ele>26.01</ele>
        <time>2019-07-26T14:03:35Z</time>
      </trkpt>
      <trkpt lat="43.549426" lon="-8.300317">
        <ele>28.01</ele>
        <time>2019-07-26T14:03:48Z</time>
      </trkpt>
      <trkpt lat="43.549538" lon="-8.300516">
        <ele>27.10</ele>
        <time>2019-07-26T14:03:54Z</time>
      </trkpt>
      <trkpt lat="43.549657" lon="-8.300741">
        <ele>26.06</ele>
        <time>2019-07-26T14:04:00Z</time>
      </trkpt>
      <trkpt lat="43.549760" lon="-8.300949">
        <ele>26.03</ele>
        <time>2019-07-26T14:04:06Z</time>
      </trkpt>
      <trkpt lat="43.549923" lon="-8.301093">
        <ele>27.04</ele>
        <time>2019-07-26T14:04:15Z</time>
      </trkpt>
      <trkpt lat="43.550099" lon="-8.301037">
        <ele>28.08</ele>
        <time>2019-07-26T14:04:21Z</time>
      </trkpt>
      <trkpt lat="43.550278" lon="-8.300977">
        <ele>26.02</ele>
        <time>2019-07-26T14:04:26Z</time>
      </trkpt>
      <trkpt lat="43.550450" lon="-8.300894">
        <ele>26.09</ele>
        <time>2019-07-26T14:04:31Z</time>
      </trkpt>
      <trkpt lat="43.550642" lon="-8.300830">
        <ele>25.04</ele>
        <time>2019-07-26T14:04:36Z</time>
      </trkpt>
      <trkpt lat="43.550824" lon="-8.300797">
        <ele>25.03</ele>
        <time>2019-07-26T14:04:42Z</time>
      </trkpt>
      <trkpt lat="43.551008" lon="-8.300709">
        <ele>23.06</ele>
        <time>2019-07-26T14:04:47Z</time>
      </trkpt>
      <trkpt lat="43.551177" lon="-8.300595">
        <ele>22.01</ele>
        <time>2019-07-26T14:04:51Z</time>
      </trkpt>
      <trkpt lat="43.551359" lon="-8.300465">
        <ele>22.01</ele>
        <time>2019-07-26T14:04:55Z</time>
      </trkpt>
      <trkpt lat="43.551545" lon="-8.300342">
        <ele>22.03</ele>
        <time>2019-07-26T14:04:59Z</time>
      </trkpt>
      <trkpt lat="43.551732" lon="-8.300216">
        <ele>22.09</ele>
        <time>2019-07-26T14:05:03Z</time>
      </trkpt>
      <trkpt lat="43.551915" lon="-8.300098">
        <ele>21.03</ele>
        <time>2019-07-26T14:05:07Z</time>
      </trkpt>
      <trkpt lat="43.552101" lon="-8.299987">
        <ele>20.02</ele>
        <time>2019-07-26T14:05:11Z</time>
      </trkpt>
      <trkpt lat="43.552290" lon="-8.299918">
        <ele>20.05</ele>
        <time>2019-07-26T14:05:15Z</time>
      </trkpt>
      <trkpt lat="43.552482" lon="-8.299894">
        <ele>20.05</ele>
        <time>2019-07-26T14:05:19Z</time>
      </trkpt>
      <trkpt lat="43.552671" lon="-8.299898">
        <ele>20.08</ele>
        <time>2019-07-26T14:05:23Z</time>
      </trkpt>
      <trkpt lat="43.552866" lon="-8.299848">
        <ele>20.06</ele>
        <time>2019-07-26T14:05:28Z</time>
      </trkpt>
      <trkpt lat="43.553051" lon="-8.299762">
        <ele>20.02</ele>
        <time>2019-07-26T14:05:36Z</time>
      </trkpt>
      <trkpt lat="43.553241" lon="-8.299719">
        <ele>21.00</ele>
        <time>2019-07-26T14:05:44Z</time>
      </trkpt>
      <trkpt lat="43.553449" lon="-8.299715">
        <ele>20.01</ele>
        <time>2019-07-26T14:05:52Z</time>
      </trkpt>
      <trkpt lat="43.553639" lon="-8.299742">
        <ele>18.01</ele>
        <time>2019-07-26T14:06:08Z</time>
      </trkpt>
      <trkpt lat="43.553815" lon="-8.299662">
        <ele>19.09</ele>
        <time>2019-07-26T14:06:15Z</time>
      </trkpt>
      <trkpt lat="43.553998" lon="-8.299635">
        <ele>18.01</ele>
        <time>2019-07-26T14:06:21Z</time>
      </trkpt>
      <trkpt lat="43.554204" lon="-8.299639">
        <ele>18.04</ele>
        <time>2019-07-26T14:06:28Z</time>
      </trkpt>
      <trkpt lat="43.554393" lon="-8.299510">
        <ele>18.02</ele>
        <time>2019-07-26T14:06:35Z</time>
      </trkpt>
      <trkpt lat="43.554587" lon="-8.299404">
        <ele>18.01</ele>
        <time>2019-07-26T14:06:41Z</time>
      </trkpt>
      <trkpt lat="43.554772" lon="-8.299326">
        <ele>17.06</ele>
        <time>2019-07-26T14:06:46Z</time>
      </trkpt>
      <trkpt lat="43.554963" lon="-8.299254">
        <ele>16.05</ele>
        <time>2019-07-26T14:06:51Z</time>
      </trkpt>
      <trkpt lat="43.555146" lon="-8.299238">
        <ele>16.01</ele>
        <time>2019-07-26T14:06:55Z</time>
      </trkpt>
      <trkpt lat="43.555334" lon="-8.299205">
        <ele>16.10</ele>
        <time>2019-07-26T14:06:59Z</time>
      </trkpt>
      <trkpt lat="43.555523" lon="-8.299177">
        <ele>15.02</ele>
        <time>2019-07-26T14:07:04Z</time>
      </trkpt>
      <trkpt lat="43.555726" lon="-8.299116">
        <ele>16.03</ele>
        <time>2019-07-26T14:07:10Z</time>
      </trkpt>
      <trkpt lat="43.555892" lon="-8.298969">
        <ele>15.01</ele>
        <time>2019-07-26T14:07:17Z</time>
      </trkpt>
      <trkpt lat="43.556061" lon="-8.298830">
        <ele>14.02</ele>
        <time>2019-07-26T14:07:23Z</time>
      </trkpt>
      <trkpt lat="43.556141" lon="-8.298583">
        <ele>15.02</ele>
        <time>2019-07-26T14:07:28Z</time>
      </trkpt>
      <trkpt lat="43.556268" lon="-8.298348">
        <ele>15.10</ele>
        <time>2019-07-26T14:07:34Z</time>
      </trkpt>
      <trkpt lat="43.556414" lon="-8.298195">
        <ele>14.07</ele>
        <time>2019-07-26T14:07:39Z</time>
      </trkpt>
      <trkpt lat="43.556512" lon="-8.297959">
        <ele>14.03</ele>
        <time>2019-07-26T14:07:46Z</time>
      </trkpt>
      <trkpt lat="43.556636" lon="-8.297771">
        <ele>13.04</ele>
        <time>2019-07-26T14:09:23Z</time>
      </trkpt>
      <trkpt lat="43.556609" lon="-8.298027">
        <ele>12.02</ele>
        <time>2019-07-26T14:12:44Z</time>
      </trkpt>
      <trkpt lat="43.556477" lon="-8.298195">
        <ele>12.01</ele>
        <time>2019-07-26T14:12:54Z</time>
      </trkpt>
      <trkpt lat="43.556344" lon="-8.298404">
        <ele>13.03</ele>
        <time>2019-07-26T14:13:04Z</time>
      </trkpt>
      <trkpt lat="43.556330" lon="-8.298675">
        <ele>11.00</ele>
        <time>2019-07-26T14:13:13Z</time>
      </trkpt>
      <trkpt lat="43.556328" lon="-8.298934">
        <ele>9.02</ele>
        <time>2019-07-26T14:13:20Z</time>
      </trkpt>
      <trkpt lat="43.556281" lon="-8.299201">
        <ele>8.01</ele>
        <time>2019-07-26T14:13:28Z</time>
      </trkpt>
      <trkpt lat="43.556251" lon="-8.299453">
        <ele>6.09</ele>
        <time>2019-07-26T14:13:37Z</time>
      </trkpt>
      <trkpt lat="43.556193" lon="-8.299704">
        <ele>5.09</ele>
        <time>2019-07-26T14:13:59Z</time>
      </trkpt>
      <trkpt lat="43.556067" lon="-8.299910">
        <ele>7.05</ele>
        <time>2019-07-26T14:14:10Z</time>
      </trkpt>
      <trkpt lat="43.556180" lon="-8.300117">
        <ele>9.06</ele>
        <time>2019-07-26T14:14:25Z</time>
      </trkpt>
      <trkpt lat="43.556323" lon="-8.300302">
        <ele>10.07</ele>
        <time>2019-07-26T14:14:37Z</time>
      </trkpt>
      <trkpt lat="43.556486" lon="-8.300448">
        <ele>11.09</ele>
        <time>2019-07-26T14:14:50Z</time>
      </trkpt>
      <trkpt lat="43.556642" lon="-8.300584">
        <ele>12.07</ele>
        <time>2019-07-26T14:15:03Z</time>
      </trkpt>
      <trkpt lat="43.556739" lon="-8.300794">
        <ele>14.01</ele>
        <time>2019-07-26T14:15:17Z</time>
      </trkpt>
      <trkpt lat="43.556730" lon="-8.301060">
        <ele>17.06</ele>
        <time>2019-07-26T14:15:33Z</time>
      </trkpt>
      <trkpt lat="43.556840" lon="-8.301269">
        <ele>21.06</ele>
        <time>2019-07-26T14:15:49Z</time>
      </trkpt>
      <trkpt lat="43.557000" lon="-8.301407">
        <ele>24.01</ele>
        <time>2019-07-26T14:16:06Z</time>
      </trkpt>
      <trkpt lat="43.557185" lon="-8.301458">
        <ele>26.01</ele>
        <time>2019-07-26T14:16:24Z</time>
      </trkpt>
      <trkpt lat="43.557367" lon="-8.301452">
        <ele>29.08</ele>
        <time>2019-07-26T14:16:41Z</time>
      </trkpt>
      <trkpt lat="43.557543" lon="-8.301583">
        <ele>29.02</ele>
        <time>2019-07-26T14:16:52Z</time>
      </trkpt>
      <trkpt lat="43.557669" lon="-8.301765">
        <ele>26.07</ele>
        <time>2019-07-26T14:17:00Z</time>
      </trkpt>
      <trkpt lat="43.557779" lon="-8.301971">
        <ele>25.03</ele>
        <time>2019-07-26T14:17:05Z</time>
      </trkpt>
      <trkpt lat="43.557884" lon="-8.302177">
        <ele>26.02</ele>
        <time>2019-07-26T14:17:13Z</time>
      </trkpt>
      <trkpt lat="43.557980" lon="-8.302388">
        <ele>27.01</ele>
        <time>2019-07-26T14:17:26Z</time>
      </trkpt>
      <trkpt lat="43.558074" lon="-8.302604">
        <ele>28.08</ele>
        <time>2019-07-26T14:17:40Z</time>
      </trkpt>
      <trkpt lat="43.558144" lon="-8.302856">
        <ele>29.05</ele>
        <time>2019-07-26T14:17:53Z</time>
      </trkpt>
      <trkpt lat="43.558153" lon="-8.303121">
        <ele>28.02</ele>
        <time>2019-07-26T14:18:05Z</time>
      </trkpt>
      <trkpt lat="43.558173" lon="-8.303383">
        <ele>26.03</ele>
        <time>2019-07-26T14:18:14Z</time>
      </trkpt>
      <trkpt lat="43.558145" lon="-8.303673">
        <ele>25.01</ele>
        <time>2019-07-26T14:18:21Z</time>
      </trkpt>
      <trkpt lat="43.558230" lon="-8.303915">
        <ele>27.01</ele>
        <time>2019-07-26T14:18:33Z</time>
      </trkpt>
      <trkpt lat="43.558422" lon="-8.304054">
        <ele>25.06</ele>
        <time>2019-07-26T14:18:38Z</time>
      </trkpt>
      <trkpt lat="43.558612" lon="-8.304238">
        <ele>24.02</ele>
        <time>2019-07-26T14:18:42Z</time>
      </trkpt>
      <trkpt lat="43.558757" lon="-8.304393">
        <ele>23.05</ele>
        <time>2019-07-26T14:18:45Z</time>
      </trkpt>
      <trkpt lat="43.558962" lon="-8.304559">
        <ele>23.02</ele>
        <time>2019-07-26T14:18:49Z</time>
      </trkpt>
      <trkpt lat="43.559169" lon="-8.304715">
        <ele>22.08</ele>
        <time>2019-07-26T14:18:53Z</time>
      </trkpt>
      <trkpt lat="43.559318" lon="-8.304858">
        <ele>23.07</ele>
        <time>2019-07-26T14:18:56Z</time>
      </trkpt>
      <trkpt lat="43.559491" lon="-8.304971">
        <ele>24.02</ele>
        <time>2019-07-26T14:19:00Z</time>
      </trkpt>
      <trkpt lat="43.559677" lon="-8.304840">
        <ele>25.01</ele>
        <time>2019-07-26T14:19:06Z</time>
      </trkpt>
      <trkpt lat="43.559851" lon="-8.304691">
        <ele>24.09</ele>
        <time>2019-07-26T14:19:11Z</time>
      </trkpt>
      <trkpt lat="43.560053" lon="-8.304630">
        <ele>24.07</ele>
        <time>2019-07-26T14:19:16Z</time>
      </trkpt>
      <trkpt lat="43.560248" lon="-8.304619">
        <ele>24.02</ele>
        <time>2019-07-26T14:19:23Z</time>
      </trkpt>
      <trkpt lat="43.560415" lon="-8.304733">
        <ele>24.01</ele>
        <time>2019-07-26T14:19:30Z</time>
      </trkpt>
      <trkpt lat="43.560574" lon="-8.304921">
        <ele>25.02</ele>
        <time>2019-07-26T14:19:37Z</time>
      </trkpt>
      <trkpt lat="43.560705" lon="-8.305092">
        <ele>24.07</ele>
        <time>2019-07-26T14:19:43Z</time>
      </trkpt>
      <trkpt lat="43.560827" lon="-8.305293">
        <ele>26.10</ele>
        <time>2019-07-26T14:19:53Z</time>
      </trkpt>
      <trkpt lat="43.560918" lon="-8.305539">
        <ele>27.09</ele>
        <time>2019-07-26T14:20:02Z</time>
      </trkpt>
      <trkpt lat="43.561004" lon="-8.305761">
        <ele>28.05</ele>
        <time>2019-07-26T14:20:10Z</time>
      </trkpt>
      <trkpt lat="43.561133" lon="-8.305958">
        <ele>30.02</ele>
        <time>2019-07-26T14:20:21Z</time>
      </trkpt>
      <trkpt lat="43.561268" lon="-8.306141">
        <ele>30.07</ele>
        <time>2019-07-26T14:20:32Z</time>
      </trkpt>
      <trkpt lat="43.561392" lon="-8.306339">
        <ele>34.03</ele>
        <time>2019-07-26T14:20:44Z</time>
      </trkpt>
      <trkpt lat="43.561484" lon="-8.306569">
        <ele>36.03</ele>
        <time>2019-07-26T14:20:56Z</time>
      </trkpt>
      <trkpt lat="43.561601" lon="-8.306774">
        <ele>38.06</ele>
        <time>2019-07-26T14:21:07Z</time>
      </trkpt>
      <trkpt lat="43.561704" lon="-8.307002">
        <ele>37.01</ele>
        <time>2019-07-26T14:21:18Z</time>
      </trkpt>
      <trkpt lat="43.561810" lon="-8.307209">
        <ele>38.01</ele>
        <time>2019-07-26T14:21:28Z</time>
      </trkpt>
      <trkpt lat="43.561943" lon="-8.307408">
        <ele>38.10</ele>
        <time>2019-07-26T14:21:39Z</time>
      </trkpt>
      <trkpt lat="43.562078" lon="-8.307607">
        <ele>36.01</ele>
        <time>2019-07-26T14:21:46Z</time>
      </trkpt>
      <trkpt lat="43.562180" lon="-8.307822">
        <ele>35.07</ele>
        <time>2019-07-26T14:21:53Z</time>
      </trkpt>
      <trkpt lat="43.562250" lon="-8.308069">
        <ele>36.05</ele>
        <time>2019-07-26T14:22:03Z</time>
      </trkpt>
      <trkpt lat="43.562330" lon="-8.308296">
        <ele>36.01</ele>
        <time>2019-07-26T14:22:13Z</time>
      </trkpt>
      <trkpt lat="43.562441" lon="-8.308512">
        <ele>38.10</ele>
        <time>2019-07-26T14:22:26Z</time>
      </trkpt>
      <trkpt lat="43.562550" lon="-8.308711">
        <ele>40.02</ele>
        <time>2019-07-26T14:22:36Z</time>
      </trkpt>
      <trkpt lat="43.562543" lon="-8.308983">
        <ele>41.01</ele>
        <time>2019-07-26T14:22:45Z</time>
      </trkpt>
      <trkpt lat="43.562517" lon="-8.309243">
        <ele>41.09</ele>
        <time>2019-07-26T14:22:55Z</time>
      </trkpt>
      <trkpt lat="43.562426" lon="-8.309472">
        <ele>43.04</ele>
        <time>2019-07-26T14:23:06Z</time>
      </trkpt>
      <trkpt lat="43.562281" lon="-8.309622">
        <ele>46.03</ele>
        <time>2019-07-26T14:23:19Z</time>
      </trkpt>
      <trkpt lat="43.562138" lon="-8.309787">
        <ele>48.01</ele>
        <time>2019-07-26T14:23:35Z</time>
      </trkpt>
      <trkpt lat="43.562051" lon="-8.310019">
        <ele>49.07</ele>
        <time>2019-07-26T14:23:49Z</time>
      </trkpt>
      <trkpt lat="43.562213" lon="-8.310168">
        <ele>49.09</ele>
        <time>2019-07-26T14:23:55Z</time>
      </trkpt>
      <trkpt lat="43.562413" lon="-8.310066">
        <ele>47.04</ele>
        <time>2019-07-26T14:24:00Z</time>
      </trkpt>
      <trkpt lat="43.562594" lon="-8.309974">
        <ele>46.08</ele>
        <time>2019-07-26T14:24:05Z</time>
      </trkpt>
      <trkpt lat="43.562772" lon="-8.309903">
        <ele>48.03</ele>
        <time>2019-07-26T14:24:12Z</time>
      </trkpt>
      <trkpt lat="43.562971" lon="-8.309915">
        <ele>51.07</ele>
        <time>2019-07-26T14:24:20Z</time>
      </trkpt>
      <trkpt lat="43.563089" lon="-8.310118">
        <ele>51.01</ele>
        <time>2019-07-26T14:24:28Z</time>
      </trkpt>
      <trkpt lat="43.563163" lon="-8.310353">
        <ele>52.05</ele>
        <time>2019-07-26T14:24:37Z</time>
      </trkpt>
      <trkpt lat="43.563320" lon="-8.310494">
        <ele>54.10</ele>
        <time>2019-07-26T14:24:46Z</time>
      </trkpt>
      <trkpt lat="43.563502" lon="-8.310598">
        <ele>55.03</ele>
        <time>2019-07-26T14:24:55Z</time>
      </trkpt>
      <trkpt lat="43.563677" lon="-8.310673">
        <ele>57.02</ele>
        <time>2019-07-26T14:25:03Z</time>
      </trkpt>
      <trkpt lat="43.563841" lon="-8.310819">
        <ele>58.01</ele>
        <time>2019-07-26T14:25:12Z</time>
      </trkpt>
      <trkpt lat="43.563960" lon="-8.311016">
        <ele>61.08</ele>
        <time>2019-07-26T14:25:21Z</time>
      </trkpt>
      <trkpt lat="43.564054" lon="-8.311233">
        <ele>61.07</ele>
        <time>2019-07-26T14:25:29Z</time>
      </trkpt>
      <trkpt lat="43.564149" lon="-8.311450">
        <ele>61.07</ele>
        <time>2019-07-26T14:25:37Z</time>
      </trkpt>
      <trkpt lat="43.564323" lon="-8.311569">
        <ele>63.04</ele>
        <time>2019-07-26T14:25:46Z</time>
      </trkpt>
      <trkpt lat="43.564513" lon="-8.311581">
        <ele>65.05</ele>
        <time>2019-07-26T14:25:55Z</time>
      </trkpt>
      <trkpt lat="43.564699" lon="-8.311586">
        <ele>65.08</ele>
        <time>2019-07-26T14:26:03Z</time>
      </trkpt>
      <trkpt lat="43.564896" lon="-8.311612">
        <ele>67.04</ele>
        <time>2019-07-26T14:26:12Z</time>
      </trkpt>
      <trkpt lat="43.565070" lon="-8.311682">
        <ele>67.05</ele>
        <time>2019-07-26T14:26:20Z</time>
      </trkpt>
      <trkpt lat="43.565249" lon="-8.311788">
        <ele>69.07</ele>
        <time>2019-07-26T14:26:29Z</time>
      </trkpt>
      <trkpt lat="43.565424" lon="-8.311886">
        <ele>72.01</ele>
        <time>2019-07-26T14:26:38Z</time>
      </trkpt>
      <trkpt lat="43.565597" lon="-8.311998">
        <ele>74.01</ele>
        <time>2019-07-26T14:26:47Z</time>
      </trkpt>
      <trkpt lat="43.565757" lon="-8.312135">
        <ele>78.01</ele>
        <time>2019-07-26T14:26:56Z</time>
      </trkpt>
      <trkpt lat="43.565923" lon="-8.312257">
        <ele>81.09</ele>
        <time>2019-07-26T14:27:05Z</time>
      </trkpt>
      <trkpt lat="43.566080" lon="-8.312399">
        <ele>83.08</ele>
        <time>2019-07-26T14:27:14Z</time>
      </trkpt>
      <trkpt lat="43.566219" lon="-8.312558">
        <ele>85.09</ele>
        <time>2019-07-26T14:27:23Z</time>
      </trkpt>
      <trkpt lat="43.566353" lon="-8.312735">
        <ele>87.09</ele>
        <time>2019-07-26T14:27:32Z</time>
      </trkpt>
      <trkpt lat="43.566456" lon="-8.312950">
        <ele>88.08</ele>
        <time>2019-07-26T14:27:41Z</time>
      </trkpt>
      <trkpt lat="43.566551" lon="-8.313178">
        <ele>89.05</ele>
        <time>2019-07-26T14:27:49Z</time>
      </trkpt>
      <trkpt lat="43.566682" lon="-8.313377">
        <ele>88.09</ele>
        <time>2019-07-26T14:27:57Z</time>
      </trkpt>
      <trkpt lat="43.566825" lon="-8.313533">
        <ele>90.06</ele>
        <time>2019-07-26T14:28:05Z</time>
      </trkpt>
      <trkpt lat="43.566970" lon="-8.313724">
        <ele>91.08</ele>
        <time>2019-07-26T14:28:14Z</time>
      </trkpt>
      <trkpt lat="43.567121" lon="-8.313883">
        <ele>92.03</ele>
        <time>2019-07-26T14:28:22Z</time>
      </trkpt>
      <trkpt lat="43.567267" lon="-8.314038">
        <ele>94.03</ele>
        <time>2019-07-26T14:28:30Z</time>
      </trkpt>
      <trkpt lat="43.567410" lon="-8.314197">
        <ele>95.01</ele>
        <time>2019-07-26T14:28:38Z</time>
      </trkpt>
      <trkpt lat="43.567587" lon="-8.314253">
        <ele>95.08</ele>
        <time>2019-07-26T14:28:47Z</time>
      </trkpt>
      <trkpt lat="43.567397" lon="-8.314246">
        <ele>96.09</ele>
        <time>2019-07-26T14:49:14Z</time>
      </trkpt>
      <trkpt lat="43.567259" lon="-8.314070">
        <ele>93.02</ele>
        <time>2019-07-26T14:49:23Z</time>
      </trkpt>
      <trkpt lat="43.567118" lon="-8.313897">
        <ele>92.09</ele>
        <time>2019-07-26T14:49:31Z</time>
      </trkpt>
      <trkpt lat="43.566982" lon="-8.313727">
        <ele>88.06</ele>
        <time>2019-07-26T14:49:40Z</time>
      </trkpt>
      <trkpt lat="43.566802" lon="-8.313596">
        <ele>87.01</ele>
        <time>2019-07-26T14:49:46Z</time>
      </trkpt>
      <trkpt lat="43.566626" lon="-8.313518">
        <ele>88.02</ele>
        <time>2019-07-26T14:49:54Z</time>
      </trkpt>
      <trkpt lat="43.566502" lon="-8.313332">
        <ele>89.10</ele>
        <time>2019-07-26T14:50:04Z</time>
      </trkpt>
      <trkpt lat="43.566388" lon="-8.313128">
        <ele>90.03</ele>
        <time>2019-07-26T14:50:45Z</time>
      </trkpt>
      <trkpt lat="43.566258" lon="-8.312951">
        <ele>90.09</ele>
        <time>2019-07-26T14:50:54Z</time>
      </trkpt>
      <trkpt lat="43.566101" lon="-8.312779">
        <ele>91.02</ele>
        <time>2019-07-26T14:51:03Z</time>
      </trkpt>
      <trkpt lat="43.565925" lon="-8.312654">
        <ele>90.01</ele>
        <time>2019-07-26T14:51:12Z</time>
      </trkpt>
      <trkpt lat="43.565739" lon="-8.312655">
        <ele>90.09</ele>
        <time>2019-07-26T14:51:21Z</time>
      </trkpt>
      <trkpt lat="43.565564" lon="-8.312738">
        <ele>90.05</ele>
        <time>2019-07-26T14:51:30Z</time>
      </trkpt>
      <trkpt lat="43.565398" lon="-8.312870">
        <ele>92.07</ele>
        <time>2019-07-26T14:51:40Z</time>
      </trkpt>
      <trkpt lat="43.565222" lon="-8.312974">
        <ele>92.04</ele>
        <time>2019-07-26T14:51:50Z</time>
      </trkpt>
      <trkpt lat="43.565037" lon="-8.313030">
        <ele>93.03</ele>
        <time>2019-07-26T14:52:01Z</time>
      </trkpt>
      <trkpt lat="43.564874" lon="-8.313148">
        <ele>97.08</ele>
        <time>2019-07-26T14:52:36Z</time>
      </trkpt>
      <trkpt lat="43.564750" lon="-8.313331">
        <ele>100.05</ele>
        <time>2019-07-26T14:52:49Z</time>
      </trkpt>
      <trkpt lat="43.564640" lon="-8.313534">
        <ele>104.01</ele>
        <time>2019-07-26T14:53:03Z</time>
      </trkpt>
      <trkpt lat="43.564525" lon="-8.313738">
        <ele>104.07</ele>
        <time>2019-07-26T14:53:18Z</time>
      </trkpt>
      <trkpt lat="43.564370" lon="-8.313875">
        <ele>105.08</ele>
        <time>2019-07-26T14:53:31Z</time>
      </trkpt>
      <trkpt lat="43.564191" lon="-8.313968">
        <ele>108.01</ele>
        <time>2019-07-26T14:53:47Z</time>
      </trkpt>
      <trkpt lat="43.564045" lon="-8.314116">
        <ele>111.01</ele>
        <time>2019-07-26T14:54:04Z</time>
      </trkpt>
      <trkpt lat="43.563931" lon="-8.314314">
        <ele>115.06</ele>
        <time>2019-07-26T14:54:19Z</time>
      </trkpt>
      <trkpt lat="43.563763" lon="-8.314443">
        <ele>118.04</ele>
        <time>2019-07-26T14:54:35Z</time>
      </trkpt>
      <trkpt lat="43.563581" lon="-8.314525">
        <ele>120.07</ele>
        <time>2019-07-26T14:54:51Z</time>
      </trkpt>
      <trkpt lat="43.563421" lon="-8.314636">
        <ele>121.03</ele>
        <time>2019-07-26T14:55:06Z</time>
      </trkpt>
      <trkpt lat="43.563296" lon="-8.314822">
        <ele>124.02</ele>
        <time>2019-07-26T14:55:21Z</time>
      </trkpt>
      <trkpt lat="43.563165" lon="-8.315015">
        <ele>125.04</ele>
        <time>2019-07-26T14:55:37Z</time>
      </trkpt>
      <trkpt lat="43.563020" lon="-8.315179">
        <ele>125.01</ele>
        <time>2019-07-26T14:55:51Z</time>
      </trkpt>
      <trkpt lat="43.562842" lon="-8.315269">
        <ele>125.07</ele>
        <time>2019-07-26T14:56:05Z</time>
      </trkpt>
      <trkpt lat="43.562652" lon="-8.315313">
        <ele>128.07</ele>
        <time>2019-07-26T14:56:20Z</time>
      </trkpt>
      <trkpt lat="43.562484" lon="-8.315416">
        <ele>129.04</ele>
        <time>2019-07-26T14:56:34Z</time>
      </trkpt>
      <trkpt lat="43.562317" lon="-8.315540">
        <ele>132.01</ele>
        <time>2019-07-26T14:56:48Z</time>
      </trkpt>
      <trkpt lat="43.562150" lon="-8.315659">
        <ele>134.01</ele>
        <time>2019-07-26T14:57:02Z</time>
      </trkpt>
      <trkpt lat="43.561997" lon="-8.315791">
        <ele>135.03</ele>
        <time>2019-07-26T14:57:16Z</time>
      </trkpt>
      <trkpt lat="43.561839" lon="-8.315910">
        <ele>137.09</ele>
        <time>2019-07-26T14:57:28Z</time>
      </trkpt>
      <trkpt lat="43.561693" lon="-8.316056">
        <ele>138.06</ele>
        <time>2019-07-26T14:57:40Z</time>
      </trkpt>
      <trkpt lat="43.561533" lon="-8.316184">
        <ele>139.05</ele>
        <time>2019-07-26T14:57:53Z</time>
      </trkpt>
      <trkpt lat="43.561360" lon="-8.316289">
        <ele>138.06</ele>
        <time>2019-07-26T15:00:58Z</time>
      </trkpt>
      <trkpt lat="43.561173" lon="-8.316356">
        <ele>137.06</ele>
        <time>2019-07-26T15:01:10Z</time>
      </trkpt>
      <trkpt lat="43.561033" lon="-8.316521">
        <ele>135.06</ele>
        <time>2019-07-26T15:01:20Z</time>
      </trkpt>
      <trkpt lat="43.561021" lon="-8.316770">
        <ele>135.07</ele>
        <time>2019-07-26T15:01:30Z</time>
      </trkpt>
      <trkpt lat="43.561072" lon="-8.317044">
        <ele>133.02</ele>
        <time>2019-07-26T15:01:38Z</time>
      </trkpt>
      <trkpt lat="43.561077" lon="-8.317300">
        <ele>132.09</ele>
        <time>2019-07-26T15:01:46Z</time>
      </trkpt>
      <trkpt lat="43.560942" lon="-8.317510">
        <ele>128.01</ele>
        <time>2019-07-26T15:01:54Z</time>
      </trkpt>
      <trkpt lat="43.560816" lon="-8.317727">
        <ele>126.01</ele>
        <time>2019-07-26T15:02:00Z</time>
      </trkpt>
      <trkpt lat="43.560716" lon="-8.317958">
        <ele>124.06</ele>
        <time>2019-07-26T15:02:05Z</time>
      </trkpt>
      <trkpt lat="43.560669" lon="-8.318219">
        <ele>123.04</ele>
        <time>2019-07-26T15:02:11Z</time>
      </trkpt>
      <trkpt lat="43.560638" lon="-8.318501">
        <ele>121.05</ele>
        <time>2019-07-26T15:02:18Z</time>
      </trkpt>
      <trkpt lat="43.560595" lon="-8.318762">
        <ele>120.05</ele>
        <time>2019-07-26T15:02:24Z</time>
      </trkpt>
      <trkpt lat="43.560537" lon="-8.319018">
        <ele>120.03</ele>
        <time>2019-07-26T15:02:30Z</time>
      </trkpt>
      <trkpt lat="43.560389" lon="-8.319234">
        <ele>119.10</ele>
        <time>2019-07-26T15:02:36Z</time>
      </trkpt>
      <trkpt lat="43.560200" lon="-8.319309">
        <ele>118.06</ele>
        <time>2019-07-26T15:02:41Z</time>
      </trkpt>
      <trkpt lat="43.560014" lon="-8.319316">
        <ele>118.02</ele>
        <time>2019-07-26T15:02:46Z</time>
      </trkpt>
      <trkpt lat="43.559841" lon="-8.319232">
        <ele>118.08</ele>
        <time>2019-07-26T15:02:51Z</time>
      </trkpt>
      <trkpt lat="43.559693" lon="-8.319062">
        <ele>117.09</ele>
        <time>2019-07-26T15:02:57Z</time>
      </trkpt>
      <trkpt lat="43.559554" lon="-8.318889">
        <ele>117.02</ele>
        <time>2019-07-26T15:03:05Z</time>
      </trkpt>
      <trkpt lat="43.559387" lon="-8.318751">
        <ele>118.01</ele>
        <time>2019-07-26T15:03:13Z</time>
      </trkpt>
      <trkpt lat="43.559192" lon="-8.318650">
        <ele>118.02</ele>
        <time>2019-07-26T15:03:21Z</time>
      </trkpt>
      <trkpt lat="43.559015" lon="-8.318511">
        <ele>118.07</ele>
        <time>2019-07-26T15:03:29Z</time>
      </trkpt>
      <trkpt lat="43.558905" lon="-8.318308">
        <ele>117.04</ele>
        <time>2019-07-26T15:03:36Z</time>
      </trkpt>
      <trkpt lat="43.558868" lon="-8.318048">
        <ele>117.01</ele>
        <time>2019-07-26T15:03:42Z</time>
      </trkpt>
      <trkpt lat="43.558867" lon="-8.317784">
        <ele>117.08</ele>
        <time>2019-07-26T15:03:49Z</time>
      </trkpt>
      <trkpt lat="43.558870" lon="-8.317515">
        <ele>116.09</ele>
        <time>2019-07-26T15:03:56Z</time>
      </trkpt>
      <trkpt lat="43.558774" lon="-8.317297">
        <ele>114.01</ele>
        <time>2019-07-26T15:04:02Z</time>
      </trkpt>
      <trkpt lat="43.558643" lon="-8.317082">
        <ele>113.06</ele>
        <time>2019-07-26T15:04:08Z</time>
      </trkpt>
      <trkpt lat="43.558526" lon="-8.316854">
        <ele>112.01</ele>
        <time>2019-07-26T15:04:14Z</time>
      </trkpt>
      <trkpt lat="43.558447" lon="-8.316630">
        <ele>111.03</ele>
        <time>2019-07-26T15:04:19Z</time>
      </trkpt>
      <trkpt lat="43.558365" lon="-8.316385">
        <ele>109.01</ele>
        <time>2019-07-26T15:04:24Z</time>
      </trkpt>
      <trkpt lat="43.558274" lon="-8.316122">
        <ele>108.01</ele>
        <time>2019-07-26T15:04:29Z</time>
      </trkpt>
      <trkpt lat="43.558235" lon="-8.315874">
        <ele>108.08</ele>
        <time>2019-07-26T15:04:35Z</time>
      </trkpt>
      <trkpt lat="43.558281" lon="-8.315620">
        <ele>107.09</ele>
        <time>2019-07-26T15:04:41Z</time>
      </trkpt>
      <trkpt lat="43.558374" lon="-8.315378">
        <ele>106.03</ele>
        <time>2019-07-26T15:04:48Z</time>
      </trkpt>
      <trkpt lat="43.558458" lon="-8.315148">
        <ele>104.06</ele>
        <time>2019-07-26T15:04:54Z</time>
      </trkpt>
      <trkpt lat="43.558569" lon="-8.314937">
        <ele>103.06</ele>
        <time>2019-07-26T15:05:00Z</time>
      </trkpt>
      <trkpt lat="43.558700" lon="-8.314746">
        <ele>102.08</ele>
        <time>2019-07-26T15:05:06Z</time>
      </trkpt>
      <trkpt lat="43.558841" lon="-8.314584">
        <ele>101.03</ele>
        <time>2019-07-26T15:05:12Z</time>
      </trkpt>
      <trkpt lat="43.559005" lon="-8.314425">
        <ele>100.04</ele>
        <time>2019-07-26T15:05:19Z</time>
      </trkpt>
      <trkpt lat="43.559181" lon="-8.314352">
        <ele>98.06</ele>
        <time>2019-07-26T15:05:26Z</time>
      </trkpt>
      <trkpt lat="43.559368" lon="-8.314244">
        <ele>96.00</ele>
        <time>2019-07-26T15:05:33Z</time>
      </trkpt>
      <trkpt lat="43.559520" lon="-8.314061">
        <ele>95.02</ele>
        <time>2019-07-26T15:05:40Z</time>
      </trkpt>
      <trkpt lat="43.559577" lon="-8.313793">
        <ele>94.01</ele>
        <time>2019-07-26T15:05:47Z</time>
      </trkpt>
      <trkpt lat="43.559519" lon="-8.313526">
        <ele>94.06</ele>
        <time>2019-07-26T15:05:54Z</time>
      </trkpt>
      <trkpt lat="43.559393" lon="-8.313348">
        <ele>93.06</ele>
        <time>2019-07-26T15:06:02Z</time>
      </trkpt>
      <trkpt lat="43.559210" lon="-8.313237">
        <ele>93.05</ele>
        <time>2019-07-26T15:06:19Z</time>
      </trkpt>
      <trkpt lat="43.559028" lon="-8.313256">
        <ele>92.02</ele>
        <time>2019-07-26T15:06:27Z</time>
      </trkpt>
      <trkpt lat="43.558848" lon="-8.313317">
        <ele>93.04</ele>
        <time>2019-07-26T15:06:34Z</time>
      </trkpt>
      <trkpt lat="43.558655" lon="-8.313356">
        <ele>93.08</ele>
        <time>2019-07-26T15:06:42Z</time>
      </trkpt>
      <trkpt lat="43.558473" lon="-8.313332">
        <ele>92.03</ele>
        <time>2019-07-26T15:06:49Z</time>
      </trkpt>
      <trkpt lat="43.558291" lon="-8.313255">
        <ele>91.04</ele>
        <time>2019-07-26T15:06:56Z</time>
      </trkpt>
      <trkpt lat="43.558120" lon="-8.313151">
        <ele>91.10</ele>
        <time>2019-07-26T15:07:03Z</time>
      </trkpt>
      <trkpt lat="43.557953" lon="-8.312998">
        <ele>89.02</ele>
        <time>2019-07-26T15:07:09Z</time>
      </trkpt>
      <trkpt lat="43.557785" lon="-8.312889">
        <ele>87.03</ele>
        <time>2019-07-26T15:07:15Z</time>
      </trkpt>
      <trkpt lat="43.557587" lon="-8.312907">
        <ele>86.01</ele>
        <time>2019-07-26T15:07:21Z</time>
      </trkpt>
      <trkpt lat="43.557402" lon="-8.312961">
        <ele>85.07</ele>
        <time>2019-07-26T15:07:27Z</time>
      </trkpt>
      <trkpt lat="43.557197" lon="-8.312971">
        <ele>85.02</ele>
        <time>2019-07-26T15:07:34Z</time>
      </trkpt>
      <trkpt lat="43.556999" lon="-8.312926">
        <ele>85.08</ele>
        <time>2019-07-26T15:07:41Z</time>
      </trkpt>
      <trkpt lat="43.556798" lon="-8.312879">
        <ele>84.09</ele>
        <time>2019-07-26T15:07:47Z</time>
      </trkpt>
      <trkpt lat="43.556611" lon="-8.312822">
        <ele>84.10</ele>
        <time>2019-07-26T15:07:52Z</time>
      </trkpt>
      <trkpt lat="43.556450" lon="-8.312710">
        <ele>84.02</ele>
        <time>2019-07-26T15:07:57Z</time>
      </trkpt>
      <trkpt lat="43.556312" lon="-8.312549">
        <ele>83.08</ele>
        <time>2019-07-26T15:08:02Z</time>
      </trkpt>
      <trkpt lat="43.556169" lon="-8.312379">
        <ele>83.05</ele>
        <time>2019-07-26T15:08:07Z</time>
      </trkpt>
      <trkpt lat="43.555970" lon="-8.312293">
        <ele>82.05</ele>
        <time>2019-07-26T15:08:13Z</time>
      </trkpt>
      <trkpt lat="43.555794" lon="-8.312372">
        <ele>82.09</ele>
        <time>2019-07-26T15:08:20Z</time>
      </trkpt>
      <trkpt lat="43.555631" lon="-8.312480">
        <ele>83.02</ele>
        <time>2019-07-26T15:08:27Z</time>
      </trkpt>
      <trkpt lat="43.555449" lon="-8.312498">
        <ele>84.01</ele>
        <time>2019-07-26T15:08:34Z</time>
      </trkpt>
      <trkpt lat="43.555281" lon="-8.312350">
        <ele>85.03</ele>
        <time>2019-07-26T15:08:42Z</time>
      </trkpt>
      <trkpt lat="43.555130" lon="-8.312186">
        <ele>85.01</ele>
        <time>2019-07-26T15:08:49Z</time>
      </trkpt>
      <trkpt lat="43.554963" lon="-8.312031">
        <ele>84.09</ele>
        <time>2019-07-26T15:08:56Z</time>
      </trkpt>
      <trkpt lat="43.554774" lon="-8.311906">
        <ele>85.02</ele>
        <time>2019-07-26T15:09:03Z</time>
      </trkpt>
      <trkpt lat="43.554576" lon="-8.311840">
        <ele>85.07</ele>
        <time>2019-07-26T15:09:10Z</time>
      </trkpt>
      <trkpt lat="43.554375" lon="-8.311833">
        <ele>84.03</ele>
        <time>2019-07-26T15:09:17Z</time>
      </trkpt>
      <trkpt lat="43.554167" lon="-8.311819">
        <ele>82.09</ele>
        <time>2019-07-26T15:09:24Z</time>
      </trkpt>
      <trkpt lat="43.553971" lon="-8.311797">
        <ele>83.02</ele>
        <time>2019-07-26T15:09:30Z</time>
      </trkpt>
      <trkpt lat="43.553761" lon="-8.311769">
        <ele>82.02</ele>
        <time>2019-07-26T15:09:36Z</time>
      </trkpt>
      <trkpt lat="43.553555" lon="-8.311751">
        <ele>82.00</ele>
        <time>2019-07-26T15:09:42Z</time>
      </trkpt>
      <trkpt lat="43.553374" lon="-8.311718">
        <ele>82.01</ele>
        <time>2019-07-26T15:09:49Z</time>
      </trkpt>
      <trkpt lat="43.553202" lon="-8.311607">
        <ele>81.01</ele>
        <time>2019-07-26T15:09:56Z</time>
      </trkpt>
      <trkpt lat="43.553032" lon="-8.311470">
        <ele>82.03</ele>
        <time>2019-07-26T15:10:03Z</time>
      </trkpt>
      <trkpt lat="43.552845" lon="-8.311459">
        <ele>81.09</ele>
        <time>2019-07-26T15:10:10Z</time>
      </trkpt>
      <trkpt lat="43.552673" lon="-8.311568">
        <ele>80.04</ele>
        <time>2019-07-26T15:10:18Z</time>
      </trkpt>
      <trkpt lat="43.552484" lon="-8.311656">
        <ele>80.09</ele>
        <time>2019-07-26T15:10:26Z</time>
      </trkpt>
      <trkpt lat="43.552294" lon="-8.311597">
        <ele>82.09</ele>
        <time>2019-07-26T15:11:52Z</time>
      </trkpt>
      <trkpt lat="43.552115" lon="-8.311505">
        <ele>81.07</ele>
        <time>2019-07-26T15:12:00Z</time>
      </trkpt>
      <trkpt lat="43.551946" lon="-8.311400">
        <ele>80.05</ele>
        <time>2019-07-26T15:12:07Z</time>
      </trkpt>
      <trkpt lat="43.551757" lon="-8.311329">
        <ele>79.04</ele>
        <time>2019-07-26T15:12:15Z</time>
      </trkpt>
      <trkpt lat="43.551568" lon="-8.311328">
        <ele>79.09</ele>
        <time>2019-07-26T15:12:21Z</time>
      </trkpt>
      <trkpt lat="43.551373" lon="-8.311326">
        <ele>79.05</ele>
        <time>2019-07-26T15:12:27Z</time>
      </trkpt>
      <trkpt lat="43.551180" lon="-8.311295">
        <ele>79.02</ele>
        <time>2019-07-26T15:12:33Z</time>
      </trkpt>
      <trkpt lat="43.550993" lon="-8.311196">
        <ele>79.01</ele>
        <time>2019-07-26T15:12:39Z</time>
      </trkpt>
      <trkpt lat="43.550817" lon="-8.311105">
        <ele>79.02</ele>
        <time>2019-07-26T15:12:44Z</time>
      </trkpt>
      <trkpt lat="43.550617" lon="-8.311122">
        <ele>78.05</ele>
        <time>2019-07-26T15:12:49Z</time>
      </trkpt>
      <trkpt lat="43.550419" lon="-8.311211">
        <ele>78.10</ele>
        <time>2019-07-26T15:12:54Z</time>
      </trkpt>
      <trkpt lat="43.550234" lon="-8.311297">
        <ele>78.07</ele>
        <time>2019-07-26T15:12:59Z</time>
      </trkpt>
      <trkpt lat="43.550044" lon="-8.311383">
        <ele>78.04</ele>
        <time>2019-07-26T15:13:05Z</time>
      </trkpt>
      <trkpt lat="43.549847" lon="-8.311473">
        <ele>79.09</ele>
        <time>2019-07-26T15:13:11Z</time>
      </trkpt>
      <trkpt lat="43.549651" lon="-8.311560">
        <ele>79.05</ele>
        <time>2019-07-26T15:13:17Z</time>
      </trkpt>
      <trkpt lat="43.549478" lon="-8.311711">
        <ele>78.09</ele>
        <time>2019-07-26T15:13:23Z</time>
      </trkpt>
      <trkpt lat="43.549305" lon="-8.311874">
        <ele>78.07</ele>
        <time>2019-07-26T15:13:29Z</time>
      </trkpt>
      <trkpt lat="43.549123" lon="-8.312023">
        <ele>77.08</ele>
        <time>2019-07-26T15:13:35Z</time>
      </trkpt>
      <trkpt lat="43.548961" lon="-8.312157">
        <ele>76.02</ele>
        <time>2019-07-26T15:13:40Z</time>
      </trkpt>
      <trkpt lat="43.548789" lon="-8.312291">
        <ele>76.01</ele>
        <time>2019-07-26T15:13:45Z</time>
      </trkpt>
      <trkpt lat="43.548616" lon="-8.312425">
        <ele>75.07</ele>
        <time>2019-07-26T15:13:50Z</time>
      </trkpt>
      <trkpt lat="43.548441" lon="-8.312515">
        <ele>76.02</ele>
        <time>2019-07-26T15:13:55Z</time>
      </trkpt>
      <trkpt lat="43.548246" lon="-8.312530">
        <ele>75.01</ele>
        <time>2019-07-26T15:14:00Z</time>
      </trkpt>
      <trkpt lat="43.548028" lon="-8.312465">
        <ele>75.02</ele>
        <time>2019-07-26T15:14:05Z</time>
      </trkpt>
      <trkpt lat="43.547861" lon="-8.312363">
        <ele>75.01</ele>
        <time>2019-07-26T15:14:09Z</time>
      </trkpt>
      <trkpt lat="43.547692" lon="-8.312212">
        <ele>75.08</ele>
        <time>2019-07-26T15:14:14Z</time>
      </trkpt>
      <trkpt lat="43.547533" lon="-8.312042">
        <ele>75.07</ele>
        <time>2019-07-26T15:14:20Z</time>
      </trkpt>
      <trkpt lat="43.547412" lon="-8.311843">
        <ele>75.07</ele>
        <time>2019-07-26T15:14:33Z</time>
      </trkpt>
      <trkpt lat="43.547333" lon="-8.311619">
        <ele>75.09</ele>
        <time>2019-07-26T15:14:39Z</time>
      </trkpt>
      <trkpt lat="43.547314" lon="-8.311343">
        <ele>75.06</ele>
        <time>2019-07-26T15:14:45Z</time>
      </trkpt>
      <trkpt lat="43.547362" lon="-8.311066">
        <ele>74.02</ele>
        <time>2019-07-26T15:14:51Z</time>
      </trkpt>
      <trkpt lat="43.547440" lon="-8.310829">
        <ele>73.01</ele>
        <time>2019-07-26T15:14:55Z</time>
      </trkpt>
      <trkpt lat="43.547508" lon="-8.310558">
        <ele>73.01</ele>
        <time>2019-07-26T15:14:59Z</time>
      </trkpt>
      <trkpt lat="43.547560" lon="-8.310236">
        <ele>73.05</ele>
        <time>2019-07-26T15:15:03Z</time>
      </trkpt>
      <trkpt lat="43.547581" lon="-8.309911">
        <ele>73.09</ele>
        <time>2019-07-26T15:15:07Z</time>
      </trkpt>
      <trkpt lat="43.547580" lon="-8.309621">
        <ele>73.05</ele>
        <time>2019-07-26T15:15:11Z</time>
      </trkpt>
      <trkpt lat="43.547616" lon="-8.309343">
        <ele>72.07</ele>
        <time>2019-07-26T15:15:15Z</time>
      </trkpt>
      <trkpt lat="43.547671" lon="-8.309061">
        <ele>71.04</ele>
        <time>2019-07-26T15:15:19Z</time>
      </trkpt>
      <trkpt lat="43.547722" lon="-8.308779">
        <ele>71.02</ele>
        <time>2019-07-26T15:15:23Z</time>
      </trkpt>
      <trkpt lat="43.547773" lon="-8.308492">
        <ele>71.04</ele>
        <time>2019-07-26T15:15:27Z</time>
      </trkpt>
      <trkpt lat="43.547825" lon="-8.308216">
        <ele>71.09</ele>
        <time>2019-07-26T15:15:31Z</time>
      </trkpt>
      <trkpt lat="43.547813" lon="-8.307955">
        <ele>71.05</ele>
        <time>2019-07-26T15:15:35Z</time>
      </trkpt>
      <trkpt lat="43.547754" lon="-8.307687">
        <ele>71.02</ele>
        <time>2019-07-26T15:15:40Z</time>
      </trkpt>
      <trkpt lat="43.547733" lon="-8.307415">
        <ele>70.01</ele>
        <time>2019-07-26T15:15:45Z</time>
      </trkpt>
      <trkpt lat="43.547775" lon="-8.307138">
        <ele>69.04</ele>
        <time>2019-07-26T15:15:50Z</time>
      </trkpt>
      <trkpt lat="43.547886" lon="-8.306874">
        <ele>67.07</ele>
        <time>2019-07-26T15:15:55Z</time>
      </trkpt>
      <trkpt lat="43.547997" lon="-8.306620">
        <ele>66.05</ele>
        <time>2019-07-26T15:15:59Z</time>
      </trkpt>
      <trkpt lat="43.548082" lon="-8.306343">
        <ele>66.03</ele>
        <time>2019-07-26T15:16:03Z</time>
      </trkpt>
      <trkpt lat="43.548094" lon="-8.306053">
        <ele>66.09</ele>
        <time>2019-07-26T15:16:07Z</time>
      </trkpt>
      <trkpt lat="43.548050" lon="-8.305783">
        <ele>66.08</ele>
        <time>2019-07-26T15:16:11Z</time>
      </trkpt>
      <trkpt lat="43.548022" lon="-8.305533">
        <ele>66.02</ele>
        <time>2019-07-26T15:16:15Z</time>
      </trkpt>
      <trkpt lat="43.548062" lon="-8.305235">
        <ele>65.09</ele>
        <time>2019-07-26T15:16:20Z</time>
      </trkpt>
      <trkpt lat="43.548157" lon="-8.305009">
        <ele>65.06</ele>
        <time>2019-07-26T15:16:24Z</time>
      </trkpt>
      <trkpt lat="43.548302" lon="-8.304821">
        <ele>65.07</ele>
        <time>2019-07-26T15:16:28Z</time>
      </trkpt>
      <trkpt lat="43.548492" lon="-8.304770">
        <ele>64.01</ele>
        <time>2019-07-26T15:16:32Z</time>
      </trkpt>
      <trkpt lat="43.548709" lon="-8.304827">
        <ele>62.01</ele>
        <time>2019-07-26T15:16:36Z</time>
      </trkpt>
      <trkpt lat="43.548910" lon="-8.304871">
        <ele>60.10</ele>
        <time>2019-07-26T15:16:40Z</time>
      </trkpt>
      <trkpt lat="43.549100" lon="-8.304794">
        <ele>58.06</ele>
        <time>2019-07-26T15:16:44Z</time>
      </trkpt>
      <trkpt lat="43.549255" lon="-8.304593">
        <ele>56.02</ele>
        <time>2019-07-26T15:16:49Z</time>
      </trkpt>
      <trkpt lat="43.549244" lon="-8.304324">
        <ele>56.03</ele>
        <time>2019-07-26T15:16:54Z</time>
      </trkpt>
      <trkpt lat="43.549112" lon="-8.304153">
        <ele>55.07</ele>
        <time>2019-07-26T15:16:59Z</time>
      </trkpt>
      <trkpt lat="43.548963" lon="-8.303994">
        <ele>53.08</ele>
        <time>2019-07-26T15:17:04Z</time>
      </trkpt>
      <trkpt lat="43.548802" lon="-8.303800">
        <ele>52.09</ele>
        <time>2019-07-26T15:17:10Z</time>
      </trkpt>
      <trkpt lat="43.548702" lon="-8.303574">
        <ele>50.06</ele>
        <time>2019-07-26T15:17:15Z</time>
      </trkpt>
      <trkpt lat="43.548614" lon="-8.303351">
        <ele>49.04</ele>
        <time>2019-07-26T15:17:20Z</time>
      </trkpt>
      <trkpt lat="43.548512" lon="-8.303123">
        <ele>48.02</ele>
        <time>2019-07-26T15:17:25Z</time>
      </trkpt>
      <trkpt lat="43.548342" lon="-8.302964">
        <ele>48.01</ele>
        <time>2019-07-26T15:17:30Z</time>
      </trkpt>
      <trkpt lat="43.548171" lon="-8.302862">
        <ele>48.01</ele>
        <time>2019-07-26T15:17:35Z</time>
      </trkpt>
      <trkpt lat="43.548009" lon="-8.302683">
        <ele>46.04</ele>
        <time>2019-07-26T15:17:41Z</time>
      </trkpt>
      <trkpt lat="43.547928" lon="-8.302420">
        <ele>45.03</ele>
        <time>2019-07-26T15:17:47Z</time>
      </trkpt>
      <trkpt lat="43.547907" lon="-8.302154">
        <ele>44.05</ele>
        <time>2019-07-26T15:17:52Z</time>
      </trkpt>
      <trkpt lat="43.547876" lon="-8.301884">
        <ele>43.05</ele>
        <time>2019-07-26T15:17:57Z</time>
      </trkpt>
      <trkpt lat="43.547844" lon="-8.301604">
        <ele>41.09</ele>
        <time>2019-07-26T15:18:02Z</time>
      </trkpt>
      <trkpt lat="43.547824" lon="-8.301347">
        <ele>39.05</ele>
        <time>2019-07-26T15:18:07Z</time>
      </trkpt>
      <trkpt lat="43.547785" lon="-8.301080">
        <ele>39.09</ele>
        <time>2019-07-26T15:18:12Z</time>
      </trkpt>
      <trkpt lat="43.547720" lon="-8.300831">
        <ele>38.02</ele>
        <time>2019-07-26T15:18:17Z</time>
      </trkpt>
      <trkpt lat="43.547536" lon="-8.300721">
        <ele>39.02</ele>
        <time>2019-07-26T15:18:22Z</time>
      </trkpt>
      <trkpt lat="43.547388" lon="-8.300542">
        <ele>38.06</ele>
        <time>2019-07-26T15:18:27Z</time>
      </trkpt>
      <trkpt lat="43.547265" lon="-8.300360">
        <ele>37.01</ele>
        <time>2019-07-26T15:18:32Z</time>
      </trkpt>
      <trkpt lat="43.547125" lon="-8.300166">
        <ele>38.01</ele>
        <time>2019-07-26T15:18:38Z</time>
      </trkpt>
      <trkpt lat="43.546973" lon="-8.299976">
        <ele>38.07</ele>
        <time>2019-07-26T15:18:45Z</time>
      </trkpt>
      <trkpt lat="43.546831" lon="-8.299820">
        <ele>36.06</ele>
        <time>2019-07-26T15:18:51Z</time>
      </trkpt>
      <trkpt lat="43.546675" lon="-8.299681">
        <ele>36.10</ele>
        <time>2019-07-26T15:18:57Z</time>
      </trkpt>
      <trkpt lat="43.546489" lon="-8.299692">
        <ele>35.08</ele>
        <time>2019-07-26T15:19:05Z</time>
      </trkpt>
      <trkpt lat="43.546309" lon="-8.299798">
        <ele>35.07</ele>
        <time>2019-07-26T15:19:11Z</time>
      </trkpt>
      <trkpt lat="43.546141" lon="-8.299921">
        <ele>35.06</ele>
        <time>2019-07-26T15:19:17Z</time>
      </trkpt>
      <trkpt lat="43.545962" lon="-8.300034">
        <ele>34.07</ele>
        <time>2019-07-26T15:19:23Z</time>
      </trkpt>
      <trkpt lat="43.545784" lon="-8.300155">
        <ele>34.05</ele>
        <time>2019-07-26T15:19:29Z</time>
      </trkpt>
      <trkpt lat="43.545711" lon="-8.300411">
        <ele>33.03</ele>
        <time>2019-07-26T15:19:37Z</time>
      </trkpt>
      <trkpt lat="43.545668" lon="-8.300681">
        <ele>34.09</ele>
        <time>2019-07-26T15:19:45Z</time>
      </trkpt>
      <trkpt lat="43.545493" lon="-8.300829">
        <ele>34.02</ele>
        <time>2019-07-26T15:19:52Z</time>
      </trkpt>
      <trkpt lat="43.545326" lon="-8.300959">
        <ele>34.01</ele>
        <time>2019-07-26T15:19:58Z</time>
      </trkpt>
      <trkpt lat="43.545148" lon="-8.301055">
        <ele>35.02</ele>
        <time>2019-07-26T15:20:04Z</time>
      </trkpt>
      <trkpt lat="43.544970" lon="-8.301142">
        <ele>35.05</ele>
        <time>2019-07-26T15:20:10Z</time>
      </trkpt>
      <trkpt lat="43.544794" lon="-8.301232">
        <ele>34.06</ele>
        <time>2019-07-26T15:20:15Z</time>
      </trkpt>
      <trkpt lat="43.544610" lon="-8.301342">
        <ele>34.01</ele>
        <time>2019-07-26T15:20:20Z</time>
      </trkpt>
      <trkpt lat="43.544413" lon="-8.301425">
        <ele>33.07</ele>
        <time>2019-07-26T15:20:25Z</time>
      </trkpt>
      <trkpt lat="43.544230" lon="-8.301554">
        <ele>32.10</ele>
        <time>2019-07-26T15:20:30Z</time>
      </trkpt>
      <trkpt lat="43.544059" lon="-8.301730">
        <ele>30.08</ele>
        <time>2019-07-26T15:20:35Z</time>
      </trkpt>
      <trkpt lat="43.543898" lon="-8.301859">
        <ele>28.01</ele>
        <time>2019-07-26T15:20:40Z</time>
      </trkpt>
      <trkpt lat="43.543711" lon="-8.301977">
        <ele>27.08</ele>
        <time>2019-07-26T15:20:46Z</time>
      </trkpt>
      <trkpt lat="43.543515" lon="-8.302101">
        <ele>26.01</ele>
        <time>2019-07-26T15:20:52Z</time>
      </trkpt>
      <trkpt lat="43.543347" lon="-8.302198">
        <ele>24.02</ele>
        <time>2019-07-26T15:20:57Z</time>
      </trkpt>
      <trkpt lat="43.543154" lon="-8.302230">
        <ele>23.01</ele>
        <time>2019-07-26T15:21:04Z</time>
      </trkpt>
      <trkpt lat="43.543112" lon="-8.301950">
        <ele>19.05</ele>
        <time>2019-07-26T15:21:10Z</time>
      </trkpt>
      <trkpt lat="43.543119" lon="-8.301697">
        <ele>17.02</ele>
        <time>2019-07-26T15:21:14Z</time>
      </trkpt>
      <trkpt lat="43.543113" lon="-8.301381">
        <ele>15.03</ele>
        <time>2019-07-26T15:21:18Z</time>
      </trkpt>
      <trkpt lat="43.543143" lon="-8.301090">
        <ele>14.07</ele>
        <time>2019-07-26T15:21:22Z</time>
      </trkpt>
      <trkpt lat="43.543165" lon="-8.300843">
        <ele>15.10</ele>
        <time>2019-07-26T15:21:26Z</time>
      </trkpt>
      <trkpt lat="43.543140" lon="-8.300590">
        <ele>16.09</ele>
        <time>2019-07-26T15:21:32Z</time>
      </trkpt>
      <trkpt lat="43.543104" lon="-8.300324">
        <ele>16.04</ele>
        <time>2019-07-26T15:21:39Z</time>
      </trkpt>
      <trkpt lat="43.542940" lon="-8.300167">
        <ele>17.07</ele>
        <time>2019-07-26T15:21:47Z</time>
      </trkpt>
      <trkpt lat="43.542967" lon="-8.299908">
        <ele>18.08</ele>
        <time>2019-07-26T15:21:57Z</time>
      </trkpt>
      <trkpt lat="43.543012" lon="-8.299653">
        <ele>19.03</ele>
        <time>2019-07-26T15:22:06Z</time>
      </trkpt>
      <trkpt lat="43.543051" lon="-8.299387">
        <ele>20.03</ele>
        <time>2019-07-26T15:22:16Z</time>
      </trkpt>
      <trkpt lat="43.543083" lon="-8.299135">
        <ele>21.01</ele>
        <time>2019-07-26T15:22:25Z</time>
      </trkpt>
      <trkpt lat="43.543127" lon="-8.298879">
        <ele>21.05</ele>
        <time>2019-07-26T15:22:34Z</time>
      </trkpt>
      <trkpt lat="43.543187" lon="-8.298626">
        <ele>21.03</ele>
        <time>2019-07-26T15:22:42Z</time>
      </trkpt>
      <trkpt lat="43.543288" lon="-8.298417">
        <ele>20.06</ele>
        <time>2019-07-26T15:22:48Z</time>
      </trkpt>
      <trkpt lat="43.543335" lon="-8.298155">
        <ele>21.04</ele>
        <time>2019-07-26T15:22:55Z</time>
      </trkpt>
      <trkpt lat="43.543195" lon="-8.297981">
        <ele>21.06</ele>
        <time>2019-07-26T15:23:04Z</time>
      </trkpt>
      <trkpt lat="43.542993" lon="-8.298049">
        <ele>20.08</ele>
        <time>2019-07-26T15:23:11Z</time>
      </trkpt>
      <trkpt lat="43.542832" lon="-8.298207">
        <ele>19.04</ele>
        <time>2019-07-26T15:23:17Z</time>
      </trkpt>
      <trkpt lat="43.542701" lon="-8.298387">
        <ele>18.08</ele>
        <time>2019-07-26T15:23:24Z</time>
      </trkpt>
      <trkpt lat="43.542580" lon="-8.298187">
        <ele>18.08</ele>
        <time>2019-07-26T15:23:46Z</time>
      </trkpt>
      <trkpt lat="43.542453" lon="-8.298000">
        <ele>16.06</ele>
        <time>2019-07-26T15:23:53Z</time>
      </trkpt>
      <trkpt lat="43.542257" lon="-8.297995">
        <ele>15.02</ele>
        <time>2019-07-26T15:24:00Z</time>
      </trkpt>
      <trkpt lat="43.542096" lon="-8.298151">
        <ele>13.01</ele>
        <time>2019-07-26T15:24:07Z</time>
      </trkpt>
      <trkpt lat="43.541935" lon="-8.298273">
        <ele>10.02</ele>
        <time>2019-07-26T15:24:14Z</time>
      </trkpt>
      <trkpt lat="43.541740" lon="-8.298166">
        <ele>7.04</ele>
        <time>2019-07-26T15:24:22Z</time>
      </trkpt>
      <trkpt lat="43.541596" lon="-8.298014">
        <ele>7.10</ele>
        <time>2019-07-26T15:24:36Z</time>
      </trkpt>
      <trkpt lat="43.541430" lon="-8.297898">
        <ele>10.09</ele>
        <time>2019-07-26T15:25:49Z</time>
      </trkpt>
      <trkpt lat="43.541282" lon="-8.297741">
        <ele>11.07</ele>
        <time>2019-07-26T15:26:08Z</time>
      </trkpt>
      <trkpt lat="43.541095" lon="-8.297641">
        <ele>11.06</ele>
        <time>2019-07-26T15:26:26Z</time>
      </trkpt>
      <trkpt lat="43.540940" lon="-8.297470">
        <ele>11.09</ele>
        <time>2019-07-26T15:26:36Z</time>
      </trkpt>
      <trkpt lat="43.540861" lon="-8.297232">
        <ele>13.06</ele>
        <time>2019-07-26T15:26:45Z</time>
      </trkpt>
      <trkpt lat="43.540749" lon="-8.297022">
        <ele>12.06</ele>
        <time>2019-07-26T15:26:55Z</time>
      </trkpt>
      <trkpt lat="43.540701" lon="-8.296759">
        <ele>13.01</ele>
        <time>2019-07-26T15:27:06Z</time>
      </trkpt>
      <trkpt lat="43.540707" lon="-8.296511">
        <ele>14.02</ele>
        <time>2019-07-26T15:27:15Z</time>
      </trkpt>
      <trkpt lat="43.540734" lon="-8.296260">
        <ele>16.01</ele>
        <time>2019-07-26T15:27:24Z</time>
      </trkpt>
      <trkpt lat="43.540687" lon="-8.296015">
        <ele>18.10</ele>
        <time>2019-07-26T15:27:33Z</time>
      </trkpt>
      <trkpt lat="43.540770" lon="-8.295783">
        <ele>17.07</ele>
        <time>2019-07-26T15:27:42Z</time>
      </trkpt>
      <trkpt lat="43.540883" lon="-8.295576">
        <ele>18.08</ele>
        <time>2019-07-26T15:27:51Z</time>
      </trkpt>
      <trkpt lat="43.540992" lon="-8.295363">
        <ele>20.10</ele>
        <time>2019-07-26T15:28:00Z</time>
      </trkpt>
      <trkpt lat="43.541115" lon="-8.295167">
        <ele>21.06</ele>
        <time>2019-07-26T15:28:09Z</time>
      </trkpt>
      <trkpt lat="43.541224" lon="-8.294964">
        <ele>22.08</ele>
        <time>2019-07-26T15:28:18Z</time>
      </trkpt>
      <trkpt lat="43.541347" lon="-8.294759">
        <ele>23.03</ele>
        <time>2019-07-26T15:28:27Z</time>
      </trkpt>
      <trkpt lat="43.541271" lon="-8.294518">
        <ele>24.05</ele>
        <time>2019-07-26T15:28:45Z</time>
      </trkpt>
      <trkpt lat="43.541099" lon="-8.294422">
        <ele>24.05</ele>
        <time>2019-07-26T15:28:52Z</time>
      </trkpt>
      <trkpt lat="43.540911" lon="-8.294311">
        <ele>24.09</ele>
        <time>2019-07-26T15:28:59Z</time>
      </trkpt>
      <trkpt lat="43.540734" lon="-8.294200">
        <ele>24.02</ele>
        <time>2019-07-26T15:29:06Z</time>
      </trkpt>
      <trkpt lat="43.540554" lon="-8.294086">
        <ele>24.01</ele>
        <time>2019-07-26T15:29:13Z</time>
      </trkpt>
      <trkpt lat="43.540371" lon="-8.293980">
        <ele>25.02</ele>
        <time>2019-07-26T15:29:20Z</time>
      </trkpt>
      <trkpt lat="43.540197" lon="-8.293869">
        <ele>25.06</ele>
        <time>2019-07-26T15:29:27Z</time>
      </trkpt>
      <trkpt lat="43.540018" lon="-8.293751">
        <ele>25.06</ele>
        <time>2019-07-26T15:29:34Z</time>
      </trkpt>
      <trkpt lat="43.539834" lon="-8.293648">
        <ele>26.05</ele>
        <time>2019-07-26T15:29:41Z</time>
      </trkpt>
      <trkpt lat="43.539662" lon="-8.293542">
        <ele>26.03</ele>
        <time>2019-07-26T15:29:49Z</time>
      </trkpt>
      <trkpt lat="43.539502" lon="-8.293451">
        <ele>24.02</ele>
        <time>2019-07-26T15:30:00Z</time>
      </trkpt>
      <trkpt lat="43.539262" lon="-8.293321">
        <ele>23.10</ele>
        <time>2019-07-26T15:30:08Z</time>
      </trkpt>
      <trkpt lat="43.539085" lon="-8.293202">
        <ele>22.09</ele>
        <time>2019-07-26T15:30:16Z</time>
      </trkpt>
      <trkpt lat="43.538873" lon="-8.293055">
        <ele>26.01</ele>
        <time>2019-07-26T16:06:05Z</time>
      </trkpt>
      <trkpt lat="43.538656" lon="-8.292936">
        <ele>25.05</ele>
        <time>2019-07-26T16:06:30Z</time>
      </trkpt>
      <trkpt lat="43.538432" lon="-8.292817">
        <ele>25.01</ele>
        <time>2019-07-26T16:06:47Z</time>
      </trkpt>
      <trkpt lat="43.538224" lon="-8.292735">
        <ele>25.01</ele>
        <time>2019-07-26T16:07:02Z</time>
      </trkpt>
      <trkpt lat="43.538007" lon="-8.292627">
        <ele>30.08</ele>
        <time>2019-07-26T16:07:26Z</time>
      </trkpt>
      <trkpt lat="43.537748" lon="-8.292534">
        <ele>30.08</ele>
        <time>2019-07-26T16:07:46Z</time>
      </trkpt>
      <trkpt lat="43.537689" lon="-8.292512">
        <ele>0.00</ele>
        <time>2021-07-20T18:58:34Z</time>
      </trkpt>
      <trkpt lat="43.536797" lon="-8.292184">
        <ele>0.00</ele>
        <time>2021-07-20T18:58:49.69Z</time>
      </trkpt>
      <trkpt lat="43.535930" lon="-8.291864">
        <ele>0.00</ele>
        <time>2021-07-20T18:59:04.92Z</time>
      </trkpt>
      <trkpt lat="43.535066" lon="-8.291546">
        <ele>0.00</ele>
        <time>2021-07-20T18:59:20.11Z</time>
      </trkpt>
      <trkpt lat="43.534372" lon="-8.291291">
        <ele>0.00</ele>
        <time>2021-07-20T18:59:32.30Z</time>
      </trkpt>
      <trkpt lat="43.533604" lon="-8.291008">
        <ele>0.00</ele>
        <time>2021-07-20T18:59:45.80Z</time>
      </trkpt>
      <trkpt lat="43.532854" lon="-8.290732">
        <ele>0.00</ele>
        <time>2021-07-20T18:59:59Z</time>
      </trkpt>
      <trkpt lat="43.532447" lon="-8.290609">
        <ele>0.00</ele>
        <time>2021-07-20T19:00:08Z</time>
      </trkpt>
      <trkpt lat="43.532216" lon="-8.290590">
        <ele>0.00</ele>
        <time>2021-07-20T19:00:13Z</time>
      </trkpt>
      <trkpt lat="43.531940" lon="-8.290636">
        <ele>0.00</ele>
        <time>2021-07-20T19:00:20Z</time>
      </trkpt>
      <trkpt lat="43.531761" lon="-8.290715">
        <ele>0.00</ele>
        <time>2021-07-20T19:00:24Z</time>
      </trkpt>
      <trkpt lat="43.531521" lon="-8.290880">
        <ele>0.00</ele>
        <time>2021-07-20T19:00:30Z</time>
      </trkpt>
      <trkpt lat="43.530559" lon="-8.291630">
        <ele>0.00</ele>
        <time>2021-07-20T19:00:54.17Z</time>
      </trkpt>
      <trkpt lat="43.529968" lon="-8.292090">
        <ele>0.00</ele>
        <time>2021-07-20T19:01:09Z</time>
      </trkpt>
      <trkpt lat="43.529948" lon="-8.292054">
        <ele>0.00</ele>
        <time>2021-07-20T19:01:10Z</time>
      </trkpt>
      <trkpt lat="43.528287" lon="-8.293364">
        <ele>0.00</ele>
        <time>2021-07-20T19:01:57Z</time>
      </trkpt>
      <trkpt lat="43.527805" lon="-8.293833">
        <ele>0.00</ele>
        <time>2021-07-20T19:02:12Z</time>
      </trkpt>
      <trkpt lat="43.527421" lon="-8.294280">
        <ele>0.00</ele>
        <time>2021-07-20T19:02:24Z</time>
      </trkpt>
      <trkpt lat="43.525463" lon="-8.296721">
        <ele>0.00</ele>
        <time>2021-07-20T19:03:29Z</time>
      </trkpt>
      <trkpt lat="43.525071" lon="-8.297144">
        <ele>0.00</ele>
        <time>2021-07-20T19:03:41Z</time>
      </trkpt>
      <trkpt lat="43.524602" lon="-8.297521">
        <ele>0.00</ele>
        <time>2021-07-20T19:03:55Z</time>
      </trkpt>
      <trkpt lat="43.523155" lon="-8.298393">
        <ele>0.00</ele>
        <time>2021-07-20T19:04:34Z</time>
      </trkpt>
      <trkpt lat="43.521662" lon="-8.299257">
        <ele>0.00</ele>
        <time>2021-07-20T19:05:14Z</time>
      </trkpt>
      <trkpt lat="43.521122" lon="-8.299552">
        <ele>0.00</ele>
        <time>2021-07-20T19:05:28Z</time>
      </trkpt>
      <trkpt lat="43.518415" lon="-8.300936">
        <ele>0.00</ele>
        <time>2021-07-20T19:06:39Z</time>
      </trkpt>
      <trkpt lat="43.517139" lon="-8.301654">
        <ele>0.00</ele>
        <time>2021-07-20T19:07:13Z</time>
      </trkpt>
      <trkpt lat="43.516305" lon="-8.302162">
        <ele>0.00</ele>
        <time>2021-07-20T19:07:35Z</time>
      </trkpt>
      <trkpt lat="43.515115" lon="-8.303019">
        <ele>0.00</ele>
        <time>2021-07-20T19:08:08Z</time>
      </trkpt>
      <trkpt lat="43.514779" lon="-8.303234">
        <ele>0.00</ele>
        <time>2021-07-20T19:08:18Z</time>
      </trkpt>
      <trkpt lat="43.514000" lon="-8.303575">
        <ele>0.00</ele>
        <time>2021-07-20T19:08:38Z</time>
      </trkpt>
      <trkpt lat="43.512528" lon="-8.304230">
        <ele>0.00</ele>
        <time>2021-07-20T19:09:12Z</time>
      </trkpt>
      <trkpt lat="43.512352" lon="-8.304349">
        <ele>0.00</ele>
        <time>2021-07-20T19:09:17Z</time>
      </trkpt>
      <trkpt lat="43.512422" lon="-8.304552">
        <ele>0.00</ele>
        <time>2021-07-20T19:09:20Z</time>
      </trkpt>
      <trkpt lat="43.512437" lon="-8.304727">
        <ele>0.00</ele>
        <time>2021-07-20T19:09:23Z</time>
      </trkpt>
      <trkpt lat="43.512422" lon="-8.304552">
        <ele>0.00</ele>
        <time>2021-07-20T19:09:27Z</time>
      </trkpt>
      <trkpt lat="43.512352" lon="-8.304349">
        <ele>0.00</ele>
        <time>2021-07-20T19:09:32Z</time>
      </trkpt>
      <trkpt lat="43.512220" lon="-8.304133">
        <ele>0.00</ele>
        <time>2021-07-20T19:09:38Z</time>
      </trkpt>
      <trkpt lat="43.512108" lon="-8.304007">
        <ele>0.00</ele>
        <time>2021-07-20T19:09:43Z</time>
      </trkpt>
      <trkpt lat="43.510947" lon="-8.304470">
        <ele>0.00</ele>
        <time>2021-07-20T19:10:19Z</time>
      </trkpt>
      <trkpt lat="43.510197" lon="-8.304419">
        <ele>0.00</ele>
        <time>2021-07-20T19:10:42Z</time>
      </trkpt>
      <trkpt lat="43.509553" lon="-8.304554">
        <ele>0.00</ele>
        <time>2021-07-20T19:11:01Z</time>
      </trkpt>
      <trkpt lat="43.509409" lon="-8.304629">
        <ele>0.00</ele>
        <time>2021-07-20T19:11:06Z</time>
      </trkpt>
      <trkpt lat="43.509203" lon="-8.304817">
        <ele>0.00</ele>
        <time>2021-07-20T19:11:13Z</time>
      </trkpt>
      <trkpt lat="43.508965" lon="-8.305230">
        <ele>0.00</ele>
        <time>2021-07-20T19:11:25Z</time>
      </trkpt>
      <trkpt lat="43.508867" lon="-8.305348">
        <ele>0.00</ele>
        <time>2021-07-20T19:11:29Z</time>
      </trkpt>
      <trkpt lat="43.508512" lon="-8.305682">
        <ele>0.00</ele>
        <time>2021-07-20T19:11:42Z</time>
      </trkpt>
      <trkpt lat="43.508433" lon="-8.305770">
        <ele>0.00</ele>
        <time>2021-07-20T19:11:45Z</time>
      </trkpt>
      <trkpt lat="43.508376" lon="-8.305882">
        <ele>0.00</ele>
        <time>2021-07-20T19:11:48Z</time>
      </trkpt>
      <trkpt lat="43.508325" lon="-8.306029">
        <ele>0.00</ele>
        <time>2021-07-20T19:11:51Z</time>
      </trkpt>
      <trkpt lat="43.508098" lon="-8.307131">
        <ele>0.00</ele>
        <time>2021-07-20T19:12:17Z</time>
      </trkpt>
      <trkpt lat="43.507915" lon="-8.308217">
        <ele>0.00</ele>
        <time>2021-07-20T19:12:41Z</time>
      </trkpt>
      <trkpt lat="43.507828" lon="-8.308509">
        <ele>0.00</ele>
        <time>2021-07-20T19:12:48Z</time>
      </trkpt>
      <trkpt lat="43.507711" lon="-8.308676">
        <ele>0.00</ele>
        <time>2021-07-20T19:12:53Z</time>
      </trkpt>
      <trkpt lat="43.507609" lon="-8.308820">
        <ele>0.00</ele>
        <time>2021-07-20T19:12:57Z</time>
      </trkpt>
      <trkpt lat="43.507144" lon="-8.308981">
        <ele>0.00</ele>
        <time>2021-07-20T19:13:10Z</time>
      </trkpt>
      <trkpt lat="43.506940" lon="-8.309166">
        <ele>0.00</ele>
        <time>2021-07-20T19:13:16Z</time>
      </trkpt>
      <trkpt lat="43.506710" lon="-8.309455">
        <ele>0.00</ele>
        <time>2021-07-20T19:13:24Z</time>
      </trkpt>
      <trkpt lat="43.506486" lon="-8.309804">
        <ele>0.00</ele>
        <time>2021-07-20T19:13:33Z</time>
      </trkpt>
      <trkpt lat="43.505636" lon="-8.311273">
        <ele>0.00</ele>
        <time>2021-07-20T19:14:09Z</time>
      </trkpt>
      <trkpt lat="43.505406" lon="-8.311474">
        <ele>0.00</ele>
        <time>2021-07-20T19:14:16Z</time>
      </trkpt>
      <trkpt lat="43.505118" lon="-8.311632">
        <ele>0.00</ele>
        <time>2021-07-20T19:14:24Z</time>
      </trkpt>
      <trkpt lat="43.504418" lon="-8.311771">
        <ele>0.00</ele>
        <time>2021-07-20T19:14:43Z</time>
      </trkpt>
      <trkpt lat="43.503593" lon="-8.311602">
        <ele>0.00</ele>
        <time>2021-07-20T19:15:05Z</time>
      </trkpt>
      <trkpt lat="43.502701" lon="-8.311480">
        <ele>0.00</ele>
        <time>2021-07-20T19:15:29Z</time>
      </trkpt>
      <trkpt lat="43.502474" lon="-8.311326">
        <ele>0.00</ele>
        <time>2021-07-20T19:15:36Z</time>
      </trkpt>
      <trkpt lat="43.502164" lon="-8.311025">
        <ele>0.00</ele>
        <time>2021-07-20T19:15:46Z</time>
      </trkpt>
      <trkpt lat="43.501844" lon="-8.310892">
        <ele>0.00</ele>
        <time>2021-07-20T19:15:54Z</time>
      </trkpt>
      <trkpt lat="43.500790" lon="-8.310663">
        <ele>0.00</ele>
        <time>2021-07-20T19:16:23Z</time>
      </trkpt>
      <trkpt lat="43.500562" lon="-8.310671">
        <ele>0.00</ele>
        <time>2021-07-20T19:16:29Z</time>
      </trkpt>
      <trkpt lat="43.500308" lon="-8.310726">
        <ele>0.00</ele>
        <time>2021-07-20T19:16:35Z</time>
      </trkpt>
      <trkpt lat="43.500010" lon="-8.310731">
        <ele>0.00</ele>
        <time>2021-07-20T19:16:43Z</time>
      </trkpt>
      <trkpt lat="43.499418" lon="-8.310632">
        <ele>0.00</ele>
        <time>2021-07-20T19:16:59Z</time>
      </trkpt>
      <trkpt lat="43.499214" lon="-8.310653">
        <ele>0.00</ele>
        <time>2021-07-20T19:17:04Z</time>
      </trkpt>
      <trkpt lat="43.499046" lon="-8.310764">
        <ele>0.00</ele>
        <time>2021-07-20T19:17:09Z</time>
      </trkpt>
      <trkpt lat="43.498940" lon="-8.310882">
        <ele>0.00</ele>
        <time>2021-07-20T19:17:13Z</time>
      </trkpt>
      <trkpt lat="43.498867" lon="-8.311025">
        <ele>0.00</ele>
        <time>2021-07-20T19:17:16Z</time>
      </trkpt>
      <trkpt lat="43.498677" lon="-8.311513">
        <ele>0.00</ele>
        <time>2021-07-20T19:17:27Z</time>
      </trkpt>
      <trkpt lat="43.498545" lon="-8.311714">
        <ele>0.00</ele>
        <time>2021-07-20T19:17:32Z</time>
      </trkpt>
      <trkpt lat="43.498293" lon="-8.311876">
        <ele>0.00</ele>
        <time>2021-07-20T19:17:39Z</time>
      </trkpt>
      <trkpt lat="43.498248" lon="-8.311981">
        <ele>0.00</ele>
        <time>2021-07-20T19:17:42Z</time>
      </trkpt>
      <trkpt lat="43.498178" lon="-8.312034">
        <ele>0.00</ele>
        <time>2021-07-20T19:17:44Z</time>
      </trkpt>
      <trkpt lat="43.498100" lon="-8.312050">
        <ele>0.00</ele>
        <time>2021-07-20T19:17:46Z</time>
      </trkpt>
      <trkpt lat="43.498052" lon="-8.312152">
        <ele>0.00</ele>
        <time>2021-07-20T19:17:49Z</time>
      </trkpt>
      <trkpt lat="43.497764" lon="-8.312432">
        <ele>0.00</ele>
        <time>2021-07-20T19:18:01Z</time>
      </trkpt>
      <trkpt lat="43.497684" lon="-8.313264">
        <ele>0.00</ele>
        <time>2021-07-20T19:18:16Z</time>
      </trkpt>
      <trkpt lat="43.497115" lon="-8.313302">
        <ele>0.00</ele>
        <time>2021-07-20T19:18:29Z</time>
      </trkpt>
      <trkpt lat="43.496935" lon="-8.313186">
        <ele>0.00</ele>
        <time>2021-07-20T19:18:34Z</time>
      </trkpt>
      <trkpt lat="43.496661" lon="-8.312786">
        <ele>0.00</ele>
        <time>2021-07-20T19:18:43Z</time>
      </trkpt>
      <trkpt lat="43.496497" lon="-8.312216">
        <ele>0.00</ele>
        <time>2021-07-20T19:18:54Z</time>
      </trkpt>
      <trkpt lat="43.496393" lon="-8.312058">
        <ele>0.00</ele>
        <time>2021-07-20T19:18:57Z</time>
      </trkpt>
      <trkpt lat="43.496330" lon="-8.311994">
        <ele>0.00</ele>
        <time>2021-07-20T19:18:59Z</time>
      </trkpt>
      <trkpt lat="43.495826" lon="-8.311626">
        <ele>0.00</ele>
        <time>2021-07-20T19:19:12Z</time>
      </trkpt>
      <trkpt lat="43.495290" lon="-8.311486">
        <ele>0.00</ele>
        <time>2021-07-20T19:19:25Z</time>
      </trkpt>
      <trkpt lat="43.495119" lon="-8.311360">
        <ele>0.00</ele>
        <time>2021-07-20T19:19:30Z</time>
      </trkpt>
      <trkpt lat="43.494850" lon="-8.310955">
        <ele>0.00</ele>
        <time>2021-07-20T19:19:39Z</time>
      </trkpt>
      <trkpt lat="43.494721" lon="-8.310689">
        <ele>0.00</ele>
        <time>2021-07-20T19:19:44Z</time>
      </trkpt>
      <trkpt lat="43.494287" lon="-8.309402">
        <ele>0.00</ele>
        <time>2021-07-20T19:20:08Z</time>
      </trkpt>
      <trkpt lat="43.494214" lon="-8.309186">
        <ele>0.00</ele>
        <time>2021-07-20T19:20:12Z</time>
      </trkpt>
      <trkpt lat="43.494015" lon="-8.308260">
        <ele>0.00</ele>
        <time>2021-07-20T19:20:29Z</time>
      </trkpt>
      <trkpt lat="43.493909" lon="-8.308027">
        <ele>0.00</ele>
        <time>2021-07-20T19:20:34Z</time>
      </trkpt>
      <trkpt lat="43.493677" lon="-8.307693">
        <ele>0.00</ele>
        <time>2021-07-20T19:20:42Z</time>
      </trkpt>
      <trkpt lat="43.493579" lon="-8.307429">
        <ele>0.00</ele>
        <time>2021-07-20T19:20:47Z</time>
      </trkpt>
      <trkpt lat="43.493317" lon="-8.306520">
        <ele>0.00</ele>
        <time>2021-07-20T19:21:04Z</time>
      </trkpt>
      <trkpt lat="43.492977" lon="-8.304773">
        <ele>0.00</ele>
        <time>2021-07-20T19:21:35Z</time>
      </trkpt>
      <trkpt lat="43.492853" lon="-8.304412">
        <ele>0.00</ele>
        <time>2021-07-20T19:21:42Z</time>
      </trkpt>
      <trkpt lat="43.492593" lon="-8.303903">
        <ele>0.00</ele>
        <time>2021-07-20T19:21:52Z</time>
      </trkpt>
      <trkpt lat="43.492295" lon="-8.303513">
        <ele>0.00</ele>
        <time>2021-07-20T19:22:02Z</time>
      </trkpt>
      <trkpt lat="43.492120" lon="-8.303443">
        <ele>0.00</ele>
        <time>2021-07-20T19:22:06Z</time>
      </trkpt>
      <trkpt lat="43.491737" lon="-8.303489">
        <ele>0.00</ele>
        <time>2021-07-20T19:22:15Z</time>
      </trkpt>
      <trkpt lat="43.491514" lon="-8.303176">
        <ele>0.00</ele>
        <time>2021-07-20T19:22:23Z</time>
      </trkpt>
      <trkpt lat="43.491360" lon="-8.302988">
        <ele>0.00</ele>
        <time>2021-07-20T19:22:28Z</time>
      </trkpt>
      <trkpt lat="43.491374" lon="-8.302576">
        <ele>0.00</ele>
        <time>2021-07-20T19:22:41Z</time>
      </trkpt>
      <trkpt lat="43.491435" lon="-8.302086">
        <ele>0.00</ele>
        <time>2021-07-20T19:22:58Z</time>
      </trkpt>
      <trkpt lat="43.491457" lon="-8.301615">
        <ele>0.00</ele>
        <time>2021-07-20T19:23:13Z</time>
      </trkpt>
      <trkpt lat="43.491444" lon="-8.301439">
        <ele>0.00</ele>
        <time>2021-07-20T19:23:19Z</time>
      </trkpt>
      <trkpt lat="43.491393" lon="-8.301164">
        <ele>0.00</ele>
        <time>2021-07-20T19:23:28Z</time>
      </trkpt>
      <trkpt lat="43.491241" lon="-8.300802">
        <ele>0.00</ele>
        <time>2021-07-20T19:23:42Z</time>
      </trkpt>
      <trkpt lat="43.491083" lon="-8.300575">
        <ele>0.00</ele>
        <time>2021-07-20T19:23:52Z</time>
      </trkpt>
      <trkpt lat="43.490964" lon="-8.300149">
        <ele>0.00</ele>
        <time>2021-07-20T19:24:07Z</time>
      </trkpt>
      <trkpt lat="43.490854" lon="-8.299874">
        <ele>0.00</ele>
        <time>2021-07-20T19:24:17Z</time>
      </trkpt>
      <trkpt lat="43.490727" lon="-8.299223">
        <ele>0.00</ele>
        <time>2021-07-20T19:24:39Z</time>
      </trkpt>
      <trkpt lat="43.490603" lon="-8.298979">
        <ele>0.00</ele>
        <time>2021-07-20T19:24:49Z</time>
      </trkpt>
      <trkpt lat="43.490554" lon="-8.298838">
        <ele>0.00</ele>
        <time>2021-07-20T19:24:54Z</time>
      </trkpt>
      <trkpt lat="43.490523" lon="-8.298667">
        <ele>0.00</ele>
        <time>2021-07-20T19:25:00Z</time>
      </trkpt>
      <trkpt lat="43.490505" lon="-8.297992">
        <ele>0.00</ele>
        <time>2021-07-20T19:25:22Z</time>
      </trkpt>
      <trkpt lat="43.490716" lon="-8.297343">
        <ele>0.00</ele>
        <time>2021-07-20T19:25:45Z</time>
      </trkpt>
      <trkpt lat="43.490756" lon="-8.296796">
        <ele>0.00</ele>
        <time>2021-07-20T19:26:03Z</time>
      </trkpt>
      <trkpt lat="43.490605" lon="-8.295862">
        <ele>0.00</ele>
        <time>2021-07-20T19:26:18Z</time>
      </trkpt>
      <trkpt lat="43.490634" lon="-8.295354">
        <ele>0.00</ele>
        <time>2021-07-20T19:26:26Z</time>
      </trkpt>
      <trkpt lat="43.490788" lon="-8.294942">
        <ele>0.00</ele>
        <time>2021-07-20T19:26:34Z</time>
      </trkpt>
      <trkpt lat="43.490877" lon="-8.294612">
        <ele>0.00</ele>
        <time>2021-07-20T19:26:40Z</time>
      </trkpt>
      <trkpt lat="43.490936" lon="-8.294487">
        <ele>0.00</ele>
        <time>2021-07-20T19:26:42Z</time>
      </trkpt>
      <trkpt lat="43.490975" lon="-8.294349">
        <ele>0.00</ele>
        <time>2021-07-20T19:26:44Z</time>
      </trkpt>
      <trkpt lat="43.491016" lon="-8.294174">
        <ele>0.00</ele>
        <time>2021-07-20T19:26:47Z</time>
      </trkpt>
      <trkpt lat="43.490835" lon="-8.293990">
        <ele>0.00</ele>
        <time>2021-07-20T19:26:55Z</time>
      </trkpt>
      <trkpt lat="43.490765" lon="-8.293869">
        <ele>0.00</ele>
        <time>2021-07-20T19:26:59Z</time>
      </trkpt>
      <trkpt lat="43.490719" lon="-8.293821">
        <ele>0.00</ele>
        <time>2021-07-20T19:27:01Z</time>
      </trkpt>
      <trkpt lat="43.490670" lon="-8.293821">
        <ele>0.00</ele>
        <time>2021-07-20T19:27:03Z</time>
      </trkpt>
      <trkpt lat="43.490594" lon="-8.293859">
        <ele>0.00</ele>
        <time>2021-07-20T19:27:05Z</time>
      </trkpt>
      <trkpt lat="43.490379" lon="-8.294087">
        <ele>0.00</ele>
        <time>2021-07-20T19:27:15Z</time>
      </trkpt>
      <trkpt lat="43.490350" lon="-8.293190">
        <ele>0.00</ele>
        <time>2021-07-20T19:27:34Z</time>
      </trkpt>
      <trkpt lat="43.490493" lon="-8.292289">
        <ele>0.00</ele>
        <time>2021-07-20T19:27:53Z</time>
      </trkpt>
      <trkpt lat="43.490544" lon="-8.292039">
        <ele>0.00</ele>
        <time>2021-07-20T19:27:58Z</time>
      </trkpt>
      <trkpt lat="43.490716" lon="-8.291410">
        <ele>0.00</ele>
        <time>2021-07-20T19:28:12Z</time>
      </trkpt>
      <trkpt lat="43.491020" lon="-8.290392">
        <ele>0.00</ele>
        <time>2021-07-20T19:28:35Z</time>
      </trkpt>
      <trkpt lat="43.491066" lon="-8.290017">
        <ele>0.00</ele>
        <time>2021-07-20T19:28:42Z</time>
      </trkpt>
      <trkpt lat="43.491076" lon="-8.289750">
        <ele>0.00</ele>
        <time>2021-07-20T19:28:48Z</time>
      </trkpt>
      <trkpt lat="43.491136" lon="-8.289424">
        <ele>0.00</ele>
        <time>2021-07-20T19:28:55Z</time>
      </trkpt>
      <trkpt lat="43.491245" lon="-8.289102">
        <ele>0.00</ele>
        <time>2021-07-20T19:29:03Z</time>
      </trkpt>
      <trkpt lat="43.491438" lon="-8.288758">
        <ele>0.00</ele>
        <time>2021-07-20T19:29:12Z</time>
      </trkpt>
      <trkpt lat="43.491996" lon="-8.288191">
        <ele>0.00</ele>
        <time>2021-07-20T19:29:31Z</time>
      </trkpt>
      <trkpt lat="43.492080" lon="-8.288037">
        <ele>0.00</ele>
        <time>2021-07-20T19:29:34Z</time>
      </trkpt>
      <trkpt lat="43.492127" lon="-8.287909">
        <ele>0.00</ele>
        <time>2021-07-20T19:29:37Z</time>
      </trkpt>
      <trkpt lat="43.492132" lon="-8.287845">
        <ele>0.00</ele>
        <time>2021-07-20T19:29:38Z</time>
      </trkpt>
      <trkpt lat="43.492179" lon="-8.287750">
        <ele>0.00</ele>
        <time>2021-07-20T19:29:41Z</time>
      </trkpt>
      <trkpt lat="43.492219" lon="-8.287721">
        <ele>0.00</ele>
        <time>2021-07-20T19:29:43Z</time>
      </trkpt>
      <trkpt lat="43.492438" lon="-8.287691">
        <ele>0.00</ele>
        <time>2021-07-20T19:29:50Z</time>
      </trkpt>
      <trkpt lat="43.492596" lon="-8.287597">
        <ele>0.00</ele>
        <time>2021-07-20T19:29:56Z</time>
      </trkpt>
      <trkpt lat="43.493909" lon="-8.286316">
        <ele>0.00</ele>
        <time>2021-07-20T19:30:50Z</time>
      </trkpt>
      <trkpt lat="43.494119" lon="-8.286035">
        <ele>0.00</ele>
        <time>2021-07-20T19:31:00Z</time>
      </trkpt>
      <trkpt lat="43.494300" lon="-8.285707">
        <ele>0.00</ele>
        <time>2021-07-20T19:31:10Z</time>
      </trkpt>
      <trkpt lat="43.494437" lon="-8.285364">
        <ele>0.00</ele>
        <time>2021-07-20T19:31:19Z</time>
      </trkpt>
      <trkpt lat="43.494536" lon="-8.284975">
        <ele>0.00</ele>
        <time>2021-07-20T19:31:29Z</time>
      </trkpt>
      <trkpt lat="43.494680" lon="-8.284262">
        <ele>0.00</ele>
        <time>2021-07-20T19:31:47Z</time>
      </trkpt>
      <trkpt lat="43.494777" lon="-8.283680">
        <ele>0.00</ele>
        <time>2021-07-20T19:32:02Z</time>
      </trkpt>
      <trkpt lat="43.494769" lon="-8.283240">
        <ele>0.00</ele>
        <time>2021-07-20T19:32:13Z</time>
      </trkpt>
      <trkpt lat="43.494576" lon="-8.281733">
        <ele>0.00</ele>
        <time>2021-07-20T19:32:50Z</time>
      </trkpt>
      <trkpt lat="43.494587" lon="-8.281427">
        <ele>0.00</ele>
        <time>2021-07-20T19:32:58Z</time>
      </trkpt>
      <trkpt lat="43.494652" lon="-8.280952">
        <ele>0.00</ele>
        <time>2021-07-20T19:33:09Z</time>
      </trkpt>
      <trkpt lat="43.494837" lon="-8.280576">
        <ele>0.00</ele>
        <time>2021-07-20T19:33:20Z</time>
      </trkpt>
      <trkpt lat="43.495414" lon="-8.279108">
        <ele>0.00</ele>
        <time>2021-07-20T19:34:01Z</time>
      </trkpt>
      <trkpt lat="43.495971" lon="-8.278117">
        <ele>0.00</ele>
        <time>2021-07-20T19:34:31Z</time>
      </trkpt>
      <trkpt lat="43.496011" lon="-8.277770">
        <ele>0.00</ele>
        <time>2021-07-20T19:34:40Z</time>
      </trkpt>
      <trkpt lat="43.496045" lon="-8.276966">
        <ele>0.00</ele>
        <time>2021-07-20T19:35:00Z</time>
      </trkpt>
      <trkpt lat="43.496031" lon="-8.276910">
        <ele>0.00</ele>
        <time>2021-07-20T19:35:01Z</time>
      </trkpt>
      <trkpt lat="43.496074" lon="-8.276542">
        <ele>0.00</ele>
        <time>2021-07-20T19:35:07Z</time>
      </trkpt>
      <trkpt lat="43.496085" lon="-8.276447">
        <ele>0.00</ele>
        <time>2021-07-20T19:35:08Z</time>
      </trkpt>
      <trkpt lat="43.496069" lon="-8.276386">
        <ele>0.00</ele>
        <time>2021-07-20T19:35:09Z</time>
      </trkpt>
      <trkpt lat="43.496071" lon="-8.276285">
        <ele>0.00</ele>
        <time>2021-07-20T19:35:11Z</time>
      </trkpt>
      <trkpt lat="43.496095" lon="-8.276135">
        <ele>0.00</ele>
        <time>2021-07-20T19:35:13Z</time>
      </trkpt>
      <trkpt lat="43.496122" lon="-8.276107">
        <ele>0.00</ele>
        <time>2021-07-20T19:35:14Z</time>
      </trkpt>
      <trkpt lat="43.497011" lon="-8.274252">
        <ele>0.00</ele>
        <time>2021-07-20T19:35:50Z</time>
      </trkpt>
      <trkpt lat="43.497063" lon="-8.274096">
        <ele>0.00</ele>
        <time>2021-07-20T19:35:53Z</time>
      </trkpt>
      <trkpt lat="43.497109" lon="-8.273746">
        <ele>0.00</ele>
        <time>2021-07-20T19:35:59Z</time>
      </trkpt>
      <trkpt lat="43.497154" lon="-8.272702">
        <ele>0.00</ele>
        <time>2021-07-20T19:36:16Z</time>
      </trkpt>
      <trkpt lat="43.497126" lon="-8.272444">
        <ele>0.00</ele>
        <time>2021-07-20T19:36:20Z</time>
      </trkpt>
      <trkpt lat="43.497080" lon="-8.272238">
        <ele>0.00</ele>
        <time>2021-07-20T19:36:23Z</time>
      </trkpt>
      <trkpt lat="43.496599" lon="-8.270910">
        <ele>0.00</ele>
        <time>2021-07-20T19:36:47Z</time>
      </trkpt>
      <trkpt lat="43.496540" lon="-8.270786">
        <ele>0.00</ele>
        <time>2021-07-20T19:36:50Z</time>
      </trkpt>
      <trkpt lat="43.496458" lon="-8.270666">
        <ele>0.00</ele>
        <time>2021-07-20T19:36:52Z</time>
      </trkpt>
      <trkpt lat="43.496000" lon="-8.270104">
        <ele>0.00</ele>
        <time>2021-07-20T19:37:06Z</time>
      </trkpt>
      <trkpt lat="43.495945" lon="-8.269999">
        <ele>0.00</ele>
        <time>2021-07-20T19:37:08Z</time>
      </trkpt>
      <trkpt lat="43.495917" lon="-8.269906">
        <ele>0.00</ele>
        <time>2021-07-20T19:37:10Z</time>
      </trkpt>
      <trkpt lat="43.495912" lon="-8.269757">
        <ele>0.00</ele>
        <time>2021-07-20T19:37:12Z</time>
      </trkpt>
      <trkpt lat="43.495959" lon="-8.269299">
        <ele>0.00</ele>
        <time>2021-07-20T19:37:20Z</time>
      </trkpt>
      <trkpt lat="43.496119" lon="-8.268247">
        <ele>0.00</ele>
        <time>2021-07-20T19:37:37Z</time>
      </trkpt>
      <trkpt lat="43.496077" lon="-8.267669">
        <ele>0.00</ele>
        <time>2021-07-20T19:37:46Z</time>
      </trkpt>
      <trkpt lat="43.495800" lon="-8.265703">
        <ele>0.00</ele>
        <time>2021-07-20T19:38:19Z</time>
      </trkpt>
      <trkpt lat="43.495801" lon="-8.265280">
        <ele>0.00</ele>
        <time>2021-07-20T19:38:25Z</time>
      </trkpt>
      <trkpt lat="43.496250" lon="-8.261028">
        <ele>0.00</ele>
        <time>2021-07-20T19:39:35Z</time>
      </trkpt>
      <trkpt lat="43.496268" lon="-8.260547">
        <ele>0.00</ele>
        <time>2021-07-20T19:39:43Z</time>
      </trkpt>
      <trkpt lat="43.496275" lon="-8.259628">
        <ele>0.00</ele>
        <time>2021-07-20T19:39:57Z</time>
      </trkpt>
      <trkpt lat="43.496266" lon="-8.259455">
        <ele>0.00</ele>
        <time>2021-07-20T19:40:00Z</time>
      </trkpt>
      <trkpt lat="43.496189" lon="-8.259103">
        <ele>0.00</ele>
        <time>2021-07-20T19:40:06Z</time>
      </trkpt>
      <trkpt lat="43.496146" lon="-8.258986">
        <ele>0.00</ele>
        <time>2021-07-20T19:40:09Z</time>
      </trkpt>
      <trkpt lat="43.496008" lon="-8.258575">
        <ele>0.00</ele>
        <time>2021-07-20T19:40:16Z</time>
      </trkpt>
      <trkpt lat="43.495971" lon="-8.258362">
        <ele>0.00</ele>
        <time>2021-07-20T19:40:20Z</time>
      </trkpt>
      <trkpt lat="43.495795" lon="-8.256818">
        <ele>0.00</ele>
        <time>2021-07-20T19:40:45Z</time>
      </trkpt>
      <trkpt lat="43.495805" lon="-8.256496">
        <ele>0.00</ele>
        <time>2021-07-20T19:40:50Z</time>
      </trkpt>
      <trkpt lat="43.495857" lon="-8.256070">
        <ele>0.00</ele>
        <time>2021-07-20T19:40:57Z</time>
      </trkpt>
      <trkpt lat="43.495852" lon="-8.255832">
        <ele>0.00</ele>
        <time>2021-07-20T19:41:01Z</time>
      </trkpt>
      <trkpt lat="43.495796" lon="-8.255320">
        <ele>0.00</ele>
        <time>2021-07-20T19:41:09Z</time>
      </trkpt>
      <trkpt lat="43.495792" lon="-8.254826">
        <ele>0.00</ele>
        <time>2021-07-20T19:41:17Z</time>
      </trkpt>
      <trkpt lat="43.495819" lon="-8.254574">
        <ele>0.00</ele>
        <time>2021-07-20T19:41:22Z</time>
      </trkpt>
      <trkpt lat="43.495877" lon="-8.254432">
        <ele>0.00</ele>
        <time>2021-07-20T19:41:24Z</time>
      </trkpt>
      <trkpt lat="43.496058" lon="-8.254166">
        <ele>0.00</ele>
        <time>2021-07-20T19:41:30Z</time>
      </trkpt>
      <trkpt lat="43.496092" lon="-8.254067">
        <ele>0.00</ele>
        <time>2021-07-20T19:41:32Z</time>
      </trkpt>
      <trkpt lat="43.496104" lon="-8.253936">
        <ele>0.00</ele>
        <time>2021-07-20T19:41:34Z</time>
      </trkpt>
      <trkpt lat="43.496097" lon="-8.253792">
        <ele>0.00</ele>
        <time>2021-07-20T19:41:36Z</time>
      </trkpt>
      <trkpt lat="43.495794" lon="-8.252820">
        <ele>0.00</ele>
        <time>2021-07-20T19:41:53Z</time>
      </trkpt>
      <trkpt lat="43.495730" lon="-8.252660">
        <ele>0.00</ele>
        <time>2021-07-20T19:41:56Z</time>
      </trkpt>
      <trkpt lat="43.495594" lon="-8.252475">
        <ele>0.00</ele>
        <time>2021-07-20T19:42:01Z</time>
      </trkpt>
      <trkpt lat="43.495485" lon="-8.252446">
        <ele>0.00</ele>
        <time>2021-07-20T19:42:03Z</time>
      </trkpt>
      <trkpt lat="43.494856" lon="-8.252444">
        <ele>0.00</ele>
        <time>2021-07-20T19:42:17Z</time>
      </trkpt>
      <trkpt lat="43.494752" lon="-8.252428">
        <ele>0.00</ele>
        <time>2021-07-20T19:42:20Z</time>
      </trkpt>
      <trkpt lat="43.494655" lon="-8.252372">
        <ele>0.00</ele>
        <time>2021-07-20T19:42:22Z</time>
      </trkpt>
      <trkpt lat="43.494486" lon="-8.252200">
        <ele>0.00</ele>
        <time>2021-07-20T19:42:27Z</time>
      </trkpt>
      <trkpt lat="43.494205" lon="-8.251669">
        <ele>0.00</ele>
        <time>2021-07-20T19:42:37Z</time>
      </trkpt>
      <trkpt lat="43.494006" lon="-8.251477">
        <ele>0.00</ele>
        <time>2021-07-20T19:42:43Z</time>
      </trkpt>
      <trkpt lat="43.493945" lon="-8.251468">
        <ele>0.00</ele>
        <time>2021-07-20T19:42:44Z</time>
      </trkpt>
      <trkpt lat="43.493918" lon="-8.251418">
        <ele>0.00</ele>
        <time>2021-07-20T19:42:45Z</time>
      </trkpt>
      <trkpt lat="43.493916" lon="-8.251380">
        <ele>0.00</ele>
        <time>2021-07-20T19:42:46Z</time>
      </trkpt>
      <trkpt lat="43.493952" lon="-8.251310">
        <ele>0.00</ele>
        <time>2021-07-20T19:42:47Z</time>
      </trkpt>
      <trkpt lat="43.494003" lon="-8.251002">
        <ele>0.00</ele>
        <time>2021-07-20T19:42:52Z</time>
      </trkpt>
      <trkpt lat="43.494283" lon="-8.249997">
        <ele>0.00</ele>
        <time>2021-07-20T19:43:10Z</time>
      </trkpt>
      <trkpt lat="43.494474" lon="-8.249613">
        <ele>0.00</ele>
        <time>2021-07-20T19:43:17Z</time>
      </trkpt>
      <trkpt lat="43.494580" lon="-8.249357">
        <ele>0.00</ele>
        <time>2021-07-20T19:43:22Z</time>
      </trkpt>
      <trkpt lat="43.494633" lon="-8.249048">
        <ele>0.00</ele>
        <time>2021-07-20T19:43:27Z</time>
      </trkpt>
      <trkpt lat="43.494626" lon="-8.248688">
        <ele>0.00</ele>
        <time>2021-07-20T19:43:33Z</time>
      </trkpt>
      <trkpt lat="43.494536" lon="-8.248512">
        <ele>0.00</ele>
        <time>2021-07-20T19:43:36Z</time>
      </trkpt>
      <trkpt lat="43.494454" lon="-8.248404">
        <ele>0.00</ele>
        <time>2021-07-20T19:43:39Z</time>
      </trkpt>
      <trkpt lat="43.494403" lon="-8.248364">
        <ele>0.00</ele>
        <time>2021-07-20T19:43:40Z</time>
      </trkpt>
      <trkpt lat="43.494373" lon="-8.248258">
        <ele>0.00</ele>
        <time>2021-07-20T19:43:42Z</time>
      </trkpt>
      <trkpt lat="43.494425" lon="-8.248138">
        <ele>0.00</ele>
        <time>2021-07-20T19:43:44Z</time>
      </trkpt>
      <trkpt lat="43.494473" lon="-8.248118">
        <ele>0.00</ele>
        <time>2021-07-20T19:43:45Z</time>
      </trkpt>
      <trkpt lat="43.494592" lon="-8.247932">
        <ele>0.00</ele>
        <time>2021-07-20T19:43:49Z</time>
      </trkpt>
      <trkpt lat="43.494670" lon="-8.247602">
        <ele>0.00</ele>
        <time>2021-07-20T19:43:55Z</time>
      </trkpt>
      <trkpt lat="43.494827" lon="-8.247033">
        <ele>0.00</ele>
        <time>2021-07-20T19:44:05Z</time>
      </trkpt>
      <trkpt lat="43.495072" lon="-8.246613">
        <ele>0.00</ele>
        <time>2021-07-20T19:44:14Z</time>
      </trkpt>
      <trkpt lat="43.495145" lon="-8.246546">
        <ele>0.00</ele>
        <time>2021-07-20T19:44:16Z</time>
      </trkpt>
      <trkpt lat="43.495421" lon="-8.246487">
        <ele>0.00</ele>
        <time>2021-07-20T19:44:22Z</time>
      </trkpt>
      <trkpt lat="43.496419" lon="-8.246716">
        <ele>0.00</ele>
        <time>2021-07-20T19:44:44Z</time>
      </trkpt>
      <trkpt lat="43.496594" lon="-8.246740">
        <ele>0.00</ele>
        <time>2021-07-20T19:44:48Z</time>
      </trkpt>
      <trkpt lat="43.496750" lon="-8.246744">
        <ele>0.00</ele>
        <time>2021-07-20T19:44:52Z</time>
      </trkpt>
      <trkpt lat="43.496953" lon="-8.246677">
        <ele>0.00</ele>
        <time>2021-07-20T19:44:56Z</time>
      </trkpt>
      <trkpt lat="43.497654" lon="-8.245867">
        <ele>0.00</ele>
        <time>2021-07-20T19:45:17Z</time>
      </trkpt>
      <trkpt lat="43.498389" lon="-8.245097">
        <ele>0.00</ele>
        <time>2021-07-20T19:45:37Z</time>
      </trkpt>
      <trkpt lat="43.498471" lon="-8.244929">
        <ele>0.00</ele>
        <time>2021-07-20T19:45:41Z</time>
      </trkpt>
      <trkpt lat="43.498482" lon="-8.244857">
        <ele>0.00</ele>
        <time>2021-07-20T19:45:42Z</time>
      </trkpt>
      <trkpt lat="43.498522" lon="-8.244810">
        <ele>0.00</ele>
        <time>2021-07-20T19:45:43Z</time>
      </trkpt>
      <trkpt lat="43.498563" lon="-8.244802">
        <ele>0.00</ele>
        <time>2021-07-20T19:45:44Z</time>
      </trkpt>
      <trkpt lat="43.498700" lon="-8.244706">
        <ele>0.00</ele>
        <time>2021-07-20T19:45:47Z</time>
      </trkpt>
      <trkpt lat="43.498962" lon="-8.244356">
        <ele>0.00</ele>
        <time>2021-07-20T19:45:55Z</time>
      </trkpt>
      <trkpt lat="43.499810" lon="-8.243114">
        <ele>0.00</ele>
        <time>2021-07-20T19:46:23Z</time>
      </trkpt>
      <trkpt lat="43.500212" lon="-8.242313">
        <ele>0.00</ele>
        <time>2021-07-20T19:46:39Z</time>
      </trkpt>
      <trkpt lat="43.500151" lon="-8.242237">
        <ele>0.00</ele>
        <time>2021-07-20T19:46:40Z</time>
      </trkpt>
      <trkpt lat="43.500071" lon="-8.242015">
        <ele>0.00</ele>
        <time>2021-07-20T19:46:45Z</time>
      </trkpt>
      <trkpt lat="43.499883" lon="-8.241483">
        <ele>0.00</ele>
        <time>2021-07-20T19:46:54Z</time>
      </trkpt>
      <trkpt lat="43.499801" lon="-8.241309">
        <ele>0.00</ele>
        <time>2021-07-20T19:46:57Z</time>
      </trkpt>
      <trkpt lat="43.499745" lon="-8.241238">
        <ele>0.00</ele>
        <time>2021-07-20T19:46:59Z</time>
      </trkpt>
      <trkpt lat="43.499544" lon="-8.241142">
        <ele>0.00</ele>
        <time>2021-07-20T19:47:04Z</time>
      </trkpt>
      <trkpt lat="43.498947" lon="-8.241095">
        <ele>0.00</ele>
        <time>2021-07-20T19:47:17Z</time>
      </trkpt>
      <trkpt lat="43.498794" lon="-8.241025">
        <ele>0.00</ele>
        <time>2021-07-20T19:47:21Z</time>
      </trkpt>
      <trkpt lat="43.498712" lon="-8.240951">
        <ele>0.00</ele>
        <time>2021-07-20T19:47:23Z</time>
      </trkpt>
      <trkpt lat="43.498669" lon="-8.240881">
        <ele>0.00</ele>
        <time>2021-07-20T19:47:24Z</time>
      </trkpt>
      <trkpt lat="43.498490" lon="-8.240520">
        <ele>0.00</ele>
        <time>2021-07-20T19:47:31Z</time>
      </trkpt>
      <trkpt lat="43.498290" lon="-8.239985">
        <ele>0.00</ele>
        <time>2021-07-20T19:47:41Z</time>
      </trkpt>
      <trkpt lat="43.498222" lon="-8.239684">
        <ele>0.00</ele>
        <time>2021-07-20T19:47:46Z</time>
      </trkpt>
      <trkpt lat="43.498152" lon="-8.239092">
        <ele>0.00</ele>
        <time>2021-07-20T19:47:56Z</time>
      </trkpt>
      <trkpt lat="43.498101" lon="-8.238890">
        <ele>0.00</ele>
        <time>2021-07-20T19:47:59Z</time>
      </trkpt>
      <trkpt lat="43.497387" lon="-8.236994">
        <ele>0.00</ele>
        <time>2021-07-20T19:48:34Z</time>
      </trkpt>
      <trkpt lat="43.497449" lon="-8.236805">
        <ele>0.00</ele>
        <time>2021-07-20T19:48:37Z</time>
      </trkpt>
      <trkpt lat="43.497320" lon="-8.235820">
        <ele>0.00</ele>
        <time>2021-07-20T19:48:54Z</time>
      </trkpt>
      <trkpt lat="43.497363" lon="-8.235615">
        <ele>0.00</ele>
        <time>2021-07-20T19:48:57Z</time>
      </trkpt>
      <trkpt lat="43.497367" lon="-8.235467">
        <ele>0.00</ele>
        <time>2021-07-20T19:48:59Z</time>
      </trkpt>
      <trkpt lat="43.496848" lon="-8.233992">
        <ele>0.00</ele>
        <time>2021-07-20T19:49:26Z</time>
      </trkpt>
      <trkpt lat="43.496876" lon="-8.233502">
        <ele>0.00</ele>
        <time>2021-07-20T19:49:34Z</time>
      </trkpt>
      <trkpt lat="43.496853" lon="-8.232598">
        <ele>0.00</ele>
        <time>2021-07-20T19:49:49Z</time>
      </trkpt>
      <trkpt lat="43.496844" lon="-8.231292">
        <ele>0.00</ele>
        <time>2021-07-20T19:50:10Z</time>
      </trkpt>
      <trkpt lat="43.496857" lon="-8.230949">
        <ele>0.00</ele>
        <time>2021-07-20T19:50:15Z</time>
      </trkpt>
      <trkpt lat="43.496967" lon="-8.230033">
        <ele>0.00</ele>
        <time>2021-07-20T19:50:30Z</time>
      </trkpt>
      <trkpt lat="43.496959" lon="-8.229962">
        <ele>0.00</ele>
        <time>2021-07-20T19:50:31Z</time>
      </trkpt>
      <trkpt lat="43.496921" lon="-8.229885">
        <ele>0.00</ele>
        <time>2021-07-20T19:50:33Z</time>
      </trkpt>
      <trkpt lat="43.496981" lon="-8.229785">
        <ele>0.00</ele>
        <time>2021-07-20T19:50:35Z</time>
      </trkpt>
      <trkpt lat="43.497234" lon="-8.228885">
        <ele>0.00</ele>
        <time>2021-07-20T19:50:50Z</time>
      </trkpt>
      <trkpt lat="43.497388" lon="-8.228520">
        <ele>0.00</ele>
        <time>2021-07-20T19:50:57Z</time>
      </trkpt>
      <trkpt lat="43.496654" lon="-8.227008">
        <ele>0.00</ele>
        <time>2021-07-20T19:51:27Z</time>
      </trkpt>
      <trkpt lat="43.496205" lon="-8.227072">
        <ele>0.00</ele>
        <time>2021-07-20T19:51:37Z</time>
      </trkpt>
      <trkpt lat="43.496072" lon="-8.227066">
        <ele>0.00</ele>
        <time>2021-07-20T19:51:40Z</time>
      </trkpt>
      <trkpt lat="43.495542" lon="-8.226942">
        <ele>0.00</ele>
        <time>2021-07-20T19:51:52Z</time>
      </trkpt>
      <trkpt lat="43.495328" lon="-8.226947">
        <ele>0.00</ele>
        <time>2021-07-20T19:51:56Z</time>
      </trkpt>
      <trkpt lat="43.495113" lon="-8.226855">
        <ele>0.00</ele>
        <time>2021-07-20T19:52:01Z</time>
      </trkpt>
      <trkpt lat="43.495125" lon="-8.226753">
        <ele>0.00</ele>
        <time>2021-07-20T19:52:03Z</time>
      </trkpt>
      <trkpt lat="43.495108" lon="-8.226173">
        <ele>0.00</ele>
        <time>2021-07-20T19:52:12Z</time>
      </trkpt>
      <trkpt lat="43.495134" lon="-8.226009">
        <ele>0.00</ele>
        <time>2021-07-20T19:52:15Z</time>
      </trkpt>
      <trkpt lat="43.495186" lon="-8.225907">
        <ele>0.00</ele>
        <time>2021-07-20T19:52:17Z</time>
      </trkpt>
      <trkpt lat="43.495584" lon="-8.225484">
        <ele>0.00</ele>
        <time>2021-07-20T19:52:28Z</time>
      </trkpt>
      <trkpt lat="43.495682" lon="-8.225296">
        <ele>0.00</ele>
        <time>2021-07-20T19:52:32Z</time>
      </trkpt>
      <trkpt lat="43.495834" lon="-8.224912">
        <ele>0.00</ele>
        <time>2021-07-20T19:52:39Z</time>
      </trkpt>
      <trkpt lat="43.495905" lon="-8.224782">
        <ele>0.00</ele>
        <time>2021-07-20T19:52:42Z</time>
      </trkpt>
      <trkpt lat="43.496626" lon="-8.223858">
        <ele>0.00</ele>
        <time>2021-07-20T19:53:04Z</time>
      </trkpt>
      <trkpt lat="43.496690" lon="-8.223738">
        <ele>0.00</ele>
        <time>2021-07-20T19:53:06Z</time>
      </trkpt>
      <trkpt lat="43.496777" lon="-8.223467">
        <ele>0.00</ele>
        <time>2021-07-20T19:53:11Z</time>
      </trkpt>
      <trkpt lat="43.496840" lon="-8.222919">
        <ele>0.00</ele>
        <time>2021-07-20T19:53:20Z</time>
      </trkpt>
      <trkpt lat="43.496830" lon="-8.222021">
        <ele>0.00</ele>
        <time>2021-07-20T19:53:34Z</time>
      </trkpt>
      <trkpt lat="43.496854" lon="-8.221545">
        <ele>0.00</ele>
        <time>2021-07-20T19:53:42Z</time>
      </trkpt>
      <trkpt lat="43.496824" lon="-8.220362">
        <ele>0.00</ele>
        <time>2021-07-20T19:54:01Z</time>
      </trkpt>
      <trkpt lat="43.496850" lon="-8.220080">
        <ele>0.00</ele>
        <time>2021-07-20T19:54:06Z</time>
      </trkpt>
      <trkpt lat="43.497028" lon="-8.218965">
        <ele>0.00</ele>
        <time>2021-07-20T19:54:24Z</time>
      </trkpt>
      <trkpt lat="43.496994" lon="-8.218145">
        <ele>0.00</ele>
        <time>2021-07-20T19:54:38Z</time>
      </trkpt>
      <trkpt lat="43.496969" lon="-8.218022">
        <ele>0.00</ele>
        <time>2021-07-20T19:54:40Z</time>
      </trkpt>
      <trkpt lat="43.496859" lon="-8.217923">
        <ele>0.00</ele>
        <time>2021-07-20T19:54:43Z</time>
      </trkpt>
      <trkpt lat="43.496835" lon="-8.217872">
        <ele>0.00</ele>
        <time>2021-07-20T19:54:44Z</time>
      </trkpt>
      <trkpt lat="43.496815" lon="-8.217765">
        <ele>0.00</ele>
        <time>2021-07-20T19:54:45Z</time>
      </trkpt>
      <trkpt lat="43.496817" lon="-8.217696">
        <ele>0.00</ele>
        <time>2021-07-20T19:54:46Z</time>
      </trkpt>
      <trkpt lat="43.496848" lon="-8.217594">
        <ele>0.00</ele>
        <time>2021-07-20T19:54:48Z</time>
      </trkpt>
      <trkpt lat="43.496922" lon="-8.217513">
        <ele>0.00</ele>
        <time>2021-07-20T19:54:50Z</time>
      </trkpt>
      <trkpt lat="43.496962" lon="-8.217365">
        <ele>0.00</ele>
        <time>2021-07-20T19:54:53Z</time>
      </trkpt>
      <trkpt lat="43.496932" lon="-8.216784">
        <ele>0.00</ele>
        <time>2021-07-20T19:55:02Z</time>
      </trkpt>
      <trkpt lat="43.496906" lon="-8.216586">
        <ele>0.00</ele>
        <time>2021-07-20T19:55:06Z</time>
      </trkpt>
      <trkpt lat="43.496501" lon="-8.214983">
        <ele>0.00</ele>
        <time>2021-07-20T19:55:33Z</time>
      </trkpt>
      <trkpt lat="43.496013" lon="-8.215064">
        <ele>0.00</ele>
        <time>2021-07-20T19:55:44Z</time>
      </trkpt>
      <trkpt lat="43.495848" lon="-8.215044">
        <ele>0.00</ele>
        <time>2021-07-20T19:55:48Z</time>
      </trkpt>
      <trkpt lat="43.495718" lon="-8.214945">
        <ele>0.00</ele>
        <time>2021-07-20T19:55:51Z</time>
      </trkpt>
      <trkpt lat="43.495566" lon="-8.214734">
        <ele>0.00</ele>
        <time>2021-07-20T19:55:56Z</time>
      </trkpt>
      <trkpt lat="43.495544" lon="-8.214645">
        <ele>0.00</ele>
        <time>2021-07-20T19:55:57Z</time>
      </trkpt>
      <trkpt lat="43.495581" lon="-8.213916">
        <ele>0.00</ele>
        <time>2021-07-20T19:56:09Z</time>
      </trkpt>
      <trkpt lat="43.495503" lon="-8.213704">
        <ele>0.00</ele>
        <time>2021-07-20T19:56:13Z</time>
      </trkpt>
      <trkpt lat="43.495416" lon="-8.213587">
        <ele>0.00</ele>
        <time>2021-07-20T19:56:16Z</time>
      </trkpt>
      <trkpt lat="43.495317" lon="-8.213540">
        <ele>0.00</ele>
        <time>2021-07-20T19:56:18Z</time>
      </trkpt>
      <trkpt lat="43.494511" lon="-8.213420">
        <ele>0.00</ele>
        <time>2021-07-20T19:56:36Z</time>
      </trkpt>
      <trkpt lat="43.494277" lon="-8.213365">
        <ele>0.00</ele>
        <time>2021-07-20T19:56:41Z</time>
      </trkpt>
      <trkpt lat="43.492764" lon="-8.212748">
        <ele>0.00</ele>
        <time>2021-07-20T19:57:16Z</time>
      </trkpt>
      <trkpt lat="43.492626" lon="-8.212670">
        <ele>0.00</ele>
        <time>2021-07-20T19:57:20Z</time>
      </trkpt>
      <trkpt lat="43.492521" lon="-8.212565">
        <ele>0.00</ele>
        <time>2021-07-20T19:57:23Z</time>
      </trkpt>
      <trkpt lat="43.492077" lon="-8.211921">
        <ele>0.00</ele>
        <time>2021-07-20T19:57:37Z</time>
      </trkpt>
      <trkpt lat="43.491130" lon="-8.211304">
        <ele>0.00</ele>
        <time>2021-07-20T19:58:00Z</time>
      </trkpt>
      <trkpt lat="43.490514" lon="-8.210980">
        <ele>0.00</ele>
        <time>2021-07-20T19:58:15Z</time>
      </trkpt>
      <trkpt lat="43.490673" lon="-8.210425">
        <ele>0.00</ele>
        <time>2021-07-20T19:58:25Z</time>
      </trkpt>
      <trkpt lat="43.490667" lon="-8.210352">
        <ele>0.00</ele>
        <time>2021-07-20T19:58:26Z</time>
      </trkpt>
      <trkpt lat="43.490608" lon="-8.210300">
        <ele>0.00</ele>
        <time>2021-07-20T19:58:27Z</time>
      </trkpt>
      <trkpt lat="43.490089" lon="-8.210019">
        <ele>0.00</ele>
        <time>2021-07-20T19:58:40Z</time>
      </trkpt>
      <trkpt lat="43.489988" lon="-8.209926">
        <ele>0.00</ele>
        <time>2021-07-20T19:58:42Z</time>
      </trkpt>
      <trkpt lat="43.489212" lon="-8.208485">
        <ele>0.00</ele>
        <time>2021-07-20T19:59:11Z</time>
      </trkpt>
      <trkpt lat="43.489658" lon="-8.207966">
        <ele>0.00</ele>
        <time>2021-07-20T19:59:24Z</time>
      </trkpt>
      <trkpt lat="43.489684" lon="-8.207860">
        <ele>0.00</ele>
        <time>2021-07-20T19:59:26Z</time>
      </trkpt>
      <trkpt lat="43.489689" lon="-8.207753">
        <ele>0.00</ele>
        <time>2021-07-20T19:59:28Z</time>
      </trkpt>
      <trkpt lat="43.489661" lon="-8.207625">
        <ele>0.00</ele>
        <time>2021-07-20T19:59:30Z</time>
      </trkpt>
      <trkpt lat="43.488685" lon="-8.206498">
        <ele>0.00</ele>
        <time>2021-07-20T20:00:05Z</time>
      </trkpt>
      <trkpt lat="43.488502" lon="-8.206212">
        <ele>0.00</ele>
        <time>2021-07-20T20:00:12Z</time>
      </trkpt>
      <trkpt lat="43.488285" lon="-8.205775">
        <ele>0.00</ele>
        <time>2021-07-20T20:00:23Z</time>
      </trkpt>
      <trkpt lat="43.488094" lon="-8.205164">
        <ele>0.00</ele>
        <time>2021-07-20T20:00:36Z</time>
      </trkpt>
      <trkpt lat="43.487825" lon="-8.203242">
        <ele>0.00</ele>
        <time>2021-07-20T20:01:15Z</time>
      </trkpt>
      <trkpt lat="43.487585" lon="-8.202404">
        <ele>0.00</ele>
        <time>2021-07-20T20:01:29Z</time>
      </trkpt>
      <trkpt lat="43.487441" lon="-8.202015">
        <ele>0.00</ele>
        <time>2021-07-20T20:01:36Z</time>
      </trkpt>
      <trkpt lat="43.487330" lon="-8.201768">
        <ele>0.00</ele>
        <time>2021-07-20T20:01:41Z</time>
      </trkpt>
      <trkpt lat="43.487227" lon="-8.201677">
        <ele>0.00</ele>
        <time>2021-07-20T20:01:44Z</time>
      </trkpt>
      <trkpt lat="43.487085" lon="-8.201640">
        <ele>0.00</ele>
        <time>2021-07-20T20:01:47Z</time>
      </trkpt>
      <trkpt lat="43.486871" lon="-8.201664">
        <ele>0.00</ele>
        <time>2021-07-20T20:01:52Z</time>
      </trkpt>
      <trkpt lat="43.486987" lon="-8.201540">
        <ele>0.00</ele>
        <time>2021-07-20T20:01:55Z</time>
      </trkpt>
      <trkpt lat="43.487022" lon="-8.201475">
        <ele>0.00</ele>
        <time>2021-07-20T20:01:56Z</time>
      </trkpt>
      <trkpt lat="43.487043" lon="-8.201388">
        <ele>0.00</ele>
        <time>2021-07-20T20:01:58Z</time>
      </trkpt>
      <trkpt lat="43.487028" lon="-8.201291">
        <ele>0.00</ele>
        <time>2021-07-20T20:01:59Z</time>
      </trkpt>
      <trkpt lat="43.487026" lon="-8.201069">
        <ele>0.00</ele>
        <time>2021-07-20T20:02:03Z</time>
      </trkpt>
      <trkpt lat="43.486865" lon="-8.200844">
        <ele>0.00</ele>
        <time>2021-07-20T20:02:09Z</time>
      </trkpt>
      <trkpt lat="43.486462" lon="-8.200093">
        <ele>0.00</ele>
        <time>2021-07-20T20:02:29Z</time>
      </trkpt>
      <trkpt lat="43.486443" lon="-8.199987">
        <ele>0.00</ele>
        <time>2021-07-20T20:02:31Z</time>
      </trkpt>
      <trkpt lat="43.486455" lon="-8.199914">
        <ele>0.00</ele>
        <time>2021-07-20T20:02:32Z</time>
      </trkpt>
      <trkpt lat="43.485972" lon="-8.199045">
        <ele>0.00</ele>
        <time>2021-07-20T20:02:58Z</time>
      </trkpt>
      <trkpt lat="43.485829" lon="-8.198838">
        <ele>0.00</ele>
        <time>2021-07-20T20:03:04Z</time>
      </trkpt>
      <trkpt lat="43.485503" lon="-8.198505">
        <ele>0.00</ele>
        <time>2021-07-20T20:03:17Z</time>
      </trkpt>
      <trkpt lat="43.485168" lon="-8.198245">
        <ele>0.00</ele>
        <time>2021-07-20T20:03:30Z</time>
      </trkpt>
      <trkpt lat="43.485010" lon="-8.198168">
        <ele>0.00</ele>
        <time>2021-07-20T20:03:34Z</time>
      </trkpt>
      <trkpt lat="43.484762" lon="-8.198160">
        <ele>0.00</ele>
        <time>2021-07-20T20:03:39Z</time>
      </trkpt>
      <trkpt lat="43.484733" lon="-8.198189">
        <ele>0.00</ele>
        <time>2021-07-20T20:03:40Z</time>
      </trkpt>
      <trkpt lat="43.484584" lon="-8.198251">
        <ele>0.00</ele>
        <time>2021-07-20T20:03:43Z</time>
      </trkpt>
      <trkpt lat="43.484420" lon="-8.198284">
        <ele>0.00</ele>
        <time>2021-07-20T20:03:47Z</time>
      </trkpt>
      <trkpt lat="43.484233" lon="-8.198285">
        <ele>0.00</ele>
        <time>2021-07-20T20:03:51Z</time>
      </trkpt>
      <trkpt lat="43.484039" lon="-8.198161">
        <ele>0.00</ele>
        <time>2021-07-20T20:03:56Z</time>
      </trkpt>
      <trkpt lat="43.483821" lon="-8.197945">
        <ele>0.00</ele>
        <time>2021-07-20T20:04:02Z</time>
      </trkpt>
      <trkpt lat="43.483766" lon="-8.197657">
        <ele>0.00</ele>
        <time>2021-07-20T20:04:07Z</time>
      </trkpt>
      <trkpt lat="43.483784" lon="-8.197506">
        <ele>0.00</ele>
        <time>2021-07-20T20:04:09Z</time>
      </trkpt>
      <trkpt lat="43.483828" lon="-8.197350">
        <ele>0.00</ele>
        <time>2021-07-20T20:04:12Z</time>
      </trkpt>
      <trkpt lat="43.483863" lon="-8.197272">
        <ele>0.00</ele>
        <time>2021-07-20T20:04:13Z</time>
      </trkpt>
      <trkpt lat="43.483896" lon="-8.197247">
        <ele>0.00</ele>
        <time>2021-07-20T20:04:14Z</time>
      </trkpt>
      <trkpt lat="43.483980" lon="-8.197019">
        <ele>0.00</ele>
        <time>2021-07-20T20:04:18Z</time>
      </trkpt>
      <trkpt lat="43.484246" lon="-8.196771">
        <ele>0.00</ele>
        <time>2021-07-20T20:04:26Z</time>
      </trkpt>
      <trkpt lat="43.484430" lon="-8.196498">
        <ele>0.00</ele>
        <time>2021-07-20T20:04:32Z</time>
      </trkpt>
      <trkpt lat="43.484736" lon="-8.195856">
        <ele>0.00</ele>
        <time>2021-07-20T20:04:44Z</time>
      </trkpt>
      <trkpt lat="43.485165" lon="-8.194422">
        <ele>0.00</ele>
        <time>2021-07-20T20:05:09Z</time>
      </trkpt>
      <trkpt lat="43.485188" lon="-8.194272">
        <ele>0.00</ele>
        <time>2021-07-20T20:05:12Z</time>
      </trkpt>
      <trkpt lat="43.485485" lon="-8.192646">
        <ele>0.00</ele>
        <time>2021-07-20T20:05:47Z</time>
      </trkpt>
      <trkpt lat="43.485552" lon="-8.192389">
        <ele>0.00</ele>
        <time>2021-07-20T20:05:53Z</time>
      </trkpt>
      <trkpt lat="43.485658" lon="-8.191748">
        <ele>0.00</ele>
        <time>2021-07-20T20:06:06Z</time>
      </trkpt>
      <trkpt lat="43.485686" lon="-8.191284">
        <ele>0.00</ele>
        <time>2021-07-20T20:06:14Z</time>
      </trkpt>
      <trkpt lat="43.485700" lon="-8.190660">
        <ele>0.00</ele>
        <time>2021-07-20T20:06:25Z</time>
      </trkpt>
      <trkpt lat="43.485670" lon="-8.189830">
        <ele>0.00</ele>
        <time>2021-07-20T20:06:39Z</time>
      </trkpt>
      <trkpt lat="43.485586" lon="-8.189016">
        <ele>0.00</ele>
        <time>2021-07-20T20:06:53Z</time>
      </trkpt>
      <trkpt lat="43.485427" lon="-8.188039">
        <ele>0.00</ele>
        <time>2021-07-20T20:07:10Z</time>
      </trkpt>
      <trkpt lat="43.485171" lon="-8.186992">
        <ele>0.00</ele>
        <time>2021-07-20T20:07:29Z</time>
      </trkpt>
      <trkpt lat="43.484949" lon="-8.186355">
        <ele>0.00</ele>
        <time>2021-07-20T20:07:41Z</time>
      </trkpt>
      <trkpt lat="43.484568" lon="-8.185442">
        <ele>0.00</ele>
        <time>2021-07-20T20:07:59Z</time>
      </trkpt>
      <trkpt lat="43.484143" lon="-8.184690">
        <ele>0.00</ele>
        <time>2021-07-20T20:08:15Z</time>
      </trkpt>
      <trkpt lat="43.483560" lon="-8.183824">
        <ele>0.00</ele>
        <time>2021-07-20T20:08:36Z</time>
      </trkpt>
      <trkpt lat="43.482884" lon="-8.183067">
        <ele>0.00</ele>
        <time>2021-07-20T20:08:56Z</time>
      </trkpt>
      <trkpt lat="43.482274" lon="-8.182530">
        <ele>0.00</ele>
        <time>2021-07-20T20:09:13Z</time>
      </trkpt>
      <trkpt lat="43.480447" lon="-8.181233">
        <ele>0.00</ele>
        <time>2021-07-20T20:10:01Z</time>
      </trkpt>
      <trkpt lat="43.480041" lon="-8.180900">
        <ele>0.00</ele>
        <time>2021-07-20T20:10:12Z</time>
      </trkpt>
      <trkpt lat="43.479601" lon="-8.180492">
        <ele>0.00</ele>
        <time>2021-07-20T20:10:25Z</time>
      </trkpt>
      <trkpt lat="43.478916" lon="-8.179758">
        <ele>0.00</ele>
        <time>2021-07-20T20:10:45Z</time>
      </trkpt>
      <trkpt lat="43.478449" lon="-8.179160">
        <ele>0.00</ele>
        <time>2021-07-20T20:11:00Z</time>
      </trkpt>
      <trkpt lat="43.478028" lon="-8.178553">
        <ele>0.00</ele>
        <time>2021-07-20T20:11:15Z</time>
      </trkpt>
      <trkpt lat="43.477646" lon="-8.177927">
        <ele>0.00</ele>
        <time>2021-07-20T20:11:29Z</time>
      </trkpt>
      <trkpt lat="43.477157" lon="-8.176979">
        <ele>0.00</ele>
        <time>2021-07-20T20:11:48Z</time>
      </trkpt>
      <trkpt lat="43.476920" lon="-8.176445">
        <ele>0.00</ele>
        <time>2021-07-20T20:11:59Z</time>
      </trkpt>
      <trkpt lat="43.476432" lon="-8.175129">
        <ele>0.00</ele>
        <time>2021-07-20T20:12:24Z</time>
      </trkpt>
      <trkpt lat="43.476058" lon="-8.174042">
        <ele>0.00</ele>
        <time>2021-07-20T20:12:45Z</time>
      </trkpt>
      <trkpt lat="43.475026" lon="-8.170988">
        <ele>0.00</ele>
        <time>2021-07-20T20:14:17Z</time>
      </trkpt>
      <trkpt lat="43.474906" lon="-8.170906">
        <ele>0.00</ele>
        <time>2021-07-20T20:14:20Z</time>
      </trkpt>
      <trkpt lat="43.474759" lon="-8.170929">
        <ele>0.00</ele>
        <time>2021-07-20T20:14:24Z</time>
      </trkpt>
      <trkpt lat="43.474695" lon="-8.170983">
        <ele>0.00</ele>
        <time>2021-07-20T20:14:25Z</time>
      </trkpt>
      <trkpt lat="43.474089" lon="-8.170514">
        <ele>0.00</ele>
        <time>2021-07-20T20:14:41Z</time>
      </trkpt>
      <trkpt lat="43.474036" lon="-8.170567">
        <ele>0.00</ele>
        <time>2021-07-20T20:14:42Z</time>
      </trkpt>
      <trkpt lat="43.473990" lon="-8.170523">
        <ele>0.00</ele>
        <time>2021-07-20T20:14:44Z</time>
      </trkpt>
      <trkpt lat="43.473556" lon="-8.170935">
        <ele>0.00</ele>
        <time>2021-07-20T20:14:55Z</time>
      </trkpt>
      <trkpt lat="43.473360" lon="-8.171190">
        <ele>0.00</ele>
        <time>2021-07-20T20:15:01Z</time>
      </trkpt>
      <trkpt lat="43.473263" lon="-8.171420">
        <ele>0.00</ele>
        <time>2021-07-20T20:15:06Z</time>
      </trkpt>
      <trkpt lat="43.473070" lon="-8.172303">
        <ele>0.00</ele>
        <time>2021-07-20T20:15:21Z</time>
      </trkpt>
      <trkpt lat="43.472967" lon="-8.172500">
        <ele>0.00</ele>
        <time>2021-07-20T20:15:25Z</time>
      </trkpt>
      <trkpt lat="43.472700" lon="-8.173165">
        <ele>0.00</ele>
        <time>2021-07-20T20:15:37Z</time>
      </trkpt>
      <trkpt lat="43.472640" lon="-8.173429">
        <ele>0.00</ele>
        <time>2021-07-20T20:15:41Z</time>
      </trkpt>
      <trkpt lat="43.472607" lon="-8.173660">
        <ele>0.00</ele>
        <time>2021-07-20T20:15:45Z</time>
      </trkpt>
      <trkpt lat="43.472577" lon="-8.174158">
        <ele>0.00</ele>
        <time>2021-07-20T20:15:53Z</time>
      </trkpt>
      <trkpt lat="43.472566" lon="-8.174967">
        <ele>0.00</ele>
        <time>2021-07-20T20:16:06Z</time>
      </trkpt>
      <trkpt lat="43.472512" lon="-8.175245">
        <ele>0.00</ele>
        <time>2021-07-20T20:16:11Z</time>
      </trkpt>
      <trkpt lat="43.472209" lon="-8.176132">
        <ele>0.00</ele>
        <time>2021-07-20T20:16:27Z</time>
      </trkpt>
      <trkpt lat="43.471243" lon="-8.175376">
        <ele>0.00</ele>
        <time>2021-07-20T20:16:51Z</time>
      </trkpt>
      <trkpt lat="43.471052" lon="-8.175352">
        <ele>0.00</ele>
        <time>2021-07-20T20:16:56Z</time>
      </trkpt>
      <trkpt lat="43.470809" lon="-8.175443">
        <ele>0.00</ele>
        <time>2021-07-20T20:17:01Z</time>
      </trkpt>
      <trkpt lat="43.470728" lon="-8.175158">
        <ele>0.00</ele>
        <time>2021-07-20T20:17:06Z</time>
      </trkpt>
      <trkpt lat="43.470651" lon="-8.174978">
        <ele>0.00</ele>
        <time>2021-07-20T20:17:10Z</time>
      </trkpt>
      <trkpt lat="43.470392" lon="-8.175507">
        <ele>0.00</ele>
        <time>2021-07-20T20:17:22Z</time>
      </trkpt>
      <trkpt lat="43.470325" lon="-8.175607">
        <ele>0.00</ele>
        <time>2021-07-20T20:17:25Z</time>
      </trkpt>
      <trkpt lat="43.470273" lon="-8.175826">
        <ele>0.00</ele>
        <time>2021-07-20T20:17:29Z</time>
      </trkpt>
      <trkpt lat="43.470249" lon="-8.176518">
        <ele>0.00</ele>
        <time>2021-07-20T20:17:43Z</time>
      </trkpt>
      <trkpt lat="43.470272" lon="-8.176867">
        <ele>0.00</ele>
        <time>2021-07-20T20:17:50Z</time>
      </trkpt>
      <trkpt lat="43.470325" lon="-8.177070">
        <ele>0.00</ele>
        <time>2021-07-20T20:17:54Z</time>
      </trkpt>
      <trkpt lat="43.470383" lon="-8.177224">
        <ele>0.00</ele>
        <time>2021-07-20T20:17:57Z</time>
      </trkpt>
      <trkpt lat="43.470489" lon="-8.177407">
        <ele>0.00</ele>
        <time>2021-07-20T20:18:02Z</time>
      </trkpt>
      <trkpt lat="43.470730" lon="-8.177746">
        <ele>0.00</ele>
        <time>2021-07-20T20:18:11Z</time>
      </trkpt>
      <trkpt lat="43.470832" lon="-8.177930">
        <ele>0.00</ele>
        <time>2021-07-20T20:18:16Z</time>
      </trkpt>
      <trkpt lat="43.470915" lon="-8.178129">
        <ele>0.00</ele>
        <time>2021-07-20T20:18:20Z</time>
      </trkpt>
      <trkpt lat="43.470966" lon="-8.178338">
        <ele>0.00</ele>
        <time>2021-07-20T20:18:25Z</time>
      </trkpt>
      <trkpt lat="43.470955" lon="-8.178562">
        <ele>0.00</ele>
        <time>2021-07-20T20:18:29Z</time>
      </trkpt>
      <trkpt lat="43.470918" lon="-8.178768">
        <ele>0.00</ele>
        <time>2021-07-20T20:18:33Z</time>
      </trkpt>
      <trkpt lat="43.470778" lon="-8.179166">
        <ele>0.00</ele>
        <time>2021-07-20T20:18:42Z</time>
      </trkpt>
      <trkpt lat="43.470605" lon="-8.179524">
        <ele>0.00</ele>
        <time>2021-07-20T20:18:50Z</time>
      </trkpt>
      <trkpt lat="43.470392" lon="-8.179840">
        <ele>0.00</ele>
        <time>2021-07-20T20:18:59Z</time>
      </trkpt>
      <trkpt lat="43.469622" lon="-8.180649">
        <ele>0.00</ele>
        <time>2021-07-20T20:19:25Z</time>
      </trkpt>
      <trkpt lat="43.469348" lon="-8.180967">
        <ele>0.00</ele>
        <time>2021-07-20T20:19:35Z</time>
      </trkpt>
      <trkpt lat="43.469125" lon="-8.181353">
        <ele>0.00</ele>
        <time>2021-07-20T20:19:44Z</time>
      </trkpt>
      <trkpt lat="43.469038" lon="-8.181575">
        <ele>0.00</ele>
        <time>2021-07-20T20:19:49Z</time>
      </trkpt>
      <trkpt lat="43.469015" lon="-8.181883">
        <ele>0.00</ele>
        <time>2021-07-20T20:19:55Z</time>
      </trkpt>
      <trkpt lat="43.469099" lon="-8.182361">
        <ele>0.00</ele>
        <time>2021-07-20T20:20:05Z</time>
      </trkpt>
      <trkpt lat="43.469104" lon="-8.182567">
        <ele>0.00</ele>
        <time>2021-07-20T20:20:09Z</time>
      </trkpt>
      <trkpt lat="43.469037" lon="-8.182782">
        <ele>0.00</ele>
        <time>2021-07-20T20:20:14Z</time>
      </trkpt>
      <trkpt lat="43.468353" lon="-8.184214">
        <ele>0.00</ele>
        <time>2021-07-20T20:20:47Z</time>
      </trkpt>
      <trkpt lat="43.467988" lon="-8.184868">
        <ele>0.00</ele>
        <time>2021-07-20T20:21:04Z</time>
      </trkpt>
      <trkpt lat="43.467608" lon="-8.185386">
        <ele>0.00</ele>
        <time>2021-07-20T20:21:18Z</time>
      </trkpt>
      <trkpt lat="43.467054" lon="-8.186067">
        <ele>0.00</ele>
        <time>2021-07-20T20:21:38Z</time>
      </trkpt>
      <trkpt lat="43.466508" lon="-8.186513">
        <ele>0.00</ele>
        <time>2021-07-20T20:21:55Z</time>
      </trkpt>
      <trkpt lat="43.466272" lon="-8.186616">
        <ele>0.00</ele>
        <time>2021-07-20T20:22:01Z</time>
      </trkpt>
      <trkpt lat="43.465165" lon="-8.186926">
        <ele>0.00</ele>
        <time>2021-07-20T20:22:27Z</time>
      </trkpt>
      <trkpt lat="43.463335" lon="-8.187665">
        <ele>0.00</ele>
        <time>2021-07-20T20:23:11Z</time>
      </trkpt>
      <trkpt lat="43.462634" lon="-8.187975">
        <ele>0.00</ele>
        <time>2021-07-20T20:23:28Z</time>
      </trkpt>
      <trkpt lat="43.462473" lon="-8.188180">
        <ele>0.00</ele>
        <time>2021-07-20T20:23:33Z</time>
      </trkpt>
      <trkpt lat="43.462363" lon="-8.188392">
        <ele>0.00</ele>
        <time>2021-07-20T20:23:38Z</time>
      </trkpt>
      <trkpt lat="43.461688" lon="-8.189919">
        <ele>0.00</ele>
        <time>2021-07-20T20:24:08Z</time>
      </trkpt>
      <trkpt lat="43.461568" lon="-8.190264">
        <ele>0.00</ele>
        <time>2021-07-20T20:24:14Z</time>
      </trkpt>
      <trkpt lat="43.461502" lon="-8.190630">
        <ele>0.00</ele>
        <time>2021-07-20T20:24:21Z</time>
      </trkpt>
      <trkpt lat="43.461467" lon="-8.191042">
        <ele>0.00</ele>
        <time>2021-07-20T20:24:28Z</time>
      </trkpt>
      <trkpt lat="43.461437" lon="-8.191211">
        <ele>0.00</ele>
        <time>2021-07-20T20:24:31Z</time>
      </trkpt>
      <trkpt lat="43.461341" lon="-8.191365">
        <ele>0.00</ele>
        <time>2021-07-20T20:24:34Z</time>
      </trkpt>
      <trkpt lat="43.461248" lon="-8.191450">
        <ele>0.00</ele>
        <time>2021-07-20T20:24:37Z</time>
      </trkpt>
      <trkpt lat="43.461022" lon="-8.191567">
        <ele>0.00</ele>
        <time>2021-07-20T20:24:42Z</time>
      </trkpt>
      <trkpt lat="43.460773" lon="-8.191633">
        <ele>0.00</ele>
        <time>2021-07-20T20:24:48Z</time>
      </trkpt>
      <trkpt lat="43.460249" lon="-8.191601">
        <ele>0.00</ele>
        <time>2021-07-20T20:25:00Z</time>
      </trkpt>
      <trkpt lat="43.460023" lon="-8.191695">
        <ele>0.00</ele>
        <time>2021-07-20T20:25:06Z</time>
      </trkpt>
      <trkpt lat="43.459960" lon="-8.191834">
        <ele>0.00</ele>
        <time>2021-07-20T20:25:08Z</time>
      </trkpt>
      <trkpt lat="43.459910" lon="-8.192063">
        <ele>0.00</ele>
        <time>2021-07-20T20:25:12Z</time>
      </trkpt>
      <trkpt lat="43.459906" lon="-8.192305">
        <ele>0.00</ele>
        <time>2021-07-20T20:25:17Z</time>
      </trkpt>
      <trkpt lat="43.459971" lon="-8.192836">
        <ele>0.00</ele>
        <time>2021-07-20T20:25:28Z</time>
      </trkpt>
      <trkpt lat="43.459956" lon="-8.193045">
        <ele>0.00</ele>
        <time>2021-07-20T20:25:33Z</time>
      </trkpt>
      <trkpt lat="43.459921" lon="-8.193257">
        <ele>0.00</ele>
        <time>2021-07-20T20:25:37Z</time>
      </trkpt>
      <trkpt lat="43.459788" lon="-8.193649">
        <ele>0.00</ele>
        <time>2021-07-20T20:25:46Z</time>
      </trkpt>
      <trkpt lat="43.459596" lon="-8.194001">
        <ele>0.00</ele>
        <time>2021-07-20T20:25:55Z</time>
      </trkpt>
      <trkpt lat="43.459145" lon="-8.194666">
        <ele>0.00</ele>
        <time>2021-07-20T20:26:14Z</time>
      </trkpt>
      <trkpt lat="43.458593" lon="-8.195156">
        <ele>0.00</ele>
        <time>2021-07-20T20:26:33Z</time>
      </trkpt>
      <trkpt lat="43.458334" lon="-8.195479">
        <ele>0.00</ele>
        <time>2021-07-20T20:26:42Z</time>
      </trkpt>
      <trkpt lat="43.457746" lon="-8.196104">
        <ele>0.00</ele>
        <time>2021-07-20T20:27:03Z</time>
      </trkpt>
      <trkpt lat="43.457623" lon="-8.196299">
        <ele>0.00</ele>
        <time>2021-07-20T20:27:09Z</time>
      </trkpt>
      <trkpt lat="43.457410" lon="-8.197024">
        <ele>0.00</ele>
        <time>2021-07-20T20:27:25Z</time>
      </trkpt>
      <trkpt lat="43.457220" lon="-8.197467">
        <ele>0.00</ele>
        <time>2021-07-20T20:27:36Z</time>
      </trkpt>
      <trkpt lat="43.456525" lon="-8.198809">
        <ele>0.00</ele>
        <time>2021-07-20T20:28:09Z</time>
      </trkpt>
      <trkpt lat="43.455894" lon="-8.198666">
        <ele>0.00</ele>
        <time>2021-07-20T20:28:24Z</time>
      </trkpt>
      <trkpt lat="43.455251" lon="-8.198492">
        <ele>0.00</ele>
        <time>2021-07-20T20:28:38Z</time>
      </trkpt>
      <trkpt lat="43.454648" lon="-8.198473">
        <ele>0.00</ele>
        <time>2021-07-20T20:28:52Z</time>
      </trkpt>
      <trkpt lat="43.454415" lon="-8.198409">
        <ele>0.00</ele>
        <time>2021-07-20T20:28:57Z</time>
      </trkpt>
      <trkpt lat="43.454241" lon="-8.198329">
        <ele>0.00</ele>
        <time>2021-07-20T20:29:01Z</time>
      </trkpt>
      <trkpt lat="43.454091" lon="-8.198155">
        <ele>0.00</ele>
        <time>2021-07-20T20:29:05Z</time>
      </trkpt>
      <trkpt lat="43.453877" lon="-8.197515">
        <ele>0.00</ele>
        <time>2021-07-20T20:29:17Z</time>
      </trkpt>
      <trkpt lat="43.453789" lon="-8.197449">
        <ele>0.00</ele>
        <time>2021-07-20T20:29:19Z</time>
      </trkpt>
      <trkpt lat="43.453442" lon="-8.197321">
        <ele>0.00</ele>
        <time>2021-07-20T20:29:27Z</time>
      </trkpt>
      <trkpt lat="43.453357" lon="-8.197269">
        <ele>0.00</ele>
        <time>2021-07-20T20:29:29Z</time>
      </trkpt>
      <trkpt lat="43.453183" lon="-8.196971">
        <ele>0.00</ele>
        <time>2021-07-20T20:29:35Z</time>
      </trkpt>
      <trkpt lat="43.453106" lon="-8.196771">
        <ele>0.00</ele>
        <time>2021-07-20T20:29:39Z</time>
      </trkpt>
      <trkpt lat="43.453088" lon="-8.196595">
        <ele>0.00</ele>
        <time>2021-07-20T20:29:42Z</time>
      </trkpt>
      <trkpt lat="43.453040" lon="-8.196472">
        <ele>0.00</ele>
        <time>2021-07-20T20:29:44Z</time>
      </trkpt>
      <trkpt lat="43.452959" lon="-8.196392">
        <ele>0.00</ele>
        <time>2021-07-20T20:29:46Z</time>
      </trkpt>
      <trkpt lat="43.452836" lon="-8.196336">
        <ele>0.00</ele>
        <time>2021-07-20T20:29:49Z</time>
      </trkpt>
      <trkpt lat="43.451690" lon="-8.196126">
        <ele>0.00</ele>
        <time>2021-07-20T20:30:15Z</time>
      </trkpt>
      <trkpt lat="43.451489" lon="-8.196064">
        <ele>0.00</ele>
        <time>2021-07-20T20:30:20Z</time>
      </trkpt>
      <trkpt lat="43.451351" lon="-8.195951">
        <ele>0.00</ele>
        <time>2021-07-20T20:30:23Z</time>
      </trkpt>
      <trkpt lat="43.451176" lon="-8.195997">
        <ele>0.00</ele>
        <time>2021-07-20T20:30:28Z</time>
      </trkpt>
      <trkpt lat="43.450788" lon="-8.195961">
        <ele>0.00</ele>
        <time>2021-07-20T20:30:37Z</time>
      </trkpt>
      <trkpt lat="43.450499" lon="-8.195869">
        <ele>0.00</ele>
        <time>2021-07-20T20:30:45Z</time>
      </trkpt>
      <trkpt lat="43.450262" lon="-8.195850">
        <ele>0.00</ele>
        <time>2021-07-20T20:30:51Z</time>
      </trkpt>
      <trkpt lat="43.450185" lon="-8.195751">
        <ele>0.00</ele>
        <time>2021-07-20T20:30:54Z</time>
      </trkpt>
      <trkpt lat="43.449823" lon="-8.195472">
        <ele>0.00</ele>
        <time>2021-07-20T20:31:08Z</time>
      </trkpt>
      <trkpt lat="43.449823" lon="-8.195253">
        <ele>0.00</ele>
        <time>2021-07-20T20:31:13Z</time>
      </trkpt>
      <trkpt lat="43.449981" lon="-8.194940">
        <ele>0.00</ele>
        <time>2021-07-20T20:31:23Z</time>
      </trkpt>
      <trkpt lat="43.449698" lon="-8.194675">
        <ele>0.00</ele>
        <time>2021-07-20T20:31:31Z</time>
      </trkpt>
      <trkpt lat="43.449462" lon="-8.194567">
        <ele>0.00</ele>
        <time>2021-07-20T20:31:37Z</time>
      </trkpt>
      <trkpt lat="43.449214" lon="-8.194533">
        <ele>0.00</ele>
        <time>2021-07-20T20:31:43Z</time>
      </trkpt>
      <trkpt lat="43.448653" lon="-8.194686">
        <ele>0.00</ele>
        <time>2021-07-20T20:31:57Z</time>
      </trkpt>
      <trkpt lat="43.448281" lon="-8.194725">
        <ele>0.00</ele>
        <time>2021-07-20T20:32:06Z</time>
      </trkpt>
      <trkpt lat="43.446932" lon="-8.194621">
        <ele>0.00</ele>
        <time>2021-07-20T20:32:38Z</time>
      </trkpt>
      <trkpt lat="43.446208" lon="-8.194598">
        <ele>0.00</ele>
        <time>2021-07-20T20:32:56Z</time>
      </trkpt>
      <trkpt lat="43.446110" lon="-8.194614">
        <ele>0.00</ele>
        <time>2021-07-20T20:32:58Z</time>
      </trkpt>
      <trkpt lat="43.445994" lon="-8.194663">
        <ele>0.00</ele>
        <time>2021-07-20T20:33:00Z</time>
      </trkpt>
      <trkpt lat="43.445894" lon="-8.194742">
        <ele>0.00</ele>
        <time>2021-07-20T20:33:03Z</time>
      </trkpt>
      <trkpt lat="43.445808" lon="-8.194753">
        <ele>0.00</ele>
        <time>2021-07-20T20:33:05Z</time>
      </trkpt>
      <trkpt lat="43.445727" lon="-8.194724">
        <ele>0.00</ele>
        <time>2021-07-20T20:33:07Z</time>
      </trkpt>
      <trkpt lat="43.445671" lon="-8.194675">
        <ele>0.00</ele>
        <time>2021-07-20T20:33:08Z</time>
      </trkpt>
      <trkpt lat="43.445615" lon="-8.194579">
        <ele>0.00</ele>
        <time>2021-07-20T20:33:10Z</time>
      </trkpt>
      <trkpt lat="43.445590" lon="-8.194477">
        <ele>0.00</ele>
        <time>2021-07-20T20:33:12Z</time>
      </trkpt>
      <trkpt lat="43.445609" lon="-8.194281">
        <ele>0.00</ele>
        <time>2021-07-20T20:33:15Z</time>
      </trkpt>
      <trkpt lat="43.445545" lon="-8.194023">
        <ele>0.00</ele>
        <time>2021-07-20T20:33:20Z</time>
      </trkpt>
      <trkpt lat="43.445390" lon="-8.193869">
        <ele>0.00</ele>
        <time>2021-07-20T20:33:24Z</time>
      </trkpt>
      <trkpt lat="43.444847" lon="-8.193615">
        <ele>0.00</ele>
        <time>2021-07-20T20:33:39Z</time>
      </trkpt>
      <trkpt lat="43.444165" lon="-8.193047">
        <ele>0.00</ele>
        <time>2021-07-20T20:33:59Z</time>
      </trkpt>
      <trkpt lat="43.444042" lon="-8.193006">
        <ele>0.00</ele>
        <time>2021-07-20T20:34:02Z</time>
      </trkpt>
      <trkpt lat="43.443323" lon="-8.192993">
        <ele>0.00</ele>
        <time>2021-07-20T20:34:20Z</time>
      </trkpt>
      <trkpt lat="43.442907" lon="-8.192932">
        <ele>0.00</ele>
        <time>2021-07-20T20:34:30Z</time>
      </trkpt>
      <trkpt lat="43.442777" lon="-8.192991">
        <ele>0.00</ele>
        <time>2021-07-20T20:34:34Z</time>
      </trkpt>
      <trkpt lat="43.442544" lon="-8.193135">
        <ele>0.00</ele>
        <time>2021-07-20T20:34:40Z</time>
      </trkpt>
      <trkpt lat="43.442431" lon="-8.193141">
        <ele>0.00</ele>
        <time>2021-07-20T20:34:43Z</time>
      </trkpt>
      <trkpt lat="43.442248" lon="-8.193050">
        <ele>0.00</ele>
        <time>2021-07-20T20:34:48Z</time>
      </trkpt>
      <trkpt lat="43.441914" lon="-8.192950">
        <ele>0.00</ele>
        <time>2021-07-20T20:34:56Z</time>
      </trkpt>
      <trkpt lat="43.441638" lon="-8.192798">
        <ele>0.00</ele>
        <time>2021-07-20T20:35:04Z</time>
      </trkpt>
      <trkpt lat="43.441150" lon="-8.192565">
        <ele>0.00</ele>
        <time>2021-07-20T20:35:17Z</time>
      </trkpt>
      <trkpt lat="43.440376" lon="-8.192498">
        <ele>0.00</ele>
        <time>2021-07-20T20:35:36Z</time>
      </trkpt>
      <trkpt lat="43.440189" lon="-8.192524">
        <ele>0.00</ele>
        <time>2021-07-20T20:35:41Z</time>
      </trkpt>
      <trkpt lat="43.440072" lon="-8.192604">
        <ele>0.00</ele>
        <time>2021-07-20T20:35:44Z</time>
      </trkpt>
      <trkpt lat="43.439717" lon="-8.192925">
        <ele>0.00</ele>
        <time>2021-07-20T20:35:55Z</time>
      </trkpt>
      <trkpt lat="43.439211" lon="-8.193129">
        <ele>0.00</ele>
        <time>2021-07-20T20:36:08Z</time>
      </trkpt>
      <trkpt lat="43.439014" lon="-8.193247">
        <ele>0.00</ele>
        <time>2021-07-20T20:36:13Z</time>
      </trkpt>
      <trkpt lat="43.438814" lon="-8.193411">
        <ele>0.00</ele>
        <time>2021-07-20T20:36:19Z</time>
      </trkpt>
      <trkpt lat="43.438212" lon="-8.193566">
        <ele>0.00</ele>
        <time>2021-07-20T20:36:35Z</time>
      </trkpt>
      <trkpt lat="43.438040" lon="-8.193534">
        <ele>0.00</ele>
        <time>2021-07-20T20:36:39Z</time>
      </trkpt>
      <trkpt lat="43.437964" lon="-8.193542">
        <ele>0.00</ele>
        <time>2021-07-20T20:36:41Z</time>
      </trkpt>
      <trkpt lat="43.437741" lon="-8.193460">
        <ele>0.00</ele>
        <time>2021-07-20T20:36:47Z</time>
      </trkpt>
      <trkpt lat="43.437472" lon="-8.193445">
        <ele>0.00</ele>
        <time>2021-07-20T20:36:53Z</time>
      </trkpt>
      <trkpt lat="43.437102" lon="-8.193524">
        <ele>0.00</ele>
        <time>2021-07-20T20:37:03Z</time>
      </trkpt>
      <trkpt lat="43.436761" lon="-8.193493">
        <ele>0.00</ele>
        <time>2021-07-20T20:37:11Z</time>
      </trkpt>
      <trkpt lat="43.435980" lon="-8.193187">
        <ele>0.00</ele>
        <time>2021-07-20T20:37:32Z</time>
      </trkpt>
      <trkpt lat="43.435895" lon="-8.193182">
        <ele>0.00</ele>
        <time>2021-07-20T20:37:34Z</time>
      </trkpt>
      <trkpt lat="43.435790" lon="-8.193218">
        <ele>0.00</ele>
        <time>2021-07-20T20:37:37Z</time>
      </trkpt>
      <trkpt lat="43.435579" lon="-8.193351">
        <ele>0.00</ele>
        <time>2021-07-20T20:37:42Z</time>
      </trkpt>
      <trkpt lat="43.435459" lon="-8.193469">
        <ele>0.00</ele>
        <time>2021-07-20T20:37:46Z</time>
      </trkpt>
      <trkpt lat="43.435016" lon="-8.192981">
        <ele>0.00</ele>
        <time>2021-07-20T20:38:00Z</time>
      </trkpt>
      <trkpt lat="43.434866" lon="-8.193168">
        <ele>0.00</ele>
        <time>2021-07-20T20:38:05Z</time>
      </trkpt>
      <trkpt lat="43.434660" lon="-8.192915">
        <ele>0.00</ele>
        <time>2021-07-20T20:38:12Z</time>
      </trkpt>
      <trkpt lat="43.434421" lon="-8.192683">
        <ele>0.00</ele>
        <time>2021-07-20T20:38:18Z</time>
      </trkpt>
      <trkpt lat="43.434238" lon="-8.192476">
        <ele>0.00</ele>
        <time>2021-07-20T20:38:23Z</time>
      </trkpt>
      <trkpt lat="43.433753" lon="-8.191781">
        <ele>0.00</ele>
        <time>2021-07-20T20:38:39Z</time>
      </trkpt>
      <trkpt lat="43.433492" lon="-8.191466">
        <ele>0.00</ele>
        <time>2021-07-20T20:38:47Z</time>
      </trkpt>
      <trkpt lat="43.433355" lon="-8.191328">
        <ele>0.00</ele>
        <time>2021-07-20T20:38:50Z</time>
      </trkpt>
      <trkpt lat="43.433030" lon="-8.191129">
        <ele>0.00</ele>
        <time>2021-07-20T20:38:58Z</time>
      </trkpt>
      <trkpt lat="43.432384" lon="-8.190789">
        <ele>0.00</ele>
        <time>2021-07-20T20:39:14Z</time>
      </trkpt>
      <trkpt lat="43.432206" lon="-8.190656">
        <ele>0.00</ele>
        <time>2021-07-20T20:39:18Z</time>
      </trkpt>
      <trkpt lat="43.432138" lon="-8.190553">
        <ele>0.00</ele>
        <time>2021-07-20T20:39:21Z</time>
      </trkpt>
      <trkpt lat="43.432083" lon="-8.190396">
        <ele>0.00</ele>
        <time>2021-07-20T20:39:23Z</time>
      </trkpt>
      <trkpt lat="43.431975" lon="-8.189862">
        <ele>0.00</ele>
        <time>2021-07-20T20:39:32Z</time>
      </trkpt>
      <trkpt lat="43.432008" lon="-8.188781">
        <ele>0.00</ele>
        <time>2021-07-20T20:39:50Z</time>
      </trkpt>
      <trkpt lat="43.432004" lon="-8.188631">
        <ele>0.00</ele>
        <time>2021-07-20T20:39:52Z</time>
      </trkpt>
      <trkpt lat="43.431971" lon="-8.188425">
        <ele>0.00</ele>
        <time>2021-07-20T20:39:56Z</time>
      </trkpt>
      <trkpt lat="43.431933" lon="-8.188331">
        <ele>0.00</ele>
        <time>2021-07-20T20:39:57Z</time>
      </trkpt>
      <trkpt lat="43.431809" lon="-8.188172">
        <ele>0.00</ele>
        <time>2021-07-20T20:40:01Z</time>
      </trkpt>
      <trkpt lat="43.431477" lon="-8.187893">
        <ele>0.00</ele>
        <time>2021-07-20T20:40:10Z</time>
      </trkpt>
      <trkpt lat="43.431137" lon="-8.187534">
        <ele>0.00</ele>
        <time>2021-07-20T20:40:19Z</time>
      </trkpt>
      <trkpt lat="43.430851" lon="-8.187117">
        <ele>0.00</ele>
        <time>2021-07-20T20:40:29Z</time>
      </trkpt>
      <trkpt lat="43.430779" lon="-8.186928">
        <ele>0.00</ele>
        <time>2021-07-20T20:40:32Z</time>
      </trkpt>
      <trkpt lat="43.430636" lon="-8.186212">
        <ele>0.00</ele>
        <time>2021-07-20T20:40:44Z</time>
      </trkpt>
      <trkpt lat="43.430456" lon="-8.185659">
        <ele>0.00</ele>
        <time>2021-07-20T20:40:54Z</time>
      </trkpt>
      <trkpt lat="43.430320" lon="-8.184770">
        <ele>0.00</ele>
        <time>2021-07-20T20:41:09Z</time>
      </trkpt>
      <trkpt lat="43.430232" lon="-8.184542">
        <ele>0.00</ele>
        <time>2021-07-20T20:41:13Z</time>
      </trkpt>
      <trkpt lat="43.429930" lon="-8.183880">
        <ele>0.00</ele>
        <time>2021-07-20T20:41:25Z</time>
      </trkpt>
      <trkpt lat="43.429850" lon="-8.183740">
        <ele>0.00</ele>
        <time>2021-07-20T20:41:28Z</time>
      </trkpt>
      <trkpt lat="43.428721" lon="-8.182277">
        <ele>0.00</ele>
        <time>2021-07-20T20:42:03Z</time>
      </trkpt>
      <trkpt lat="43.428639" lon="-8.182121">
        <ele>0.00</ele>
        <time>2021-07-20T20:42:06Z</time>
      </trkpt>
      <trkpt lat="43.428598" lon="-8.182006">
        <ele>0.00</ele>
        <time>2021-07-20T20:42:08Z</time>
      </trkpt>
      <trkpt lat="43.428583" lon="-8.181896">
        <ele>0.00</ele>
        <time>2021-07-20T20:42:10Z</time>
      </trkpt>
      <trkpt lat="43.428592" lon="-8.181757">
        <ele>0.00</ele>
        <time>2021-07-20T20:42:12Z</time>
      </trkpt>
      <trkpt lat="43.428616" lon="-8.181661">
        <ele>0.00</ele>
        <time>2021-07-20T20:42:14Z</time>
      </trkpt>
      <trkpt lat="43.428717" lon="-8.181472">
        <ele>0.00</ele>
        <time>2021-07-20T20:42:18Z</time>
      </trkpt>
      <trkpt lat="43.428908" lon="-8.181215">
        <ele>0.00</ele>
        <time>2021-07-20T20:42:24Z</time>
      </trkpt>
      <trkpt lat="43.428754" lon="-8.181031">
        <ele>0.00</ele>
        <time>2021-07-20T20:42:28Z</time>
      </trkpt>
      <trkpt lat="43.428557" lon="-8.180845">
        <ele>0.00</ele>
        <time>2021-07-20T20:42:34Z</time>
      </trkpt>
      <trkpt lat="43.428480" lon="-8.180648">
        <ele>0.00</ele>
        <time>2021-07-20T20:42:37Z</time>
      </trkpt>
      <trkpt lat="43.428304" lon="-8.180456">
        <ele>0.00</ele>
        <time>2021-07-20T20:42:42Z</time>
      </trkpt>
      <trkpt lat="43.428193" lon="-8.180254">
        <ele>0.00</ele>
        <time>2021-07-20T20:42:46Z</time>
      </trkpt>
      <trkpt lat="43.428083" lon="-8.179798">
        <ele>0.00</ele>
        <time>2021-07-20T20:42:54Z</time>
      </trkpt>
      <trkpt lat="43.428140" lon="-8.179071">
        <ele>0.00</ele>
        <time>2021-07-20T20:43:08Z</time>
      </trkpt>
      <trkpt lat="43.428315" lon="-8.178553">
        <ele>0.00</ele>
        <time>2021-07-20T20:43:18Z</time>
      </trkpt>
      <trkpt lat="43.427619" lon="-8.178243">
        <ele>0.00</ele>
        <time>2021-07-20T20:43:36Z</time>
      </trkpt>
      <trkpt lat="43.427355" lon="-8.178028">
        <ele>0.00</ele>
        <time>2021-07-20T20:43:44Z</time>
      </trkpt>
      <trkpt lat="43.427216" lon="-8.178020">
        <ele>0.00</ele>
        <time>2021-07-20T20:43:47Z</time>
      </trkpt>
      <trkpt lat="43.426950" lon="-8.178163">
        <ele>0.00</ele>
        <time>2021-07-20T20:43:54Z</time>
      </trkpt>
      <trkpt lat="43.426869" lon="-8.178187">
        <ele>0.00</ele>
        <time>2021-07-20T20:43:57Z</time>
      </trkpt>
      <trkpt lat="43.426388" lon="-8.178029">
        <ele>0.00</ele>
        <time>2021-07-20T20:44:09Z</time>
      </trkpt>
      <trkpt lat="43.426101" lon="-8.177878">
        <ele>0.00</ele>
        <time>2021-07-20T20:44:16Z</time>
      </trkpt>
      <trkpt lat="43.425304" lon="-8.177179">
        <ele>0.00</ele>
        <time>2021-07-20T20:44:40Z</time>
      </trkpt>
      <trkpt lat="43.424813" lon="-8.176712">
        <ele>0.00</ele>
        <time>2021-07-20T20:44:55Z</time>
      </trkpt>
      <trkpt lat="43.424563" lon="-8.176321">
        <ele>0.00</ele>
        <time>2021-07-20T20:45:04Z</time>
      </trkpt>
      <trkpt lat="43.424276" lon="-8.175953">
        <ele>0.00</ele>
        <time>2021-07-20T20:45:14Z</time>
      </trkpt>
      <trkpt lat="43.423818" lon="-8.175537">
        <ele>0.00</ele>
        <time>2021-07-20T20:45:28Z</time>
      </trkpt>
      <trkpt lat="43.423733" lon="-8.175481">
        <ele>0.00</ele>
        <time>2021-07-20T20:45:30Z</time>
      </trkpt>
      <trkpt lat="43.423453" lon="-8.175468">
        <ele>0.00</ele>
        <time>2021-07-20T20:45:37Z</time>
      </trkpt>
      <trkpt lat="43.423272" lon="-8.175431">
        <ele>0.00</ele>
        <time>2021-07-20T20:45:42Z</time>
      </trkpt>
      <trkpt lat="43.423055" lon="-8.175332">
        <ele>0.00</ele>
        <time>2021-07-20T20:45:47Z</time>
      </trkpt>
      <trkpt lat="43.422996" lon="-8.175268">
        <ele>0.00</ele>
        <time>2021-07-20T20:45:49Z</time>
      </trkpt>
      <trkpt lat="43.422771" lon="-8.174688">
        <ele>0.00</ele>
        <time>2021-07-20T20:46:01Z</time>
      </trkpt>
      <trkpt lat="43.422721" lon="-8.174456">
        <ele>0.00</ele>
        <time>2021-07-20T20:46:06Z</time>
      </trkpt>
      <trkpt lat="43.422497" lon="-8.173966">
        <ele>0.00</ele>
        <time>2021-07-20T20:46:15Z</time>
      </trkpt>
      <trkpt lat="43.422323" lon="-8.173747">
        <ele>0.00</ele>
        <time>2021-07-20T20:46:20Z</time>
      </trkpt>
      <trkpt lat="43.421887" lon="-8.173422">
        <ele>0.00</ele>
        <time>2021-07-20T20:46:31Z</time>
      </trkpt>
      <trkpt lat="43.421822" lon="-8.173352">
        <ele>0.00</ele>
        <time>2021-07-20T20:46:33Z</time>
      </trkpt>
      <trkpt lat="43.421753" lon="-8.173349">
        <ele>0.00</ele>
        <time>2021-07-20T20:46:35Z</time>
      </trkpt>
      <trkpt lat="43.421671" lon="-8.173308">
        <ele>0.00</ele>
        <time>2021-07-20T20:46:37Z</time>
      </trkpt>
      <trkpt lat="43.421231" lon="-8.172586">
        <ele>0.00</ele>
        <time>2021-07-20T20:46:52Z</time>
      </trkpt>
      <trkpt lat="43.421013" lon="-8.172364">
        <ele>0.00</ele>
        <time>2021-07-20T20:46:58Z</time>
      </trkpt>
      <trkpt lat="43.420866" lon="-8.172276">
        <ele>0.00</ele>
        <time>2021-07-20T20:47:02Z</time>
      </trkpt>
      <trkpt lat="43.420474" lon="-8.171984">
        <ele>0.00</ele>
        <time>2021-07-20T20:47:12Z</time>
      </trkpt>
      <trkpt lat="43.420169" lon="-8.171815">
        <ele>0.00</ele>
        <time>2021-07-20T20:47:19Z</time>
      </trkpt>
      <trkpt lat="43.420072" lon="-8.171842">
        <ele>0.00</ele>
        <time>2021-07-20T20:47:21Z</time>
      </trkpt>
      <trkpt lat="43.420021" lon="-8.171882">
        <ele>0.00</ele>
        <time>2021-07-20T20:47:23Z</time>
      </trkpt>
      <trkpt lat="43.419963" lon="-8.171872">
        <ele>0.00</ele>
        <time>2021-07-20T20:47:24Z</time>
      </trkpt>
      <trkpt lat="43.419920" lon="-8.171814">
        <ele>0.00</ele>
        <time>2021-07-20T20:47:25Z</time>
      </trkpt>
      <trkpt lat="43.419882" lon="-8.171707">
        <ele>0.00</ele>
        <time>2021-07-20T20:47:27Z</time>
      </trkpt>
      <trkpt lat="43.419408" lon="-8.171353">
        <ele>0.00</ele>
        <time>2021-07-20T20:47:39Z</time>
      </trkpt>
      <trkpt lat="43.417821" lon="-8.170066">
        <ele>0.00</ele>
        <time>2021-07-20T20:48:20Z</time>
      </trkpt>
      <trkpt lat="43.417444" lon="-8.169758">
        <ele>0.00</ele>
        <time>2021-07-20T20:48:30Z</time>
      </trkpt>
      <trkpt lat="43.416820" lon="-8.169278">
        <ele>0.00</ele>
        <time>2021-07-20T20:48:46Z</time>
      </trkpt>
      <trkpt lat="43.416507" lon="-8.169025">
        <ele>0.00</ele>
        <time>2021-07-20T20:48:54Z</time>
      </trkpt>
      <trkpt lat="43.416361" lon="-8.168991">
        <ele>0.00</ele>
        <time>2021-07-20T20:48:57Z</time>
      </trkpt>
      <trkpt lat="43.416261" lon="-8.169016">
        <ele>0.00</ele>
        <time>2021-07-20T20:48:59Z</time>
      </trkpt>
      <trkpt lat="43.414254" lon="-8.170843">
        <ele>0.00</ele>
        <time>2021-07-20T20:49:53Z</time>
      </trkpt>
      <trkpt lat="43.413577" lon="-8.171383">
        <ele>0.00</ele>
        <time>2021-07-20T20:50:10Z</time>
      </trkpt>
      <trkpt lat="43.413444" lon="-8.171538">
        <ele>0.00</ele>
        <time>2021-07-20T20:50:14Z</time>
      </trkpt>
      <trkpt lat="43.413248" lon="-8.171692">
        <ele>0.00</ele>
        <time>2021-07-20T20:50:19Z</time>
      </trkpt>
      <trkpt lat="43.413200" lon="-8.171733">
        <ele>0.00</ele>
        <time>2021-07-20T20:50:20Z</time>
      </trkpt>
      <trkpt lat="43.413089" lon="-8.171743">
        <ele>0.00</ele>
        <time>2021-07-20T20:50:23Z</time>
      </trkpt>
      <trkpt lat="43.412995" lon="-8.171660">
        <ele>0.00</ele>
        <time>2021-07-20T20:50:25Z</time>
      </trkpt>
      <trkpt lat="43.412956" lon="-8.171517">
        <ele>0.00</ele>
        <time>2021-07-20T20:50:28Z</time>
      </trkpt>
      <trkpt lat="43.412962" lon="-8.171440">
        <ele>0.00</ele>
        <time>2021-07-20T20:50:29Z</time>
      </trkpt>
      <trkpt lat="43.412986" lon="-8.171369">
        <ele>0.00</ele>
        <time>2021-07-20T20:50:30Z</time>
      </trkpt>
      <trkpt lat="43.413059" lon="-8.171235">
        <ele>0.00</ele>
        <time>2021-07-20T20:50:33Z</time>
      </trkpt>
      <trkpt lat="43.413070" lon="-8.171160">
        <ele>0.00</ele>
        <time>2021-07-20T20:50:34Z</time>
      </trkpt>
      <trkpt lat="43.413054" lon="-8.171047">
        <ele>0.00</ele>
        <time>2021-07-20T20:50:36Z</time>
      </trkpt>
      <trkpt lat="43.413060" lon="-8.170996">
        <ele>0.00</ele>
        <time>2021-07-20T20:50:37Z</time>
      </trkpt>
      <trkpt lat="43.412917" lon="-8.169762">
        <ele>0.00</ele>
        <time>2021-07-20T20:50:57Z</time>
      </trkpt>
      <trkpt lat="43.412822" lon="-8.169084">
        <ele>0.00</ele>
        <time>2021-07-20T20:51:09Z</time>
      </trkpt>
      <trkpt lat="43.412732" lon="-8.168793">
        <ele>0.00</ele>
        <time>2021-07-20T20:51:14Z</time>
      </trkpt>
      <trkpt lat="43.412686" lon="-8.168702">
        <ele>0.00</ele>
        <time>2021-07-20T20:51:15Z</time>
      </trkpt>
      <trkpt lat="43.412616" lon="-8.168625">
        <ele>0.00</ele>
        <time>2021-07-20T20:51:17Z</time>
      </trkpt>
      <trkpt lat="43.412543" lon="-8.168585">
        <ele>0.00</ele>
        <time>2021-07-20T20:51:19Z</time>
      </trkpt>
      <trkpt lat="43.412364" lon="-8.168558">
        <ele>0.00</ele>
        <time>2021-07-20T20:51:23Z</time>
      </trkpt>
      <trkpt lat="43.411732" lon="-8.168692">
        <ele>0.00</ele>
        <time>2021-07-20T20:51:37Z</time>
      </trkpt>
      <trkpt lat="43.407831" lon="-8.169939">
        <ele>0.00</ele>
        <time>2021-07-20T20:53:06Z</time>
      </trkpt>
      <trkpt lat="43.407571" lon="-8.170012">
        <ele>0.00</ele>
        <time>2021-07-20T20:53:12Z</time>
      </trkpt>
      <trkpt lat="43.407510" lon="-8.170082">
        <ele>0.00</ele>
        <time>2021-07-20T20:53:14Z</time>
      </trkpt>
      <trkpt lat="43.407462" lon="-8.170101">
        <ele>0.00</ele>
        <time>2021-07-20T20:53:15Z</time>
      </trkpt>
      <trkpt lat="43.407412" lon="-8.170099">
        <ele>0.00</ele>
        <time>2021-07-20T20:53:16Z</time>
      </trkpt>
      <trkpt lat="43.407339" lon="-8.170051">
        <ele>0.00</ele>
        <time>2021-07-20T20:53:18Z</time>
      </trkpt>
      <trkpt lat="43.407290" lon="-8.169954">
        <ele>0.00</ele>
        <time>2021-07-20T20:53:20Z</time>
      </trkpt>
      <trkpt lat="43.407281" lon="-8.169880">
        <ele>0.00</ele>
        <time>2021-07-20T20:53:21Z</time>
      </trkpt>
      <trkpt lat="43.407290" lon="-8.169805">
        <ele>0.00</ele>
        <time>2021-07-20T20:53:23Z</time>
      </trkpt>
      <trkpt lat="43.407317" lon="-8.169740">
        <ele>0.00</ele>
        <time>2021-07-20T20:53:24Z</time>
      </trkpt>
      <trkpt lat="43.407406" lon="-8.169665">
        <ele>0.00</ele>
        <time>2021-07-20T20:53:26Z</time>
      </trkpt>
      <trkpt lat="43.407505" lon="-8.169677">
        <ele>0.00</ele>
        <time>2021-07-20T20:53:28Z</time>
      </trkpt>
      <trkpt lat="43.407548" lon="-8.169714">
        <ele>0.00</ele>
        <time>2021-07-20T20:53:29Z</time>
      </trkpt>
      <trkpt lat="43.407596" lon="-8.169815">
        <ele>0.00</ele>
        <time>2021-07-20T20:53:31Z</time>
      </trkpt>
      <trkpt lat="43.407651" lon="-8.169859">
        <ele>0.00</ele>
        <time>2021-07-20T20:53:33Z</time>
      </trkpt>
      <trkpt lat="43.407678" lon="-8.169398">
        <ele>0.00</ele>
        <time>2021-07-20T20:53:40Z</time>
      </trkpt>
      <trkpt lat="43.407583" lon="-8.169133">
        <ele>0.00</ele>
        <time>2021-07-20T20:53:45Z</time>
      </trkpt>
      <trkpt lat="43.407607" lon="-8.169115">
        <ele>0.00</ele>
        <time>2021-07-20T20:53:48Z</time>
      </trkpt>
      <trkpt lat="43.406854" lon="-8.166966">
        <ele>0.00</ele>
        <time>2021-07-20T20:56:41Z</time>
      </trkpt>
    </trkseg>
  </trk>
</gpx>
